| time (UTC) | temp C | wind direction | speed KPH | gust KPH | rain 1hr cm | rain 24hr cm | rain mn cm | humidity % | barometer mb |
| 20260906080004 | 30 | 302 | 4.8 | 16.1 | 0.00 | 0.00 | 0.00 | 61 | 1020.1 |
| 20260906075904 | 30 | 303 | 6.4 | 16.1 | 0.00 | 0.00 | 0.00 | 61 | 1020.0 |
| 20260906075804 | 30 | 303 | 6.4 | 16.1 | 0.00 | 0.00 | 0.00 | 61 | 1020.1 |
| 20260906075703 | 30 | 303 | 6.4 | 16.1 | 0.00 | 0.00 | 0.00 | 61 | 1020.2 |
| 20260906075603 | 30 | 302 | 6.4 | 16.1 | 0.00 | 0.00 | 0.00 | 61 | 1020.1 |
| 20260906075503 | 30 | 300 | 6.4 | 14.5 | 0.00 | 0.00 | 0.00 | 62 | 1020.1 |
| 20260906075403 | 30 | 299 | 6.4 | 14.5 | 0.00 | 0.00 | 0.00 | 62 | 1020.0 |
| 20260906075306 | 30 | 300 | 6.4 | 14.5 | 0.00 | 0.00 | 0.00 | 62 | 1020.2 |
| 20260906075203 | 30 | 300 | 6.4 | 14.5 | 0.00 | 0.00 | 0.00 | 62 | 1020.2 |
| 20260906075103 | 30 | 299 | 8.0 | 19.3 | 0.00 | 0.00 | 0.00 | 62 | 1020.2 |
| 20260906075004 | 30 | 299 | 8.0 | 19.3 | 0.00 | 0.00 | 0.00 | 62 | 1020.2 |
| 20260906074903 | 30 | 297 | 8.0 | 19.3 | 0.00 | 0.00 | 0.00 | 62 | 1020.2 |
| 20260906074803 | 30 | 297 | 8.0 | 19.3 | 0.00 | 0.00 | 0.00 | 62 | 1020.2 |
| 20260906074703 | 30 | 296 | 8.0 | 19.3 | 0.00 | 0.00 | 0.00 | 63 | 1020.3 |
| 20260906074603 | 30 | 295 | 8.0 | 19.3 | 0.00 | 0.00 | 0.00 | 63 | 1020.2 |
| 20260906074503 | 30 | 295 | 8.0 | 19.3 | 0.00 | 0.00 | 0.00 | 63 | 1020.1 |
| 20260906074403 | 30 | 296 | 9.7 | 19.3 | 0.00 | 0.00 | 0.00 | 63 | 1020.1 |
| 20260906074303 | 30 | 296 | 9.7 | 19.3 | 0.00 | 0.00 | 0.00 | 63 | 1020.1 |
| 20260906074203 | 30 | 295 | 8.0 | 19.3 | 0.00 | 0.00 | 0.00 | 62 | 1020.2 |
| 20260906074103 | 30 | 295 | 8.0 | 19.3 | 0.00 | 0.00 | 0.00 | 63 | 1020.1 |
| 20260906074003 | 30 | 294 | 8.0 | 17.7 | 0.00 | 0.00 | 0.00 | 63 | 1020.1 |
| 20260906073903 | 30 | 295 | 6.4 | 14.5 | 0.00 | 0.00 | 0.00 | 63 | 1020.1 |
| 20260906073803 | 30 | 295 | 6.4 | 14.5 | 0.00 | 0.00 | 0.00 | 63 | 1020.1 |
| 20260906073703 | 30 | 294 | 6.4 | 14.5 | 0.00 | 0.00 | 0.00 | 63 | 1020.1 |
| 20260906073603 | 30 | 295 | 6.4 | 14.5 | 0.00 | 0.00 | 0.00 | 63 | 1020.1 |
| 20260906073503 | 30 | 296 | 6.4 | 12.9 | 0.00 | 0.00 | 0.00 | 64 | 1020.2 |
| 20260906073403 | 30 | 295 | 6.4 | 16.1 | 0.00 | 0.00 | 0.00 | 64 | 1020.2 |
| 20260906073303 | 30 | 294 | 6.4 | 16.1 | 0.00 | 0.00 | 0.00 | 64 | 1020.1 |
| 20260906073203 | 30 | 296 | 6.4 | 16.1 | 0.00 | 0.00 | 0.00 | 64 | 1020.1 |
| 20260906073103 | 30 | 297 | 8.0 | 16.1 | 0.00 | 0.00 | 0.00 | 64 | 1020.1 |
| 20260906073003 | 30 | 297 | 8.0 | 16.1 | 0.00 | 0.00 | 0.00 | 64 | 1020.1 |
| 20260906072903 | 30 | 297 | 8.0 | 16.1 | 0.00 | 0.00 | 0.00 | 64 | 1020.1 |
| 20260906072803 | 30 | 297 | 8.0 | 20.9 | 0.00 | 0.00 | 0.00 | 64 | 1020.1 |
| 20260906072703 | 30 | 298 | 9.7 | 20.9 | 0.00 | 0.00 | 0.00 | 64 | 1020.1 |
| 20260906072603 | 30 | 298 | 9.7 | 20.9 | 0.00 | 0.00 | 0.00 | 64 | 1020.2 |
| 20260906072503 | 30 | 299 | 9.7 | 20.9 | 0.00 | 0.00 | 0.00 | 64 | 1020.2 |
| 20260906072403 | 30 | 300 | 9.7 | 20.9 | 0.00 | 0.00 | 0.00 | 64 | 1020.1 |
| 20260906072306 | 30 | 300 | 9.7 | 20.9 | 0.00 | 0.00 | 0.00 | 65 | 1020.2 |
| 20260906072203 | 30 | 299 | 9.7 | 20.9 | 0.00 | 0.00 | 0.00 | 64 | 1020.1 |
| 20260906072103 | 30 | 299 | 9.7 | 20.9 | 0.00 | 0.00 | 0.00 | 65 | 1020.1 |
| 20260906072003 | 30 | 300 | 9.7 | 20.9 | 0.00 | 0.00 | 0.00 | 65 | 1020.1 |
| 20260906071903 | 30 | 300 | 9.7 | 20.9 | 0.00 | 0.00 | 0.00 | 65 | 1020.2 |
| 20260906071803 | 30 | 299 | 9.7 | 17.7 | 0.00 | 0.00 | 0.00 | 65 | 1020.1 |
| 20260906071703 | 29 | 300 | 8.0 | 17.7 | 0.00 | 0.00 | 0.00 | 65 | 1020.2 |
| 20260906071603 | 30 | 299 | 9.7 | 20.9 | 0.00 | 0.00 | 0.00 | 65 | 1020.3 |
| 20260906071503 | 30 | 299 | 9.7 | 20.9 | 0.00 | 0.00 | 0.00 | 65 | 1020.2 |
| 20260906071403 | 30 | 299 | 8.0 | 20.9 | 0.00 | 0.00 | 0.00 | 65 | 1020.2 |
| 20260906071303 | 29 | 300 | 9.7 | 20.9 | 0.00 | 0.00 | 0.00 | 65 | 1020.1 |
| 20260906071203 | 29 | 301 | 9.7 | 20.9 | 0.00 | 0.00 | 0.00 | 65 | 1020.0 |
| 20260906071103 | 29 | 301 | 9.7 | 20.9 | 0.00 | 0.00 | 0.00 | 65 | 1020.0 |
| 20260906071003 | 29 | 301 | 9.7 | 20.9 | 0.00 | 0.00 | 0.00 | 65 | 1020.1 |
| 20260906070903 | 29 | 303 | 9.7 | 20.9 | 0.00 | 0.00 | 0.00 | 65 | 1020.2 |
| 20260906070803 | 29 | 303 | 9.7 | 20.9 | 0.00 | 0.00 | 0.00 | 65 | 1020.0 |
| 20260906070703 | 29 | 304 | 9.7 | 20.9 | 0.00 | 0.00 | 0.00 | 65 | 1019.9 |
| 20260906070603 | 29 | 306 | 9.7 | 19.3 | 0.00 | 0.00 | 0.00 | 65 | 1019.8 |
| 20260906070503 | 29 | 305 | 9.7 | 19.3 | 0.00 | 0.00 | 0.00 | 65 | 1019.9 |
| 20260906070403 | 29 | 304 | 9.7 | 19.3 | 0.00 | 0.00 | 0.00 | 65 | 1019.8 |
| 20260906070303 | 29 | 303 | 9.7 | 17.7 | 0.00 | 0.00 | 0.00 | 65 | 1019.8 |
| 20260906070203 | 29 | 303 | 9.7 | 17.7 | 0.00 | 0.00 | 0.00 | 65 | 1019.9 |
| 20260906070003 | 29 | 302 | 11.3 | 20.9 | 0.00 | 0.00 | 0.00 | 65 | 1019.9 |
| 20260906065903 | 30 | 302 | 9.7 | 20.9 | 0.00 | 0.00 | 0.00 | 65 | 1019.9 |
| 20260906065803 | 30 | 302 | 9.7 | 20.9 | 0.00 | 0.00 | 0.00 | 65 | 1019.8 |
| 20260906065703 | 30 | 301 | 9.7 | 20.9 | 0.00 | 0.00 | 0.00 | 65 | 1019.9 |
| 20260906065603 | 30 | 299 | 9.7 | 20.9 | 0.00 | 0.00 | 0.00 | 65 | 1019.8 |
| 20260906065503 | 30 | 300 | 9.7 | 20.9 | 0.00 | 0.00 | 0.00 | 65 | 1019.7 |
| 20260906065403 | 30 | 301 | 8.0 | 20.9 | 0.00 | 0.00 | 0.00 | 65 | 1019.7 |
| 20260906065305 | 30 | 301 | 8.0 | 20.9 | 0.00 | 0.00 | 0.00 | 65 | 1019.7 |
| 20260906065203 | 30 | 301 | 8.0 | 20.9 | 0.00 | 0.00 | 0.00 | 66 | 1019.8 |
| 20260906065103 | 30 | 299 | 8.0 | 20.9 | 0.00 | 0.00 | 0.00 | 66 | 1019.7 |
| 20260906065003 | 30 | 300 | 8.0 | 17.7 | 0.00 | 0.00 | 0.00 | 66 | 1019.7 |
| 20260906064903 | 30 | 300 | 8.0 | 17.7 | 0.00 | 0.00 | 0.00 | 67 | 1019.7 |
| 20260906064803 | 30 | 298 | 8.0 | 17.7 | 0.00 | 0.00 | 0.00 | 67 | 1019.7 |
| 20260906064703 | 30 | 298 | 8.0 | 17.7 | 0.00 | 0.00 | 0.00 | 67 | 1019.7 |
| 20260906064603 | 30 | 298 | 8.0 | 17.7 | 0.00 | 0.00 | 0.00 | 67 | 1019.7 |
| 20260906064503 | 30 | 298 | 8.0 | 17.7 | 0.00 | 0.00 | 0.00 | 67 | 1019.7 |
| 20260906064403 | 30 | 298 | 8.0 | 17.7 | 0.00 | 0.00 | 0.00 | 67 | 1019.7 |
| 20260906064303 | 30 | 299 | 8.0 | 17.7 | 0.00 | 0.00 | 0.00 | 67 | 1019.7 |
| 20260906064204 | 30 | 299 | 8.0 | 17.7 | 0.00 | 0.00 | 0.00 | 67 | 1019.7 |
| 20260906064104 | 30 | 299 | 8.0 | 17.7 | 0.00 | 0.00 | 0.00 | 67 | 1019.7 |
| 20260906064004 | 30 | 300 | 6.4 | 17.7 | 0.00 | 0.00 | 0.00 | 68 | 1019.7 |
| 20260906063904 | 30 | 301 | 8.0 | 17.7 | 0.00 | 0.00 | 0.00 | 68 | 1019.7 |
| 20260906063804 | 30 | 300 | 8.0 | 17.7 | 0.00 | 0.00 | 0.00 | 68 | 1019.6 |
| 20260906063704 | 30 | 300 | 8.0 | 17.7 | 0.00 | 0.00 | 0.00 | 68 | 1019.7 |
| 20260906063604 | 30 | 299 | 8.0 | 17.7 | 0.00 | 0.00 | 0.00 | 68 | 1019.7 |
| 20260906063504 | 30 | 298 | 8.0 | 17.7 | 0.00 | 0.00 | 0.00 | 68 | 1019.7 |
| 20260906063404 | 30 | 297 | 8.0 | 17.7 | 0.00 | 0.00 | 0.00 | 68 | 1019.7 |
| 20260906063304 | 29 | 296 | 8.0 | 17.7 | 0.00 | 0.00 | 0.00 | 67 | 1019.7 |
| 20260906063204 | 30 | 297 | 8.0 | 17.7 | 0.00 | 0.00 | 0.00 | 68 | 1019.7 |
| 20260906063104 | 29 | 296 | 6.4 | 12.9 | 0.00 | 0.00 | 0.00 | 68 | 1019.7 |
| 20260906063004 | 29 | 295 | 6.4 | 12.9 | 0.00 | 0.00 | 0.00 | 68 | 1019.6 |
| 20260906062904 | 29 | 294 | 6.4 | 12.9 | 0.00 | 0.00 | 0.00 | 68 | 1019.6 |
| 20260906062804 | 29 | 294 | 6.4 | 12.9 | 0.00 | 0.00 | 0.00 | 68 | 1019.7 |
| 20260906062704 | 29 | 294 | 6.4 | 12.9 | 0.00 | 0.00 | 0.00 | 68 | 1019.7 |
| 20260906062604 | 29 | 295 | 6.4 | 12.9 | 0.00 | 0.00 | 0.00 | 68 | 1019.6 |
| 20260906062504 | 29 | 296 | 4.8 | 11.3 | 0.00 | 0.00 | 0.00 | 69 | 1019.6 |
| 20260906062404 | 29 | 294 | 6.4 | 16.1 | 0.00 | 0.00 | 0.00 | 69 | 1019.5 |
| 20260906062306 | 29 | 294 | 4.8 | 16.1 | 0.00 | 0.00 | 0.00 | 69 | 1019.5 |
| 20260906062204 | 29 | 294 | 4.8 | 16.1 | 0.00 | 0.00 | 0.00 | 69 | 1019.5 |
| 20260906062104 | 29 | 295 | 6.4 | 16.1 | 0.00 | 0.00 | 0.00 | 69 | 1019.6 |
| 20260906062004 | 29 | 296 | 6.4 | 16.1 | 0.00 | 0.00 | 0.00 | 70 | 1019.6 |
| 20260906061904 | 29 | 297 | 6.4 | 16.1 | 0.00 | 0.00 | 0.00 | 70 | 1019.7 |
| 20260906061804 | 29 | 298 | 6.4 | 16.1 | 0.00 | 0.00 | 0.00 | 70 | 1019.7 |
| 20260906061704 | 28 | 298 | 6.4 | 16.1 | 0.00 | 0.00 | 0.00 | 70 | 1019.7 |
| 20260906061604 | 28 | 297 | 6.4 | 16.1 | 0.00 | 0.00 | 0.00 | 70 | 1019.6 |
| 20260906061504 | 28 | 297 | 8.0 | 16.1 | 0.00 | 0.00 | 0.00 | 70 | 1019.6 |
| 20260906061404 | 28 | 300 | 8.0 | 16.1 | 0.00 | 0.00 | 0.00 | 70 | 1019.6 |
| 20260906061304 | 28 | 300 | 8.0 | 16.1 | 0.00 | 0.00 | 0.00 | 70 | 1019.6 |
| 20260906061204 | 28 | 300 | 8.0 | 16.1 | 0.00 | 0.00 | 0.00 | 71 | 1019.6 |
| 20260906061104 | 28 | 300 | 8.0 | 16.1 | 0.00 | 0.00 | 0.00 | 71 | 1019.6 |
| 20260906061004 | 28 | 298 | 8.0 | 16.1 | 0.00 | 0.00 | 0.00 | 71 | 1019.7 |
| 20260906060904 | 28 | 299 | 8.0 | 17.7 | 0.00 | 0.00 | 0.00 | 71 | 1019.7 |
| 20260906060804 | 28 | 299 | 8.0 | 17.7 | 0.00 | 0.00 | 0.00 | 71 | 1019.6 |
| 20260906060704 | 28 | 300 | 8.0 | 17.7 | 0.00 | 0.00 | 0.00 | 72 | 1019.6 |
| 20260906060603 | 28 | 299 | 8.0 | 17.7 | 0.00 | 0.00 | 0.00 | 72 | 1019.7 |
| 20260906060503 | 28 | 299 | 8.0 | 17.7 | 0.00 | 0.00 | 0.00 | 72 | 1019.7 |
| 20260906060403 | 28 | 299 | 8.0 | 17.7 | 0.00 | 0.00 | 0.00 | 73 | 1019.7 |
| 20260906060303 | 28 | 298 | 8.0 | 17.7 | 0.00 | 0.00 | 0.00 | 73 | 1019.6 |
| 20260906060203 | 28 | 298 | 8.0 | 17.7 | 0.00 | 0.00 | 0.00 | 73 | 1019.7 |
| 20260906060103 | 28 | 298 | 8.0 | 17.7 | 0.00 | 0.00 | 0.00 | 73 | 1019.6 |
| 20260906060004 | 27 | 298 | 8.0 | 17.7 | 0.00 | 0.00 | 0.00 | 73 | 1019.6 |
| 20260906055903 | 27 | 297 | 8.0 | 14.5 | 0.00 | 0.00 | 0.00 | 74 | 1019.6 |
| 20260906055803 | 27 | 297 | 6.4 | 14.5 | 0.00 | 0.00 | 0.00 | 74 | 1019.6 |
| 20260906055703 | 27 | 297 | 8.0 | 14.5 | 0.00 | 0.00 | 0.00 | 74 | 1019.6 |
| 20260906055604 | 27 | 297 | 8.0 | 14.5 | 0.00 | 0.00 | 0.00 | 74 | 1019.6 |
| 20260906055503 | 27 | 297 | 8.0 | 14.5 | 0.00 | 0.00 | 0.00 | 74 | 1019.6 |
| 20260906055404 | 27 | 298 | 6.4 | 14.5 | 0.00 | 0.00 | 0.00 | 74 | 1019.6 |
| 20260906055306 | 27 | 299 | 8.0 | 16.1 | 0.00 | 0.00 | 0.00 | 74 | 1019.6 |
| 20260906055204 | 27 | 299 | 6.4 | 16.1 | 0.00 | 0.00 | 0.00 | 74 | 1019.6 |
| 20260906055103 | 27 | 300 | 6.4 | 16.1 | 0.00 | 0.00 | 0.00 | 75 | 1019.6 |
| 20260906055003 | 27 | 301 | 6.4 | 16.1 | 0.00 | 0.00 | 0.00 | 75 | 1019.6 |
| 20260906054903 | 27 | 305 | 8.0 | 16.1 | 0.00 | 0.00 | 0.00 | 75 | 1019.5 |
| 20260906054803 | 27 | 306 | 8.0 | 16.1 | 0.00 | 0.00 | 0.00 | 75 | 1019.5 |
| 20260906054704 | 27 | 305 | 8.0 | 16.1 | 0.00 | 0.00 | 0.00 | 75 | 1019.5 |
| 20260906054603 | 27 | 305 | 8.0 | 16.1 | 0.00 | 0.00 | 0.00 | 75 | 1019.5 |
| 20260906054504 | 27 | 306 | 6.4 | 16.1 | 0.00 | 0.00 | 0.00 | 75 | 1019.5 |
| 20260906054403 | 27 | 304 | 6.4 | 16.1 | 0.00 | 0.00 | 0.00 | 75 | 1019.5 |
| 20260906054303 | 27 | 304 | 6.4 | 16.1 | 0.00 | 0.00 | 0.00 | 75 | 1019.5 |
| 20260906054203 | 27 | 304 | 6.4 | 16.1 | 0.00 | 0.00 | 0.00 | 75 | 1019.4 |
| 20260906054103 | 27 | 303 | 6.4 | 16.1 | 0.00 | 0.00 | 0.00 | 75 | 1019.5 |
| 20260906054003 | 27 | 303 | 6.4 | 16.1 | 0.00 | 0.00 | 0.00 | 75 | 1019.4 |
| 20260906053903 | 27 | 298 | 6.4 | 16.1 | 0.00 | 0.00 | 0.00 | 76 | 1019.4 |
| 20260906053803 | 27 | 297 | 6.4 | 16.1 | 0.00 | 0.00 | 0.00 | 76 | 1019.3 |
| 20260906053703 | 27 | 299 | 4.8 | 16.1 | 0.00 | 0.00 | 0.00 | 76 | 1019.4 |
| 20260906053603 | 27 | 300 | 4.8 | 16.1 | 0.00 | 0.00 | 0.00 | 76 | 1019.4 |
| 20260906053503 | 27 | 299 | 6.4 | 12.9 | 0.00 | 0.00 | 0.00 | 76 | 1019.3 |
| 20260906053403 | 27 | 297 | 6.4 | 17.7 | 0.00 | 0.00 | 0.00 | 76 | 1019.3 |
| 20260906053303 | 27 | 295 | 6.4 | 17.7 | 0.00 | 0.00 | 0.00 | 76 | 1019.4 |
| 20260906053203 | 27 | 295 | 6.4 | 17.7 | 0.00 | 0.00 | 0.00 | 76 | 1019.4 |
| 20260906053103 | 27 | 295 | 6.4 | 17.7 | 0.00 | 0.00 | 0.00 | 76 | 1019.4 |
| 20260906053003 | 27 | 295 | 4.8 | 17.7 | 0.00 | 0.00 | 0.00 | 76 | 1019.5 |
| 20260906052903 | 27 | 294 | 4.8 | 17.7 | 0.00 | 0.00 | 0.00 | 76 | 1019.4 |
| 20260906052803 | 27 | 294 | 6.4 | 17.7 | 0.00 | 0.00 | 0.00 | 76 | 1019.4 |
| 20260906052703 | 27 | 293 | 6.4 | 17.7 | 0.00 | 0.00 | 0.00 | 76 | 1019.3 |
| 20260906052603 | 26 | 292 | 6.4 | 17.7 | 0.00 | 0.00 | 0.00 | 76 | 1019.3 |
| 20260906052503 | 26 | 294 | 4.8 | 17.7 | 0.00 | 0.00 | 0.00 | 76 | 1019.3 |
| 20260906052403 | 26 | 294 | 4.8 | 11.3 | 0.00 | 0.00 | 0.00 | 76 | 1019.3 |
| 20260906052305 | 26 | 296 | 4.8 | 12.9 | 0.00 | 0.00 | 0.00 | 76 | 1019.3 |
| 20260906052203 | 26 | 294 | 4.8 | 12.9 | 0.00 | 0.00 | 0.00 | 76 | 1019.3 |
| 20260906052103 | 26 | 293 | 4.8 | 12.9 | 0.00 | 0.00 | 0.00 | 76 | 1019.2 |
| 20260906052003 | 26 | 293 | 4.8 | 17.7 | 0.00 | 0.00 | 0.00 | 76 | 1019.3 |
| 20260906051903 | 26 | 294 | 4.8 | 17.7 | 0.00 | 0.00 | 0.00 | 76 | 1019.3 |
| 20260906051803 | 26 | 294 | 4.8 | 17.7 | 0.00 | 0.00 | 0.00 | 76 | 1019.3 |
| 20260906051703 | 26 | 294 | 6.4 | 17.7 | 0.00 | 0.00 | 0.00 | 76 | 1019.2 |
| 20260906051603 | 26 | 293 | 4.8 | 17.7 | 0.00 | 0.00 | 0.00 | 76 | 1019.2 |
| 20260906051503 | 26 | 292 | 4.8 | 17.7 | 0.00 | 0.00 | 0.00 | 76 | 1019.2 |
| 20260906051403 | 26 | 291 | 6.4 | 17.7 | 0.00 | 0.00 | 0.00 | 76 | 1019.3 |
| 20260906051303 | 26 | 291 | 4.8 | 17.7 | 0.00 | 0.00 | 0.00 | 76 | 1019.2 |
| 20260906051203 | 26 | 292 | 4.8 | 17.7 | 0.00 | 0.00 | 0.00 | 76 | 1019.2 |
| 20260906051103 | 26 | 293 | 4.8 | 17.7 | 0.00 | 0.00 | 0.00 | 76 | 1019.2 |
| 20260906051003 | 26 | 292 | 4.8 | 9.7 | 0.00 | 0.00 | 0.00 | 76 | 1019.1 |
| 20260906050903 | 26 | 293 | 4.8 | 9.7 | 0.00 | 0.00 | 0.00 | 76 | 1019.3 |
| 20260906050803 | 26 | 292 | 3.2 | 9.7 | 0.00 | 0.00 | 0.00 | 76 | 1019.4 |
| 20260906050703 | 26 | 292 | 4.8 | 9.7 | 0.00 | 0.00 | 0.00 | 76 | 1019.4 |
| 20260906050603 | 26 | 293 | 4.8 | 11.3 | 0.00 | 0.00 | 0.00 | 76 | 1019.5 |
| 20260906050503 | 26 | 294 | 4.8 | 12.9 | 0.00 | 0.00 | 0.00 | 76 | 1019.3 |
| 20260906050403 | 26 | 296 | 4.8 | 12.9 | 0.00 | 0.00 | 0.00 | 76 | 1019.3 |
| 20260906050303 | 26 | 295 | 4.8 | 12.9 | 0.00 | 0.00 | 0.00 | 76 | 1019.3 |
| 20260906050203 | 26 | 296 | 4.8 | 12.9 | 0.00 | 0.00 | 0.00 | 76 | 1019.3 |
| 20260906050003 | 26 | 296 | 4.8 | 16.1 | 0.00 | 0.00 | 0.00 | 76 | 1019.2 |
| 20260906045903 | 26 | 296 | 4.8 | 16.1 | 0.00 | 0.00 | 0.00 | 76 | 1019.3 |
| 20260906045803 | 26 | 295 | 6.4 | 16.1 | 0.00 | 0.00 | 0.00 | 76 | 1019.3 |
| 20260906045703 | 26 | 295 | 6.4 | 16.1 | 0.00 | 0.00 | 0.00 | 76 | 1019.3 |
| 20260906045603 | 26 | 295 | 6.4 | 16.1 | 0.00 | 0.00 | 0.00 | 76 | 1019.3 |
| 20260906045503 | 26 | 294 | 4.8 | 16.1 | 0.00 | 0.00 | 0.00 | 76 | 1019.3 |
| 20260906045403 | 26 | 293 | 4.8 | 16.1 | 0.00 | 0.00 | 0.00 | 76 | 1019.3 |
| 20260906045305 | 26 | 295 | 4.8 | 16.1 | 0.00 | 0.00 | 0.00 | 76 | 1019.3 |
| 20260906045203 | 26 | 293 | 4.8 | 16.1 | 0.00 | 0.00 | 0.00 | 76 | 1019.3 |
| 20260906045103 | 26 | 293 | 4.8 | 16.1 | 0.00 | 0.00 | 0.00 | 76 | 1019.2 |
| 20260906045003 | 26 | 293 | 4.8 | 9.7 | 0.00 | 0.00 | 0.00 | 76 | 1019.3 |
| 20260906044903 | 26 | 293 | 4.8 | 9.7 | 0.00 | 0.00 | 0.00 | 76 | 1019.2 |
| 20260906044803 | 26 | 295 | 4.8 | 9.7 | 0.00 | 0.00 | 0.00 | 76 | 1019.1 |
| 20260906044703 | 26 | 297 | 4.8 | 11.3 | 0.00 | 0.00 | 0.00 | 76 | 1019.2 |
| 20260906044603 | 26 | 297 | 4.8 | 11.3 | 0.00 | 0.00 | 0.00 | 76 | 1019.2 |
| 20260906044503 | 26 | 296 | 4.8 | 11.3 | 0.00 | 0.00 | 0.00 | 76 | 1019.1 |
| 20260906044403 | 26 | 297 | 4.8 | 11.3 | 0.00 | 0.00 | 0.00 | 76 | 1019.1 |
| 20260906044303 | 26 | 296 | 4.8 | 11.3 | 0.00 | 0.00 | 0.00 | 76 | 1019.1 |
| 20260906044203 | 26 | 297 | 4.8 | 11.3 | 0.00 | 0.00 | 0.00 | 76 | 1019.2 |
| 20260906044103 | 26 | 297 | 4.8 | 11.3 | 0.00 | 0.00 | 0.00 | 76 | 1019.1 |
| 20260906044003 | 26 | 297 | 4.8 | 11.3 | 0.00 | 0.00 | 0.00 | 76 | 1019.1 |
| 20260906043903 | 26 | 297 | 4.8 | 11.3 | 0.00 | 0.00 | 0.00 | 76 | 1019.2 |
| 20260906043803 | 26 | 296 | 3.2 | 11.3 | 0.00 | 0.00 | 0.00 | 76 | 1019.1 |
| 20260906043703 | 26 | 296 | 4.8 | 9.7 | 0.00 | 0.00 | 0.00 | 76 | 1019.1 |
| 20260906043603 | 26 | 296 | 4.8 | 11.3 | 0.00 | 0.00 | 0.00 | 76 | 1019.2 |
| 20260906043503 | 26 | 298 | 3.2 | 11.3 | 0.00 | 0.00 | 0.00 | 76 | 1019.2 |
| 20260906043403 | 26 | 296 | 3.2 | 11.3 | 0.00 | 0.00 | 0.00 | 76 | 1019.1 |
| 20260906043303 | 26 | 296 | 3.2 | 11.3 | 0.00 | 0.00 | 0.00 | 76 | 1019.1 |
| 20260906043203 | 26 | 293 | 4.8 | 11.3 | 0.00 | 0.00 | 0.00 | 76 | 1019.2 |
| 20260906043104 | 26 | 293 | 3.2 | 11.3 | 0.00 | 0.00 | 0.00 | 76 | 1019.2 |
| 20260906043004 | 26 | 293 | 4.8 | 11.3 | 0.00 | 0.00 | 0.00 | 76 | 1019.0 |
| 20260906042904 | 26 | 293 | 4.8 | 11.3 | 0.00 | 0.00 | 0.00 | 76 | 1019.1 |
| 20260906042804 | 26 | 292 | 4.8 | 11.3 | 0.00 | 0.00 | 0.00 | 76 | 1019.1 |
| 20260906042704 | 26 | 292 | 4.8 | 11.3 | 0.00 | 0.00 | 0.00 | 76 | 1019.2 |
| 20260906042604 | 26 | 293 | 4.8 | 9.7 | 0.00 | 0.00 | 0.00 | 76 | 1019.1 |
| 20260906042504 | 26 | 292 | 4.8 | 9.7 | 0.00 | 0.00 | 0.00 | 76 | 1019.1 |
| 20260906042404 | 26 | 293 | 4.8 | 9.7 | 0.00 | 0.00 | 0.00 | 76 | 1019.1 |
| 20260906042306 | 26 | 293 | 4.8 | 9.7 | 0.00 | 0.00 | 0.00 | 76 | 1019.1 |
| 20260906042204 | 26 | 293 | 4.8 | 9.7 | 0.00 | 0.00 | 0.00 | 76 | 1019.0 |
| 20260906042104 | 26 | 294 | 4.8 | 9.7 | 0.00 | 0.00 | 0.00 | 76 | 1019.0 |
| 20260906042004 | 26 | 297 | 3.2 | 9.7 | 0.00 | 0.00 | 0.00 | 76 | 1019.2 |
| 20260906041904 | 26 | 298 | 3.2 | 9.7 | 0.00 | 0.00 | 0.00 | 76 | 1019.1 |
| 20260906041804 | 26 | 298 | 3.2 | 9.7 | 0.00 | 0.00 | 0.00 | 76 | 1019.1 |
| 20260906041704 | 26 | 298 | 3.2 | 9.7 | 0.00 | 0.00 | 0.00 | 76 | 1019.0 |
| 20260906041604 | 26 | 297 | 3.2 | 8.0 | 0.00 | 0.00 | 0.00 | 76 | 1019.1 |
| 20260906041504 | 26 | 297 | 3.2 | 8.0 | 0.00 | 0.00 | 0.00 | 76 | 1019.1 |
| 20260906041404 | 26 | 297 | 3.2 | 9.7 | 0.00 | 0.00 | 0.00 | 76 | 1019.1 |
| 20260906041304 | 26 | 297 | 3.2 | 9.7 | 0.00 | 0.00 | 0.00 | 76 | 1019.0 |
| 20260906041204 | 26 | 297 | 4.8 | 9.7 | 0.00 | 0.00 | 0.00 | 76 | 1019.0 |
| 20260906041104 | 26 | 296 | 4.8 | 11.3 | 0.00 | 0.00 | 0.00 | 76 | 1019.0 |
| 20260906041004 | 26 | 295 | 4.8 | 11.3 | 0.00 | 0.00 | 0.00 | 76 | 1019.0 |
| 20260906040904 | 26 | 297 | 6.4 | 11.3 | 0.00 | 0.00 | 0.00 | 76 | 1019.0 |
| 20260906040804 | 26 | 297 | 6.4 | 11.3 | 0.00 | 0.00 | 0.00 | 76 | 1019.0 |
| 20260906040705 | 26 | 295 | 6.4 | 11.3 | 0.00 | 0.00 | 0.00 | 76 | 1019.0 |
| 20260906040604 | 26 | 295 | 6.4 | 11.3 | 0.00 | 0.00 | 0.00 | 76 | 1019.0 |
| 20260906040504 | 26 | 296 | 6.4 | 11.3 | 0.00 | 0.00 | 0.00 | 76 | 1019.1 |
| 20260906040404 | 26 | 296 | 6.4 | 12.9 | 0.00 | 0.00 | 0.00 | 76 | 1019.0 |
| 20260906040304 | 26 | 296 | 6.4 | 12.9 | 0.00 | 0.00 | 0.00 | 76 | 1019.0 |
| 20260906040204 | 26 | 298 | 6.4 | 12.9 | 0.00 | 0.00 | 0.00 | 76 | 1019.0 |
| 20260906040104 | 26 | 299 | 6.4 | 12.9 | 0.00 | 0.00 | 0.00 | 76 | 1019.0 |
| 20260906040004 | 26 | 299 | 6.4 | 12.9 | 0.00 | 0.00 | 0.00 | 76 | 1019.0 |
| 20260906035904 | 26 | 297 | 4.8 | 12.9 | 0.00 | 0.00 | 0.00 | 76 | 1019.0 |
| 20260906035804 | 26 | 296 | 4.8 | 12.9 | 0.00 | 0.00 | 0.00 | 76 | 1019.0 |
| 20260906035704 | 26 | 297 | 4.8 | 12.9 | 0.00 | 0.00 | 0.00 | 76 | 1019.0 |
| 20260906035604 | 26 | 297 | 4.8 | 12.9 | 0.00 | 0.00 | 0.00 | 76 | 1019.0 |
| 20260906035504 | 26 | 298 | 4.8 | 12.9 | 0.00 | 0.00 | 0.00 | 76 | 1019.0 |
| 20260906035404 | 26 | 296 | 4.8 | 11.3 | 0.00 | 0.00 | 0.00 | 76 | 1018.9 |
| 20260906035306 | 26 | 296 | 4.8 | 11.3 | 0.00 | 0.00 | 0.00 | 76 | 1018.9 |
| 20260906035204 | 26 | 294 | 4.8 | 11.3 | 0.00 | 0.00 | 0.00 | 76 | 1018.9 |
| 20260906035104 | 26 | 294 | 4.8 | 11.3 | 0.00 | 0.00 | 0.00 | 76 | 1018.9 |
| 20260906035004 | 26 | 294 | 4.8 | 11.3 | 0.00 | 0.00 | 0.00 | 76 | 1018.9 |
| 20260906034903 | 26 | 296 | 4.8 | 11.3 | 0.00 | 0.00 | 0.00 | 76 | 1018.9 |
| 20260906034804 | 26 | 295 | 4.8 | 11.3 | 0.00 | 0.00 | 0.00 | 76 | 1018.9 |
| 20260906034704 | 26 | 296 | 4.8 | 11.3 | 0.00 | 0.00 | 0.00 | 76 | 1018.9 |
| 20260906034604 | 26 | 297 | 4.8 | 9.7 | 0.00 | 0.00 | 0.00 | 76 | 1018.9 |
| 20260906034503 | 26 | 297 | 4.8 | 12.9 | 0.00 | 0.00 | 0.00 | 76 | 1018.9 |
| 20260906034404 | 26 | 298 | 4.8 | 12.9 | 0.00 | 0.00 | 0.00 | 76 | 1018.9 |
| 20260906034304 | 26 | 298 | 4.8 | 12.9 | 0.00 | 0.00 | 0.00 | 76 | 1018.8 |
| 20260906034203 | 26 | 298 | 4.8 | 12.9 | 0.00 | 0.00 | 0.00 | 76 | 1018.8 |
| 20260906034104 | 26 | 298 | 4.8 | 12.9 | 0.00 | 0.00 | 0.00 | 76 | 1018.8 |
| 20260906034004 | 26 | 298 | 4.8 | 12.9 | 0.00 | 0.00 | 0.00 | 76 | 1018.9 |
| 20260906033903 | 26 | 296 | 4.8 | 12.9 | 0.00 | 0.00 | 0.00 | 76 | 1018.8 |
| 20260906033803 | 26 | 298 | 4.8 | 12.9 | 0.00 | 0.00 | 0.00 | 76 | 1018.8 |
| 20260906033703 | 26 | 297 | 4.8 | 12.9 | 0.00 | 0.00 | 0.00 | 76 | 1018.7 |
| 20260906033603 | 26 | 295 | 3.2 | 12.9 | 0.00 | 0.00 | 0.00 | 76 | 1018.7 |
| 20260906033503 | 26 | 294 | 3.2 | 11.3 | 0.00 | 0.00 | 0.00 | 76 | 1018.8 |
| 20260906033404 | 26 | 294 | 4.8 | 11.3 | 0.00 | 0.00 | 0.00 | 76 | 1018.8 |
| 20260906033303 | 26 | 295 | 3.2 | 11.3 | 0.00 | 0.00 | 0.00 | 76 | 1018.7 |
| 20260906033203 | 26 | 294 | 3.2 | 11.3 | 0.00 | 0.00 | 0.00 | 76 | 1018.8 |
| 20260906033103 | 26 | 293 | 3.2 | 11.3 | 0.00 | 0.00 | 0.00 | 76 | 1018.9 |
| 20260906033003 | 26 | 293 | 3.2 | 11.3 | 0.00 | 0.00 | 0.00 | 76 | 1018.8 |
| 20260906032903 | 26 | 293 | 3.2 | 11.3 | 0.00 | 0.00 | 0.00 | 76 | 1018.8 |
| 20260906032803 | 26 | 294 | 3.2 | 11.3 | 0.00 | 0.00 | 0.00 | 76 | 1018.8 |
| 20260906032703 | 26 | 293 | 4.8 | 11.3 | 0.00 | 0.00 | 0.00 | 76 | 1018.9 |
| 20260906032603 | 26 | 293 | 4.8 | 11.3 | 0.00 | 0.00 | 0.00 | 76 | 1018.8 |
| 20260906032503 | 26 | 293 | 4.8 | 11.3 | 0.00 | 0.00 | 0.00 | 76 | 1018.8 |
| 20260906032403 | 26 | 294 | 4.8 | 11.3 | 0.00 | 0.00 | 0.00 | 76 | 1018.8 |
| 20260906032306 | 26 | 293 | 4.8 | 11.3 | 0.00 | 0.00 | 0.00 | 75 | 1018.8 |
| 20260906032203 | 26 | 293 | 4.8 | 11.3 | 0.00 | 0.00 | 0.00 | 76 | 1018.7 |
| 20260906032103 | 26 | 294 | 4.8 | 11.3 | 0.00 | 0.00 | 0.00 | 76 | 1018.8 |
| 20260906032003 | 26 | 294 | 3.2 | 9.7 | 0.00 | 0.00 | 0.00 | 76 | 1018.9 |
| 20260906031903 | 26 | 295 | 3.2 | 9.7 | 0.00 | 0.00 | 0.00 | 75 | 1018.8 |
| 20260906031803 | 26 | 294 | 3.2 | 9.7 | 0.00 | 0.00 | 0.00 | 75 | 1018.9 |
| 20260906031704 | 26 | 295 | 3.2 | 9.7 | 0.00 | 0.00 | 0.00 | 75 | 1018.8 |
| 20260906031603 | 26 | 295 | 3.2 | 9.7 | 0.00 | 0.00 | 0.00 | 75 | 1018.9 |
| 20260906031503 | 26 | 296 | 3.2 | 9.7 | 0.00 | 0.00 | 0.00 | 75 | 1018.8 |
| 20260906031403 | 26 | 297 | 3.2 | 11.3 | 0.00 | 0.00 | 0.00 | 75 | 1018.9 |
| 20260906031303 | 26 | 298 | 3.2 | 11.3 | 0.00 | 0.00 | 0.00 | 75 | 1018.9 |
| 20260906031203 | 26 | 297 | 3.2 | 11.3 | 0.00 | 0.00 | 0.00 | 75 | 1018.8 |
| 20260906031103 | 26 | 297 | 3.2 | 11.3 | 0.00 | 0.00 | 0.00 | 75 | 1018.8 |
| 20260906031003 | 26 | 297 | 3.2 | 11.3 | 0.00 | 0.00 | 0.00 | 75 | 1018.7 |
| 20260906030903 | 26 | 295 | 1.6 | 11.3 | 0.00 | 0.00 | 0.00 | 75 | 1018.7 |
| 20260906030803 | 26 | 297 | 1.6 | 11.3 | 0.00 | 0.00 | 0.00 | 75 | 1018.7 |
| 20260906030703 | 26 | 300 | 1.6 | 11.3 | 0.00 | 0.00 | 0.00 | 75 | 1018.7 |
| 20260906030603 | 26 | 300 | 1.6 | 11.3 | 0.00 | 0.00 | 0.00 | 75 | 1018.7 |
| 20260906030503 | 26 | 298 | 1.6 | 11.3 | 0.00 | 0.00 | 0.00 | 75 | 1018.7 |
| 20260906030403 | 26 | 297 | 1.6 | 8.0 | 0.00 | 0.00 | 0.00 | 75 | 1018.7 |
| 20260906030303 | 26 | 299 | 1.6 | 8.0 | 0.00 | 0.00 | 0.00 | 75 | 1018.7 |
| 20260906030203 | 26 | 299 | 1.6 | 8.0 | 0.00 | 0.00 | 0.00 | 75 | 1018.8 |
| 20260906030003 | 26 | 298 | 3.2 | 8.0 | 0.00 | 0.00 | 0.00 | 75 | 1018.8 |
| 20260906025903 | 26 | 297 | 3.2 | 8.0 | 0.00 | 0.00 | 0.00 | 75 | 1018.8 |
| 20260906025803 | 26 | 298 | 3.2 | 8.0 | 0.00 | 0.00 | 0.00 | 75 | 1018.9 |
| 20260906025703 | 26 | 296 | 3.2 | 8.0 | 0.00 | 0.00 | 0.00 | 75 | 1018.9 |
| 20260906025603 | 26 | 296 | 3.2 | 8.0 | 0.00 | 0.00 | 0.00 | 75 | 1018.9 |
| 20260906025503 | 26 | 298 | 3.2 | 12.9 | 0.00 | 0.00 | 0.00 | 75 | 1018.9 |
| 20260906025403 | 26 | 296 | 4.8 | 12.9 | 0.00 | 0.00 | 0.00 | 75 | 1018.8 |
| 20260906025306 | 26 | 296 | 4.8 | 12.9 | 0.00 | 0.00 | 0.00 | 75 | 1018.8 |
| 20260906025203 | 26 | 296 | 4.8 | 12.9 | 0.00 | 0.00 | 0.00 | 75 | 1018.8 |
| 20260906025103 | 26 | 295 | 4.8 | 16.1 | 0.00 | 0.00 | 0.00 | 75 | 1018.8 |
| 20260906025003 | 26 | 295 | 4.8 | 16.1 | 0.00 | 0.00 | 0.00 | 75 | 1018.8 |
| 20260906024903 | 26 | 296 | 4.8 | 16.1 | 0.00 | 0.00 | 0.00 | 75 | 1018.8 |
| 20260906024803 | 26 | 297 | 4.8 | 16.1 | 0.00 | 0.00 | 0.00 | 75 | 1018.9 |
| 20260906024703 | 26 | 296 | 4.8 | 16.1 | 0.00 | 0.00 | 0.00 | 75 | 1018.9 |
| 20260906024603 | 26 | 296 | 4.8 | 16.1 | 0.00 | 0.00 | 0.00 | 75 | 1018.9 |
| 20260906024503 | 26 | 294 | 3.2 | 16.1 | 0.00 | 0.00 | 0.00 | 75 | 1018.8 |
| 20260906024403 | 26 | 295 | 3.2 | 16.1 | 0.00 | 0.00 | 0.00 | 75 | 1018.9 |
| 20260906024303 | 26 | 295 | 3.2 | 16.1 | 0.00 | 0.00 | 0.00 | 75 | 1018.9 |
| 20260906024203 | 26 | 295 | 3.2 | 16.1 | 0.00 | 0.00 | 0.00 | 75 | 1018.9 |
| 20260906024103 | 26 | 298 | 1.6 | 9.7 | 0.00 | 0.00 | 0.00 | 75 | 1018.8 |
| 20260906024003 | 26 | 298 | 1.6 | 9.7 | 0.00 | 0.00 | 0.00 | 75 | 1018.9 |
| 20260906023903 | 26 | 297 | 1.6 | 9.7 | 0.00 | 0.00 | 0.00 | 75 | 1018.9 |
| 20260906023803 | 26 | 296 | 3.2 | 12.9 | 0.00 | 0.00 | 0.00 | 75 | 1018.9 |
| 20260906023703 | 26 | 300 | 3.2 | 12.9 | 0.00 | 0.00 | 0.00 | 75 | 1018.9 |
| 20260906023603 | 26 | 300 | 3.2 | 12.9 | 0.00 | 0.00 | 0.00 | 75 | 1018.9 |
| 20260906023503 | 26 | 300 | 3.2 | 12.9 | 0.00 | 0.00 | 0.00 | 75 | 1018.9 |
| 20260906023403 | 26 | 299 | 3.2 | 12.9 | 0.00 | 0.00 | 0.00 | 75 | 1018.9 |
| 20260906023303 | 26 | 298 | 3.2 | 12.9 | 0.00 | 0.00 | 0.00 | 75 | 1018.9 |
| 20260906023203 | 26 | 298 | 3.2 | 12.9 | 0.00 | 0.00 | 0.00 | 75 | 1018.9 |
| 20260906023103 | 26 | 297 | 3.2 | 12.9 | 0.00 | 0.00 | 0.00 | 75 | 1018.9 |
| 20260906023003 | 26 | 297 | 3.2 | 12.9 | 0.00 | 0.00 | 0.00 | 75 | 1018.9 |
| 20260906022903 | 26 | 297 | 4.8 | 12.9 | 0.00 | 0.00 | 0.00 | 75 | 1018.9 |
| 20260906022803 | 26 | 295 | 3.2 | 12.9 | 0.00 | 0.00 | 0.00 | 75 | 1018.9 |
| 20260906022703 | 26 | 293 | 3.2 | 12.9 | 0.00 | 0.00 | 0.00 | 75 | 1018.9 |
| 20260906022603 | 27 | 294 | 3.2 | 12.9 | 0.00 | 0.00 | 0.00 | 75 | 1018.9 |
| 20260906022504 | 27 | 293 | 3.2 | 9.7 | 0.00 | 0.00 | 0.00 | 75 | 1018.8 |
| 20260906022404 | 26 | 293 | 3.2 | 9.7 | 0.00 | 0.00 | 0.00 | 75 | 1018.9 |
| 20260906022306 | 26 | 294 | 3.2 | 9.7 | 0.00 | 0.00 | 0.00 | 75 | 1018.9 |
| 20260906022204 | 26 | 294 | 4.8 | 9.7 | 0.00 | 0.00 | 0.00 | 75 | 1018.9 |
| 20260906022104 | 26 | 294 | 3.2 | 9.7 | 0.00 | 0.00 | 0.00 | 75 | 1018.9 |
| 20260906022004 | 26 | 294 | 3.2 | 9.7 | 0.00 | 0.00 | 0.00 | 75 | 1018.9 |
| 20260906021904 | 27 | 294 | 3.2 | 9.7 | 0.00 | 0.00 | 0.00 | 75 | 1018.9 |
| 20260906021804 | 26 | 294 | 3.2 | 9.7 | 0.00 | 0.00 | 0.00 | 75 | 1018.9 |
| 20260906021704 | 27 | 294 | 3.2 | 9.7 | 0.00 | 0.00 | 0.00 | 75 | 1018.9 |
| 20260906021604 | 27 | 293 | 3.2 | 11.3 | 0.00 | 0.00 | 0.00 | 75 | 1018.9 |
| 20260906021504 | 27 | 292 | 3.2 | 11.3 | 0.00 | 0.00 | 0.00 | 75 | 1018.9 |
| 20260906021404 | 27 | 293 | 3.2 | 11.3 | 0.00 | 0.00 | 0.00 | 75 | 1018.9 |
| 20260906021304 | 27 | 292 | 3.2 | 11.3 | 0.00 | 0.00 | 0.00 | 75 | 1018.8 |
| 20260906021204 | 27 | 293 | 3.2 | 11.3 | 0.00 | 0.00 | 0.00 | 75 | 1018.9 |
| 20260906021104 | 27 | 293 | 3.2 | 11.3 | 0.00 | 0.00 | 0.00 | 75 | 1018.9 |
| 20260906021004 | 27 | 292 | 3.2 | 11.3 | 0.00 | 0.00 | 0.00 | 75 | 1018.8 |
| 20260906020904 | 27 | 292 | 3.2 | 11.3 | 0.00 | 0.00 | 0.00 | 75 | 1018.9 |
| 20260906020804 | 27 | 290 | 1.6 | 11.3 | 0.00 | 0.00 | 0.00 | 75 | 1018.9 |
| 20260906020704 | 27 | 290 | 1.6 | 11.3 | 0.00 | 0.00 | 0.00 | 75 | 1018.8 |
| 20260906020604 | 27 | 287 | 1.6 | 9.7 | 0.00 | 0.00 | 0.00 | 75 | 1018.8 |
| 20260906020504 | 27 | 290 | 1.6 | 9.7 | 0.00 | 0.00 | 0.00 | 75 | 1018.9 |
| 20260906020404 | 27 | 290 | 1.6 | 9.7 | 0.00 | 0.00 | 0.00 | 75 | 1018.9 |
| 20260906020304 | 27 | 289 | 1.6 | 9.7 | 0.00 | 0.00 | 0.00 | 75 | 1018.9 |
| 20260906020204 | 27 | 285 | 1.6 | 6.4 | 0.00 | 0.00 | 0.00 | 75 | 1018.9 |
| 20260906020104 | 27 | 292 | 1.6 | 8.0 | 0.00 | 0.00 | 0.00 | 75 | 1018.9 |
| 20260906020004 | 27 | 292 | 1.6 | 8.0 | 0.00 | 0.00 | 0.00 | 75 | 1018.9 |
| 20260906015904 | 27 | 296 | 1.6 | 8.0 | 0.00 | 0.00 | 0.00 | 75 | 1018.8 |
| 20260906015804 | 27 | 300 | 1.6 | 8.0 | 0.00 | 0.00 | 0.00 | 75 | 1018.9 |
| 20260906015704 | 26 | 300 | 1.6 | 8.0 | 0.00 | 0.00 | 0.00 | 75 | 1018.8 |
| 20260906015604 | 27 | 299 | 1.6 | 8.0 | 0.00 | 0.00 | 0.00 | 75 | 1018.9 |
| 20260906015504 | 27 | 301 | 3.2 | 8.0 | 0.00 | 0.00 | 0.00 | 75 | 1018.9 |
| 20260906015404 | 27 | 302 | 3.2 | 8.0 | 0.00 | 0.00 | 0.00 | 75 | 1018.7 |
| 20260906015306 | 27 | 304 | 1.6 | 8.0 | 0.00 | 0.00 | 0.00 | 75 | 1018.8 |
| 20260906015204 | 27 | 306 | 1.6 | 8.0 | 0.00 | 0.00 | 0.00 | 75 | 1018.9 |
| 20260906015104 | 27 | 309 | 1.6 | 8.0 | 0.00 | 0.00 | 0.00 | 75 | 1018.8 |
| 20260906015004 | 27 | 305 | 1.6 | 9.7 | 0.00 | 0.00 | 0.00 | 75 | 1018.8 |
| 20260906014904 | 27 | 303 | 1.6 | 9.7 | 0.00 | 0.00 | 0.00 | 75 | 1018.9 |
| 20260906014804 | 27 | 301 | 1.6 | 9.7 | 0.00 | 0.00 | 0.00 | 75 | 1018.8 |
| 20260906014704 | 27 | 304 | 1.6 | 9.7 | 0.00 | 0.00 | 0.00 | 75 | 1018.9 |
| 20260906014604 | 27 | 303 | 1.6 | 9.7 | 0.00 | 0.00 | 0.00 | 75 | 1018.9 |
| 20260906014504 | 27 | 298 | 1.6 | 9.7 | 0.00 | 0.00 | 0.00 | 75 | 1018.9 |
| 20260906014404 | 27 | 297 | 1.6 | 9.7 | 0.00 | 0.00 | 0.00 | 75 | 1018.9 |
| 20260906014304 | 27 | 298 | 3.2 | 11.3 | 0.00 | 0.00 | 0.00 | 75 | 1018.9 |
| 20260906014204 | 27 | 298 | 3.2 | 11.3 | 0.00 | 0.00 | 0.00 | 75 | 1018.8 |
| 20260906014104 | 27 | 297 | 3.2 | 11.3 | 0.00 | 0.00 | 0.00 | 75 | 1018.8 |
| 20260906014003 | 27 | 296 | 3.2 | 11.3 | 0.00 | 0.00 | 0.00 | 75 | 1018.8 |
| 20260906013903 | 27 | 296 | 3.2 | 11.3 | 0.00 | 0.00 | 0.00 | 75 | 1018.8 |
| 20260906013804 | 27 | 297 | 3.2 | 11.3 | 0.00 | 0.00 | 0.00 | 75 | 1018.8 |
| 20260906013703 | 27 | 296 | 4.8 | 12.9 | 0.00 | 0.00 | 0.00 | 75 | 1018.8 |
| 20260906013603 | 27 | 296 | 4.8 | 12.9 | 0.00 | 0.00 | 0.00 | 75 | 1018.8 |
| 20260906013503 | 27 | 297 | 4.8 | 12.9 | 0.00 | 0.00 | 0.00 | 75 | 1018.9 |
| 20260906013403 | 27 | 298 | 4.8 | 12.9 | 0.00 | 0.00 | 0.00 | 75 | 1018.9 |
| 20260906013303 | 27 | 298 | 4.8 | 14.5 | 0.00 | 0.00 | 0.00 | 75 | 1018.9 |
| 20260906013203 | 27 | 299 | 4.8 | 14.5 | 0.00 | 0.00 | 0.00 | 75 | 1019.0 |
| 20260906013104 | 27 | 298 | 4.8 | 14.5 | 0.00 | 0.00 | 0.00 | 75 | 1018.9 |
| 20260906013003 | 27 | 299 | 3.2 | 14.5 | 0.00 | 0.00 | 0.00 | 75 | 1018.9 |
| 20260906012903 | 27 | 299 | 3.2 | 14.5 | 0.00 | 0.00 | 0.00 | 75 | 1018.8 |
| 20260906012803 | 27 | 299 | 3.2 | 14.5 | 0.00 | 0.00 | 0.00 | 75 | 1018.9 |
| 20260906012703 | 27 | 304 | 3.2 | 14.5 | 0.00 | 0.00 | 0.00 | 75 | 1018.9 |
| 20260906012603 | 27 | 306 | 3.2 | 14.5 | 0.00 | 0.00 | 0.00 | 75 | 1018.9 |
| 20260906012503 | 27 | 305 | 3.2 | 14.5 | 0.00 | 0.00 | 0.00 | 75 | 1018.9 |
| 20260906012403 | 27 | 300 | 3.2 | 14.5 | 0.00 | 0.00 | 0.00 | 75 | 1018.9 |
| 20260906012306 | 27 | 297 | 4.8 | 9.7 | 0.00 | 0.00 | 0.00 | 75 | 1019.0 |
| 20260906012203 | 27 | 295 | 4.8 | 9.7 | 0.00 | 0.00 | 0.00 | 75 | 1019.0 |
| 20260906012103 | 27 | 294 | 4.8 | 9.7 | 0.00 | 0.00 | 0.00 | 75 | 1018.9 |
| 20260906012003 | 27 | 295 | 4.8 | 9.7 | 0.00 | 0.00 | 0.00 | 75 | 1018.9 |
| 20260906011903 | 27 | 295 | 4.8 | 9.7 | 0.00 | 0.00 | 0.00 | 75 | 1018.9 |
| 20260906011803 | 27 | 295 | 4.8 | 9.7 | 0.00 | 0.00 | 0.00 | 75 | 1019.0 |
| 20260906011703 | 27 | 292 | 4.8 | 9.7 | 0.00 | 0.00 | 0.00 | 75 | 1019.0 |
| 20260906011603 | 27 | 291 | 4.8 | 11.3 | 0.00 | 0.00 | 0.00 | 75 | 1018.9 |
| 20260906011503 | 27 | 292 | 4.8 | 11.3 | 0.00 | 0.00 | 0.00 | 75 | 1018.9 |
| 20260906011403 | 27 | 293 | 4.8 | 12.9 | 0.00 | 0.00 | 0.00 | 75 | 1018.9 |
| 20260906011303 | 27 | 292 | 4.8 | 14.5 | 0.00 | 0.00 | 0.00 | 75 | 1018.8 |
| 20260906011203 | 27 | 293 | 4.8 | 14.5 | 0.00 | 0.00 | 0.00 | 75 | 1018.9 |
| 20260906011103 | 27 | 294 | 4.8 | 14.5 | 0.00 | 0.00 | 0.00 | 75 | 1018.9 |
| 20260906011003 | 27 | 293 | 6.4 | 14.5 | 0.00 | 0.00 | 0.00 | 75 | 1018.9 |
| 20260906010903 | 27 | 293 | 4.8 | 14.5 | 0.00 | 0.00 | 0.00 | 75 | 1018.8 |
| 20260906010803 | 27 | 292 | 6.4 | 14.5 | 0.00 | 0.00 | 0.00 | 75 | 1018.8 |
| 20260906010703 | 27 | 292 | 6.4 | 14.5 | 0.00 | 0.00 | 0.00 | 75 | 1018.8 |
| 20260906010603 | 27 | 294 | 6.4 | 14.5 | 0.00 | 0.00 | 0.00 | 75 | 1018.8 |
| 20260906010503 | 27 | 294 | 6.4 | 14.5 | 0.00 | 0.00 | 0.00 | 75 | 1018.9 |
| 20260906010403 | 27 | 293 | 6.4 | 14.5 | 0.00 | 0.00 | 0.00 | 75 | 1018.8 |
| 20260906010303 | 27 | 294 | 6.4 | 12.9 | 0.00 | 0.00 | 0.00 | 75 | 1018.8 |
| 20260906010203 | 27 | 294 | 6.4 | 12.9 | 0.00 | 0.00 | 0.00 | 75 | 1018.8 |
| 20260906010103 | 27 | 292 | 6.4 | 12.9 | 0.00 | 0.00 | 0.00 | 75 | 1018.8 |
| 20260906010003 | 27 | 292 | 6.4 | 12.9 | 0.00 | 0.00 | 0.00 | 75 | 1018.8 |
| 20260906005903 | 27 | 292 | 6.4 | 12.9 | 0.00 | 0.00 | 0.00 | 75 | 1018.9 |
| 20260906005803 | 27 | 292 | 6.4 | 12.9 | 0.00 | 0.00 | 0.00 | 75 | 1018.9 |
| 20260906005703 | 27 | 293 | 6.4 | 12.9 | 0.00 | 0.00 | 0.00 | 75 | 1018.9 |
| 20260906005603 | 27 | 291 | 4.8 | 11.3 | 0.00 | 0.00 | 0.00 | 75 | 1018.9 |
| 20260906005503 | 27 | 295 | 4.8 | 11.3 | 0.00 | 0.00 | 0.00 | 75 | 1018.8 |
| 20260906005403 | 27 | 294 | 4.8 | 11.3 | 0.00 | 0.00 | 0.00 | 75 | 1018.8 |
| 20260906005306 | 27 | 295 | 4.8 | 12.9 | 0.00 | 0.00 | 0.00 | 75 | 1018.8 |
| 20260906005203 | 27 | 294 | 3.2 | 12.9 | 0.00 | 0.00 | 0.00 | 75 | 1018.9 |
| 20260906005103 | 27 | 296 | 3.2 | 12.9 | 0.00 | 0.00 | 0.00 | 75 | 1018.7 |
| 20260906005003 | 27 | 299 | 3.2 | 12.9 | 0.00 | 0.00 | 0.00 | 75 | 1018.8 |
| 20260906004903 | 27 | 301 | 3.2 | 12.9 | 0.00 | 0.00 | 0.00 | 75 | 1018.7 |
| 20260906004803 | 27 | 300 | 3.2 | 12.9 | 0.00 | 0.00 | 0.00 | 75 | 1018.8 |
| 20260906004703 | 27 | 299 | 3.2 | 12.9 | 0.00 | 0.00 | 0.00 | 75 | 1018.8 |
| 20260906004603 | 27 | 299 | 3.2 | 12.9 | 0.00 | 0.00 | 0.00 | 75 | 1018.8 |
| 20260906004503 | 27 | 297 | 3.2 | 12.9 | 0.00 | 0.00 | 0.00 | 75 | 1018.8 |
| 20260906004403 | 27 | 297 | 4.8 | 12.9 | 0.00 | 0.00 | 0.00 | 75 | 1018.8 |
| 20260906004303 | 27 | 297 | 3.2 | 11.3 | 0.00 | 0.00 | 0.00 | 75 | 1018.9 |
| 20260906004203 | 27 | 297 | 3.2 | 11.3 | 0.00 | 0.00 | 0.00 | 75 | 1018.8 |
| 20260906004103 | 27 | 298 | 3.2 | 11.3 | 0.00 | 0.00 | 0.00 | 75 | 1018.8 |
| 20260906004003 | 27 | 297 | 3.2 | 11.3 | 0.00 | 0.00 | 0.00 | 75 | 1018.8 |
| 20260906003903 | 27 | 299 | 4.8 | 11.3 | 0.00 | 0.00 | 0.00 | 75 | 1018.8 |
| 20260906003803 | 27 | 299 | 3.2 | 11.3 | 0.00 | 0.00 | 0.00 | 75 | 1018.7 |
| 20260906003703 | 27 | 298 | 4.8 | 11.3 | 0.00 | 0.00 | 0.00 | 75 | 1018.8 |
| 20260906003603 | 27 | 298 | 4.8 | 11.3 | 0.00 | 0.00 | 0.00 | 75 | 1018.9 |
| 20260906003503 | 27 | 297 | 4.8 | 11.3 | 0.00 | 0.00 | 0.00 | 75 | 1018.9 |
| 20260906003403 | 27 | 296 | 4.8 | 11.3 | 0.00 | 0.00 | 0.00 | 75 | 1018.8 |
| 20260906003303 | 27 | 298 | 4.8 | 11.3 | 0.00 | 0.00 | 0.00 | 75 | 1018.9 |
| 20260906003203 | 27 | 299 | 4.8 | 11.3 | 0.00 | 0.00 | 0.00 | 75 | 1018.8 |
| 20260906003103 | 27 | 299 | 4.8 | 11.3 | 0.00 | 0.00 | 0.00 | 75 | 1018.9 |
| 20260906003003 | 27 | 299 | 4.8 | 11.3 | 0.00 | 0.00 | 0.00 | 75 | 1018.9 |
| 20260906002903 | 27 | 298 | 3.2 | 11.3 | 0.00 | 0.00 | 0.00 | 75 | 1018.7 |
| 20260906002803 | 27 | 299 | 3.2 | 11.3 | 0.00 | 0.00 | 0.00 | 76 | 1018.9 |
| 20260906002703 | 27 | 299 | 3.2 | 11.3 | 0.00 | 0.00 | 0.00 | 75 | 1018.9 |
| 20260906002603 | 27 | 299 | 3.2 | 11.3 | 0.00 | 0.00 | 0.00 | 76 | 1018.9 |
| 20260906002503 | 27 | 300 | 3.2 | 11.3 | 0.00 | 0.00 | 0.00 | 75 | 1018.8 |
| 20260906002403 | 27 | 302 | 3.2 | 11.3 | 0.00 | 0.00 | 0.00 | 75 | 1018.8 |
| 20260906002305 | 27 | 300 | 3.2 | 11.3 | 0.00 | 0.00 | 0.00 | 76 | 1018.8 |
| 20260906002203 | 27 | 299 | 3.2 | 9.7 | 0.00 | 0.00 | 0.00 | 75 | 1018.8 |
| 20260906002103 | 27 | 299 | 3.2 | 9.7 | 0.00 | 0.00 | 0.00 | 75 | 1018.9 |
| 20260906002003 | 27 | 300 | 3.2 | 9.7 | 0.00 | 0.00 | 0.00 | 76 | 1018.7 |
| 20260906001904 | 27 | 304 | 3.2 | 9.7 | 0.00 | 0.00 | 0.00 | 76 | 1018.8 |
| 20260906001804 | 27 | 301 | 3.2 | 11.3 | 0.00 | 0.00 | 0.00 | 76 | 1018.8 |
| 20260906001704 | 27 | 302 | 3.2 | 11.3 | 0.00 | 0.00 | 0.00 | 76 | 1018.9 |
| 20260906001604 | 27 | 302 | 3.2 | 11.3 | 0.00 | 0.00 | 0.00 | 76 | 1018.9 |
| 20260906001504 | 27 | 302 | 3.2 | 11.3 | 0.00 | 0.00 | 0.00 | 76 | 1018.9 |
| 20260906001404 | 27 | 300 | 3.2 | 11.3 | 0.00 | 0.00 | 0.00 | 76 | 1018.9 |
| 20260906001304 | 27 | 300 | 3.2 | 11.3 | 0.00 | 0.00 | 0.00 | 76 | 1018.9 |
| 20260906001204 | 27 | 300 | 4.8 | 14.5 | 0.00 | 0.00 | 0.00 | 76 | 1018.9 |
| 20260906001104 | 27 | 300 | 4.8 | 14.5 | 0.00 | 0.00 | 0.00 | 76 | 1019.0 |
| 20260906001004 | 27 | 300 | 4.8 | 14.5 | 0.00 | 0.00 | 0.00 | 76 | 1019.1 |
| 20260906000904 | 27 | 296 | 4.8 | 14.5 | 0.00 | 0.00 | 0.00 | 76 | 1019.1 |
| 20260906000804 | 27 | 298 | 4.8 | 14.5 | 0.00 | 0.00 | 0.00 | 76 | 1019.1 |
| 20260906000704 | 27 | 298 | 6.4 | 14.5 | 0.00 | 0.00 | 0.00 | 76 | 1019.0 |
| 20260906000604 | 27 | 298 | 6.4 | 14.5 | 0.00 | 0.00 | 0.00 | 76 | 1019.1 |
| 20260906000504 | 27 | 298 | 6.4 | 14.5 | 0.00 | 0.00 | 0.00 | 76 | 1019.1 |
| 20260906000404 | 27 | 299 | 6.4 | 14.5 | 0.00 | 0.00 | 0.00 | 76 | 1019.2 |
| 20260906000304 | 27 | 298 | 6.4 | 14.5 | 0.00 | 0.00 | 0.00 | 76 | 1019.1 |
| 20260906000204 | 27 | 298 | 6.4 | 12.9 | 0.00 | 0.00 | 0.00 | 76 | 1019.1 |
| 20260906000104 | 27 | 298 | 4.8 | 11.3 | 0.00 | 0.00 | 0.00 | 76 | 1019.1 |
| 20260906000004 | 27 | 298 | 4.8 | 11.3 | 0.00 | 0.00 | 0.00 | 76 | 1019.1 |
| 20260905235904 | 27 | 298 | 4.8 | 11.3 | 0.00 | 0.00 | 0.00 | 76 | 1019.1 |
| 20260905235804 | 27 | 298 | 4.8 | 11.3 | 0.00 | 0.00 | 0.00 | 76 | 1019.2 |
| 20260905235704 | 27 | 298 | 3.2 | 9.7 | 0.00 | 0.00 | 0.00 | 75 | 1019.2 |
| 20260905235604 | 27 | 298 | 3.2 | 9.7 | 0.00 | 0.00 | 0.00 | 76 | 1019.3 |
| 20260905235504 | 27 | 297 | 3.2 | 9.7 | 0.00 | 0.00 | 0.00 | 75 | 1019.2 |
| 20260905235404 | 27 | 298 | 3.2 | 9.7 | 0.00 | 0.00 | 0.00 | 76 | 1019.3 |
| 20260905235306 | 27 | 299 | 1.6 | 9.7 | 0.00 | 0.00 | 0.00 | 75 | 1019.3 |
| 20260905235204 | 27 | 298 | 1.6 | 8.0 | 0.00 | 0.00 | 0.00 | 76 | 1019.2 |
| 20260905235104 | 27 | 297 | 1.6 | 8.0 | 0.00 | 0.00 | 0.00 | 76 | 1019.3 |
| 20260905235004 | 27 | 298 | 1.6 | 8.0 | 0.00 | 0.00 | 0.00 | 76 | 1019.3 |
| 20260905234904 | 27 | 304 | 1.6 | 4.8 | 0.00 | 0.00 | 0.00 | 76 | 1019.2 |
| 20260905234804 | 27 | 305 | 1.6 | 8.0 | 0.00 | 0.00 | 0.00 | 76 | 1019.2 |
| 20260905234704 | 27 | 304 | 1.6 | 8.0 | 0.00 | 0.00 | 0.00 | 76 | 1019.3 |
| 20260905234604 | 27 | 303 | 1.6 | 8.0 | 0.00 | 0.00 | 0.00 | 76 | 1019.3 |
| 20260905234504 | 27 | 302 | 1.6 | 8.0 | 0.00 | 0.00 | 0.00 | 76 | 1019.3 |
| 20260905234404 | 27 | 301 | 1.6 | 8.0 | 0.00 | 0.00 | 0.00 | 76 | 1019.2 |
| 20260905234304 | 27 | 302 | 1.6 | 8.0 | 0.00 | 0.00 | 0.00 | 76 | 1019.3 |
| 20260905234204 | 27 | 300 | 3.2 | 8.0 | 0.00 | 0.00 | 0.00 | 76 | 1019.3 |
| 20260905234104 | 27 | 300 | 3.2 | 9.7 | 0.00 | 0.00 | 0.00 | 76 | 1019.3 |
| 20260905234004 | 27 | 298 | 3.2 | 9.7 | 0.00 | 0.00 | 0.00 | 76 | 1019.3 |
| 20260905233904 | 27 | 297 | 3.2 | 9.7 | 0.00 | 0.00 | 0.00 | 76 | 1019.3 |
| 20260905233804 | 27 | 297 | 3.2 | 9.7 | 0.00 | 0.00 | 0.00 | 76 | 1019.4 |
| 20260905233704 | 27 | 297 | 3.2 | 9.7 | 0.00 | 0.00 | 0.00 | 76 | 1019.3 |
| 20260905233603 | 27 | 297 | 3.2 | 9.7 | 0.00 | 0.00 | 0.00 | 76 | 1019.4 |
| 20260905233503 | 27 | 296 | 3.2 | 9.7 | 0.00 | 0.00 | 0.00 | 76 | 1019.4 |
| 20260905233404 | 27 | 296 | 3.2 | 9.7 | 0.00 | 0.00 | 0.00 | 76 | 1019.4 |
| 20260905233303 | 27 | 297 | 3.2 | 9.7 | 0.00 | 0.00 | 0.00 | 76 | 1019.4 |
| 20260905233203 | 27 | 295 | 3.2 | 9.7 | 0.00 | 0.00 | 0.00 | 76 | 1019.4 |
| 20260905233103 | 27 | 293 | 1.6 | 9.7 | 0.00 | 0.00 | 0.00 | 76 | 1019.4 |
| 20260905233004 | 27 | 295 | 1.6 | 9.7 | 0.00 | 0.00 | 0.00 | 76 | 1019.4 |
| 20260905232903 | 27 | 295 | 1.6 | 9.7 | 0.00 | 0.00 | 0.00 | 76 | 1019.4 |
| 20260905232804 | 27 | 295 | 1.6 | 9.7 | 0.00 | 0.00 | 0.00 | 76 | 1019.4 |
| 20260905232703 | 27 | 294 | 3.2 | 9.7 | 0.00 | 0.00 | 0.00 | 76 | 1019.4 |
| 20260905232604 | 27 | 294 | 3.2 | 9.7 | 0.00 | 0.00 | 0.00 | 76 | 1019.3 |
| 20260905232504 | 27 | 295 | 3.2 | 9.7 | 0.00 | 0.00 | 0.00 | 76 | 1019.5 |
| 20260905232403 | 27 | 295 | 3.2 | 9.7 | 0.00 | 0.00 | 0.00 | 76 | 1019.4 |
| 20260905232306 | 27 | 293 | 3.2 | 8.0 | 0.00 | 0.00 | 0.00 | 76 | 1019.4 |
| 20260905232203 | 27 | 293 | 3.2 | 8.0 | 0.00 | 0.00 | 0.00 | 76 | 1019.5 |
| 20260905232104 | 27 | 293 | 1.6 | 6.4 | 0.00 | 0.00 | 0.00 | 76 | 1019.5 |
| 20260905232004 | 27 | 292 | 1.6 | 6.4 | 0.00 | 0.00 | 0.00 | 76 | 1019.4 |
| 20260905231903 | 27 | 292 | 3.2 | 6.4 | 0.00 | 0.00 | 0.00 | 76 | 1019.4 |
| 20260905231803 | 27 | 292 | 1.6 | 6.4 | 0.00 | 0.00 | 0.00 | 76 | 1019.5 |
| 20260905231703 | 27 | 292 | 1.6 | 6.4 | 0.00 | 0.00 | 0.00 | 76 | 1019.5 |
| 20260905231603 | 27 | 292 | 3.2 | 6.4 | 0.00 | 0.00 | 0.00 | 76 | 1019.4 |
| 20260905231503 | 27 | 292 | 3.2 | 6.4 | 0.00 | 0.00 | 0.00 | 76 | 1019.4 |
| 20260905231403 | 27 | 292 | 1.6 | 4.8 | 0.00 | 0.00 | 0.00 | 76 | 1019.5 |
| 20260905231303 | 27 | 292 | 1.6 | 4.8 | 0.00 | 0.00 | 0.00 | 75 | 1019.4 |
| 20260905231204 | 27 | 292 | 1.6 | 4.8 | 0.00 | 0.00 | 0.00 | 76 | 1019.4 |
| 20260905231003 | 27 | 293 | 1.6 | 9.7 | 0.00 | 0.00 | 0.00 | 75 | 1019.4 |
| 20260905230903 | 27 | 293 | 1.6 | 9.7 | 0.00 | 0.00 | 0.00 | 75 | 1019.4 |
| 20260905230803 | 27 | 293 | 1.6 | 9.7 | 0.00 | 0.00 | 0.00 | 75 | 1019.4 |
| 20260905230703 | 27 | 292 | 1.6 | 4.8 | 0.00 | 0.00 | 0.00 | 75 | 1019.5 |
| 20260905230603 | 27 | 291 | 1.6 | 6.4 | 0.00 | 0.00 | 0.00 | 75 | 1019.5 |
| 20260905230504 | 27 | 291 | 1.6 | 6.4 | 0.00 | 0.00 | 0.00 | 75 | 1019.4 |
| 20260905230404 | 27 | 293 | 1.6 | 6.4 | 0.00 | 0.00 | 0.00 | 76 | 1019.4 |
| 20260905230304 | 27 | 293 | 1.6 | 9.7 | 0.00 | 0.00 | 0.00 | 75 | 1019.5 |
| 20260905230204 | 27 | 292 | 1.6 | 9.7 | 0.00 | 0.00 | 0.00 | 76 | 1019.5 |
| 20260905230104 | 27 | 290 | 1.6 | 9.7 | 0.00 | 0.00 | 0.00 | 75 | 1019.5 |
| 20260905230004 | 27 | 290 | 1.6 | 9.7 | 0.00 | 0.00 | 0.00 | 75 | 1019.6 |
| 20260905225904 | 27 | 291 | 1.6 | 9.7 | 0.00 | 0.00 | 0.00 | 75 | 1019.5 |
| 20260905225804 | 27 | 293 | 1.6 | 9.7 | 0.00 | 0.00 | 0.00 | 75 | 1019.5 |
| 20260905225704 | 27 | 293 | 1.6 | 9.7 | 0.00 | 0.00 | 0.00 | 75 | 1019.5 |
| 20260905225604 | 27 | 294 | 3.2 | 9.7 | 0.00 | 0.00 | 0.00 | 75 | 1019.6 |
| 20260905225504 | 27 | 293 | 3.2 | 9.7 | 0.00 | 0.00 | 0.00 | 75 | 1019.5 |
| 20260905225404 | 27 | 294 | 3.2 | 9.7 | 0.00 | 0.00 | 0.00 | 75 | 1019.6 |
| 20260905225305 | 27 | 295 | 3.2 | 8.0 | 0.00 | 0.00 | 0.00 | 75 | 1019.5 |
| 20260905225204 | 27 | 297 | 3.2 | 8.0 | 0.00 | 0.00 | 0.00 | 75 | 1019.6 |
| 20260905225104 | 27 | 300 | 3.2 | 8.0 | 0.00 | 0.00 | 0.00 | 75 | 1019.5 |
| 20260905225004 | 27 | 300 | 3.2 | 8.0 | 0.00 | 0.00 | 0.00 | 75 | 1019.6 |
| 20260905224904 | 27 | 300 | 3.2 | 11.3 | 0.00 | 0.00 | 0.00 | 75 | 1019.5 |
| 20260905224804 | 27 | 299 | 3.2 | 11.3 | 0.00 | 0.00 | 0.00 | 75 | 1019.6 |
| 20260905224704 | 27 | 298 | 4.8 | 11.3 | 0.00 | 0.00 | 0.00 | 75 | 1019.5 |
| 20260905224604 | 27 | 298 | 4.8 | 11.3 | 0.00 | 0.00 | 0.00 | 75 | 1019.5 |
| 20260905224504 | 27 | 299 | 4.8 | 11.3 | 0.00 | 0.00 | 0.00 | 75 | 1019.5 |
| 20260905224404 | 27 | 298 | 4.8 | 11.3 | 0.00 | 0.00 | 0.00 | 75 | 1019.6 |
| 20260905224306 | 27 | 299 | 3.2 | 11.3 | 0.00 | 0.00 | 0.00 | 74 | 1019.6 |
| 20260905224204 | 27 | 300 | 3.2 | 11.3 | 0.00 | 0.00 | 0.00 | 75 | 1019.6 |
| 20260905224104 | 27 | 300 | 4.8 | 11.3 | 0.00 | 0.00 | 0.00 | 75 | 1019.6 |
| 20260905224004 | 27 | 299 | 4.8 | 11.3 | 0.00 | 0.00 | 0.00 | 75 | 1019.5 |
| 20260905223904 | 27 | 299 | 4.8 | 11.3 | 0.00 | 0.00 | 0.00 | 74 | 1019.5 |
| 20260905223804 | 27 | 298 | 4.8 | 11.3 | 0.00 | 0.00 | 0.00 | 74 | 1019.6 |
| 20260905223704 | 27 | 298 | 4.8 | 11.3 | 0.00 | 0.00 | 0.00 | 74 | 1019.6 |
| 20260905223604 | 27 | 298 | 4.8 | 11.3 | 0.00 | 0.00 | 0.00 | 74 | 1019.6 |
| 20260905223504 | 27 | 298 | 4.8 | 11.3 | 0.00 | 0.00 | 0.00 | 74 | 1019.5 |
| 20260905223404 | 27 | 298 | 4.8 | 11.3 | 0.00 | 0.00 | 0.00 | 74 | 1019.6 |
| 20260905223304 | 27 | 297 | 3.2 | 11.3 | 0.00 | 0.00 | 0.00 | 74 | 1019.6 |
| 20260905223204 | 27 | 296 | 3.2 | 9.7 | 0.00 | 0.00 | 0.00 | 74 | 1019.5 |
| 20260905223104 | 27 | 296 | 4.8 | 9.7 | 0.00 | 0.00 | 0.00 | 74 | 1019.6 |
| 20260905223004 | 27 | 295 | 4.8 | 9.7 | 0.00 | 0.00 | 0.00 | 74 | 1019.7 |
| 20260905222904 | 27 | 297 | 4.8 | 9.7 | 0.00 | 0.00 | 0.00 | 74 | 1019.6 |
| 20260905222804 | 27 | 298 | 4.8 | 9.7 | 0.00 | 0.00 | 0.00 | 74 | 1019.6 |
| 20260905222704 | 27 | 299 | 4.8 | 9.7 | 0.00 | 0.00 | 0.00 | 74 | 1019.5 |
| 20260905222604 | 27 | 299 | 4.8 | 9.7 | 0.00 | 0.00 | 0.00 | 74 | 1019.6 |
| 20260905222504 | 27 | 299 | 4.8 | 9.7 | 0.00 | 0.00 | 0.00 | 74 | 1019.6 |
| 20260905222404 | 27 | 298 | 4.8 | 9.7 | 0.00 | 0.00 | 0.00 | 74 | 1019.6 |
| 20260905222306 | 27 | 298 | 4.8 | 9.7 | 0.00 | 0.00 | 0.00 | 74 | 1019.6 |
| 20260905222204 | 27 | 298 | 4.8 | 9.7 | 0.00 | 0.00 | 0.00 | 74 | 1019.6 |
| 20260905222104 | 27 | 298 | 4.8 | 9.7 | 0.00 | 0.00 | 0.00 | 74 | 1019.6 |
| 20260905222004 | 27 | 299 | 4.8 | 9.7 | 0.00 | 0.00 | 0.00 | 74 | 1019.5 |
| 20260905221904 | 27 | 298 | 4.8 | 9.7 | 0.00 | 0.00 | 0.00 | 73 | 1019.6 |
| 20260905221804 | 27 | 298 | 4.8 | 9.7 | 0.00 | 0.00 | 0.00 | 73 | 1019.6 |
| 20260905221703 | 27 | 299 | 4.8 | 9.7 | 0.00 | 0.00 | 0.00 | 73 | 1019.6 |
| 20260905221604 | 27 | 301 | 4.8 | 9.7 | 0.00 | 0.00 | 0.00 | 73 | 1019.5 |
| 20260905221503 | 27 | 301 | 4.8 | 9.7 | 0.00 | 0.00 | 0.00 | 73 | 1019.6 |
| 20260905221404 | 27 | 301 | 4.8 | 9.7 | 0.00 | 0.00 | 0.00 | 73 | 1019.6 |
| 20260905221303 | 27 | 301 | 4.8 | 9.7 | 0.00 | 0.00 | 0.00 | 73 | 1019.5 |
| 20260905221204 | 27 | 301 | 3.2 | 9.7 | 0.00 | 0.00 | 0.00 | 73 | 1019.6 |
| 20260905221104 | 27 | 301 | 3.2 | 9.7 | 0.00 | 0.00 | 0.00 | 73 | 1019.6 |
| 20260905221003 | 27 | 302 | 3.2 | 9.7 | 0.00 | 0.00 | 0.00 | 73 | 1019.6 |
| 20260905220904 | 27 | 301 | 3.2 | 9.7 | 0.00 | 0.00 | 0.00 | 73 | 1019.6 |
| 20260905220803 | 27 | 300 | 3.2 | 8.0 | 0.00 | 0.00 | 0.00 | 73 | 1019.6 |
| 20260905220703 | 27 | 298 | 3.2 | 8.0 | 0.00 | 0.00 | 0.00 | 72 | 1019.6 |
| 20260905220603 | 27 | 295 | 1.6 | 8.0 | 0.00 | 0.00 | 0.00 | 72 | 1019.5 |
| 20260905220503 | 27 | 292 | 1.6 | 8.0 | 0.00 | 0.00 | 0.00 | 72 | 1019.5 |
| 20260905220403 | 27 | 291 | 1.6 | 6.4 | 0.00 | 0.00 | 0.00 | 72 | 1019.5 |
| 20260905220303 | 27 | 291 | 0.0 | 6.4 | 0.00 | 0.00 | 0.00 | 72 | 1019.6 |
| 20260905220204 | 27 | 291 | 0.0 | 6.4 | 0.00 | 0.00 | 0.00 | 72 | 1019.5 |
| 20260905220104 | 27 | 292 | 0.0 | 6.4 | 0.00 | 0.00 | 0.00 | 72 | 1019.5 |
| 20260905215903 | 27 | 292 | 1.6 | 6.4 | 0.00 | 0.00 | 0.00 | 72 | 1019.4 |
| 20260905215803 | 27 | 292 | 1.6 | 8.0 | 0.00 | 0.00 | 0.00 | 72 | 1019.5 |
| 20260905215703 | 27 | 292 | 1.6 | 8.0 | 0.00 | 0.00 | 0.00 | 72 | 1019.5 |
| 20260905215603 | 27 | 294 | 1.6 | 8.0 | 0.00 | 0.00 | 0.00 | 72 | 1019.5 |
| 20260905215503 | 27 | 293 | 1.6 | 8.0 | 0.00 | 0.00 | 0.00 | 72 | 1019.5 |
| 20260905215403 | 27 | 293 | 1.6 | 8.0 | 0.00 | 0.00 | 0.00 | 72 | 1019.5 |
| 20260905215306 | 27 | 293 | 1.6 | 8.0 | 0.00 | 0.00 | 0.00 | 72 | 1019.5 |
| 20260905215203 | 27 | 293 | 1.6 | 8.0 | 0.00 | 0.00 | 0.00 | 72 | 1019.5 |
| 20260905215103 | 27 | 293 | 1.6 | 8.0 | 0.00 | 0.00 | 0.00 | 72 | 1019.5 |
| 20260905215003 | 27 | 293 | 1.6 | 8.0 | 0.00 | 0.00 | 0.00 | 72 | 1019.5 |
| 20260905214903 | 27 | 293 | 3.2 | 8.0 | 0.00 | 0.00 | 0.00 | 72 | 1019.5 |
| 20260905214803 | 27 | 293 | 1.6 | 8.0 | 0.00 | 0.00 | 0.00 | 72 | 1019.5 |
| 20260905214703 | 27 | 293 | 1.6 | 6.4 | 0.00 | 0.00 | 0.00 | 72 | 1019.5 |
| 20260905214603 | 27 | 291 | 1.6 | 6.4 | 0.00 | 0.00 | 0.00 | 72 | 1019.5 |
| 20260905214503 | 27 | 293 | 1.6 | 8.0 | 0.00 | 0.00 | 0.00 | 72 | 1019.6 |
| 20260905214403 | 27 | 293 | 1.6 | 8.0 | 0.00 | 0.00 | 0.00 | 72 | 1019.5 |
| 20260905214303 | 27 | 294 | 1.6 | 8.0 | 0.00 | 0.00 | 0.00 | 72 | 1019.7 |
| 20260905214203 | 27 | 295 | 1.6 | 8.0 | 0.00 | 0.00 | 0.00 | 72 | 1019.6 |
| 20260905214103 | 27 | 296 | 1.6 | 8.0 | 0.00 | 0.00 | 0.00 | 72 | 1019.6 |
| 20260905214003 | 27 | 297 | 1.6 | 8.0 | 0.00 | 0.00 | 0.00 | 71 | 1019.6 |
| 20260905213903 | 27 | 298 | 1.6 | 8.0 | 0.00 | 0.00 | 0.00 | 71 | 1019.6 |
| 20260905213803 | 27 | 297 | 1.6 | 8.0 | 0.00 | 0.00 | 0.00 | 71 | 1019.6 |
| 20260905213703 | 27 | 298 | 1.6 | 8.0 | 0.00 | 0.00 | 0.00 | 71 | 1019.7 |
| 20260905213603 | 27 | 298 | 3.2 | 8.0 | 0.00 | 0.00 | 0.00 | 71 | 1019.7 |
| 20260905213503 | 27 | 297 | 1.6 | 8.0 | 0.00 | 0.00 | 0.00 | 71 | 1019.8 |
| 20260905213403 | 27 | 296 | 3.2 | 8.0 | 0.00 | 0.00 | 0.00 | 71 | 1019.7 |
| 20260905213303 | 27 | 297 | 3.2 | 9.7 | 0.00 | 0.00 | 0.00 | 71 | 1019.7 |
| 20260905213203 | 27 | 299 | 3.2 | 9.7 | 0.00 | 0.00 | 0.00 | 71 | 1019.7 |
| 20260905213103 | 27 | 297 | 3.2 | 9.7 | 0.00 | 0.00 | 0.00 | 71 | 1019.7 |
| 20260905213005 | 27 | 297 | 3.2 | 9.7 | 0.00 | 0.00 | 0.00 | 71 | 1019.7 |
| 20260905212903 | 27 | 298 | 4.8 | 9.7 | 0.00 | 0.00 | 0.00 | 71 | 1019.6 |
| 20260905212803 | 27 | 298 | 4.8 | 9.7 | 0.00 | 0.00 | 0.00 | 71 | 1019.7 |
| 20260905212703 | 27 | 297 | 4.8 | 9.7 | 0.00 | 0.00 | 0.00 | 71 | 1019.6 |
| 20260905212603 | 27 | 296 | 4.8 | 9.7 | 0.00 | 0.00 | 0.00 | 71 | 1019.7 |
| 20260905212503 | 27 | 296 | 4.8 | 9.7 | 0.00 | 0.00 | 0.00 | 71 | 1019.7 |
| 20260905212403 | 27 | 298 | 4.8 | 9.7 | 0.00 | 0.00 | 0.00 | 71 | 1019.7 |
| 20260905212306 | 27 | 297 | 4.8 | 9.7 | 0.00 | 0.00 | 0.00 | 71 | 1019.7 |
| 20260905212203 | 27 | 296 | 4.8 | 9.7 | 0.00 | 0.00 | 0.00 | 70 | 1019.7 |
| 20260905212103 | 27 | 296 | 4.8 | 9.7 | 0.00 | 0.00 | 0.00 | 70 | 1019.6 |
| 20260905212003 | 27 | 296 | 4.8 | 9.7 | 0.00 | 0.00 | 0.00 | 71 | 1019.6 |
| 20260905211903 | 27 | 296 | 4.8 | 9.7 | 0.00 | 0.00 | 0.00 | 70 | 1019.7 |
| 20260905211803 | 27 | 295 | 4.8 | 9.7 | 0.00 | 0.00 | 0.00 | 70 | 1019.6 |
| 20260905211705 | 27 | 296 | 4.8 | 9.7 | 0.00 | 0.00 | 0.00 | 70 | 1019.6 |
| 20260905211603 | 27 | 297 | 4.8 | 9.7 | 0.00 | 0.00 | 0.00 | 70 | 1019.6 |
| 20260905211503 | 27 | 297 | 4.8 | 9.7 | 0.00 | 0.00 | 0.00 | 70 | 1019.7 |
| 20260905211403 | 27 | 296 | 4.8 | 9.7 | 0.00 | 0.00 | 0.00 | 70 | 1019.7 |
| 20260905211304 | 27 | 296 | 4.8 | 9.7 | 0.00 | 0.00 | 0.00 | 70 | 1019.6 |
| 20260905211203 | 27 | 296 | 4.8 | 9.7 | 0.00 | 0.00 | 0.00 | 70 | 1019.7 |
| 20260905211103 | 27 | 296 | 4.8 | 9.7 | 0.00 | 0.00 | 0.00 | 70 | 1019.7 |
| 20260905211003 | 27 | 296 | 4.8 | 9.7 | 0.00 | 0.00 | 0.00 | 70 | 1019.6 |
| 20260905210903 | 27 | 297 | 4.8 | 8.0 | 0.00 | 0.00 | 0.00 | 70 | 1019.7 |
| 20260905210803 | 27 | 297 | 4.8 | 8.0 | 0.00 | 0.00 | 0.00 | 70 | 1019.6 |
| 20260905210703 | 27 | 298 | 3.2 | 8.0 | 0.00 | 0.00 | 0.00 | 70 | 1019.6 |
| 20260905210603 | 27 | 298 | 4.8 | 11.3 | 0.00 | 0.00 | 0.00 | 70 | 1019.6 |
| 20260905210503 | 27 | 297 | 4.8 | 11.3 | 0.00 | 0.00 | 0.00 | 70 | 1019.6 |
| 20260905210403 | 27 | 298 | 4.8 | 11.3 | 0.00 | 0.00 | 0.00 | 70 | 1019.6 |
| 20260905210303 | 27 | 298 | 4.8 | 11.3 | 0.00 | 0.00 | 0.00 | 70 | 1019.6 |
| 20260905210203 | 27 | 297 | 4.8 | 11.3 | 0.00 | 0.00 | 0.00 | 70 | 1019.6 |
| 20260905210103 | 27 | 297 | 4.8 | 11.3 | 0.00 | 0.00 | 0.00 | 70 | 1019.6 |
| 20260905210003 | 27 | 296 | 4.8 | 11.3 | 0.00 | 0.00 | 0.00 | 70 | 1019.6 |
| 20260905205903 | 27 | 295 | 4.8 | 11.3 | 0.00 | 0.00 | 0.00 | 70 | 1019.6 |
| 20260905205803 | 27 | 295 | 4.8 | 11.3 | 0.00 | 0.00 | 0.00 | 70 | 1019.5 |
| 20260905205704 | 27 | 294 | 4.8 | 11.3 | 0.00 | 0.00 | 0.00 | 70 | 1019.6 |
| 20260905205603 | 27 | 293 | 4.8 | 11.3 | 0.00 | 0.00 | 0.00 | 70 | 1019.5 |
| 20260905205503 | 27 | 295 | 4.8 | 11.3 | 0.00 | 0.00 | 0.00 | 70 | 1019.6 |
| 20260905205403 | 27 | 295 | 4.8 | 11.3 | 0.00 | 0.00 | 0.00 | 70 | 1019.6 |
| 20260905205306 | 27 | 296 | 4.8 | 9.7 | 0.00 | 0.00 | 0.00 | 70 | 1019.7 |
| 20260905205203 | 27 | 298 | 4.8 | 9.7 | 0.00 | 0.00 | 0.00 | 70 | 1019.7 |
| 20260905205103 | 27 | 298 | 4.8 | 11.3 | 0.00 | 0.00 | 0.00 | 70 | 1019.7 |
| 20260905205003 | 28 | 299 | 4.8 | 11.3 | 0.00 | 0.00 | 0.00 | 70 | 1019.7 |
| 20260905204903 | 27 | 301 | 4.8 | 11.3 | 0.00 | 0.00 | 0.00 | 70 | 1019.6 |
| 20260905204803 | 28 | 302 | 4.8 | 11.3 | 0.00 | 0.00 | 0.00 | 70 | 1019.8 |
| 20260905204703 | 28 | 301 | 4.8 | 11.3 | 0.00 | 0.00 | 0.00 | 70 | 1019.7 |
| 20260905204603 | 28 | 301 | 4.8 | 11.3 | 0.00 | 0.00 | 0.00 | 70 | 1019.8 |
| 20260905204503 | 28 | 301 | 4.8 | 11.3 | 0.00 | 0.00 | 0.00 | 70 | 1019.8 |
| 20260905204403 | 28 | 300 | 4.8 | 11.3 | 0.00 | 0.00 | 0.00 | 71 | 1019.8 |
| 20260905204303 | 28 | 298 | 4.8 | 11.3 | 0.00 | 0.00 | 0.00 | 71 | 1019.7 |
| 20260905204203 | 28 | 297 | 4.8 | 11.3 | 0.00 | 0.00 | 0.00 | 71 | 1019.7 |
| 20260905204103 | 28 | 297 | 4.8 | 11.3 | 0.00 | 0.00 | 0.00 | 70 | 1019.7 |
| 20260905204003 | 28 | 296 | 4.8 | 11.3 | 0.00 | 0.00 | 0.00 | 71 | 1019.8 |
| 20260905203903 | 28 | 294 | 4.8 | 9.7 | 0.00 | 0.00 | 0.00 | 70 | 1019.7 |
| 20260905203803 | 28 | 295 | 4.8 | 9.7 | 0.00 | 0.00 | 0.00 | 70 | 1019.7 |
| 20260905203703 | 28 | 296 | 4.8 | 12.9 | 0.00 | 0.00 | 0.00 | 70 | 1019.8 |
| 20260905203603 | 28 | 296 | 4.8 | 12.9 | 0.00 | 0.00 | 0.00 | 70 | 1019.7 |
| 20260905203503 | 28 | 295 | 6.4 | 12.9 | 0.00 | 0.00 | 0.00 | 70 | 1019.7 |
| 20260905203403 | 28 | 295 | 6.4 | 12.9 | 0.00 | 0.00 | 0.00 | 70 | 1019.7 |
| 20260905203303 | 28 | 296 | 6.4 | 12.9 | 0.00 | 0.00 | 0.00 | 70 | 1019.7 |
| 20260905203203 | 28 | 296 | 4.8 | 12.9 | 0.00 | 0.00 | 0.00 | 70 | 1019.7 |
| 20260905203103 | 28 | 295 | 4.8 | 12.9 | 0.00 | 0.00 | 0.00 | 70 | 1019.7 |
| 20260905203003 | 28 | 295 | 4.8 | 12.9 | 0.00 | 0.00 | 0.00 | 70 | 1019.7 |
| 20260905202904 | 28 | 295 | 4.8 | 12.9 | 0.00 | 0.00 | 0.00 | 70 | 1019.8 |
| 20260905202804 | 28 | 295 | 4.8 | 12.9 | 0.00 | 0.00 | 0.00 | 70 | 1019.7 |
| 20260905202704 | 28 | 294 | 4.8 | 11.3 | 0.00 | 0.00 | 0.00 | 71 | 1019.7 |
| 20260905202604 | 28 | 294 | 6.4 | 11.3 | 0.00 | 0.00 | 0.00 | 71 | 1019.7 |
| 20260905202504 | 28 | 295 | 4.8 | 11.3 | 0.00 | 0.00 | 0.00 | 71 | 1019.8 |
| 20260905202404 | 28 | 295 | 4.8 | 11.3 | 0.00 | 0.00 | 0.00 | 71 | 1019.7 |
| 20260905202306 | 28 | 297 | 4.8 | 11.3 | 0.00 | 0.00 | 0.00 | 71 | 1019.7 |
| 20260905202204 | 28 | 296 | 4.8 | 11.3 | 0.00 | 0.00 | 0.00 | 71 | 1019.8 |
| 20260905202104 | 28 | 296 | 6.4 | 11.3 | 0.00 | 0.00 | 0.00 | 71 | 1019.8 |
| 20260905202004 | 28 | 297 | 6.4 | 11.3 | 0.00 | 0.00 | 0.00 | 71 | 1019.8 |
| 20260905201904 | 28 | 296 | 6.4 | 11.3 | 0.00 | 0.00 | 0.00 | 71 | 1019.9 |
| 20260905201804 | 28 | 296 | 6.4 | 11.3 | 0.00 | 0.00 | 0.00 | 71 | 1019.8 |
| 20260905201704 | 28 | 296 | 4.8 | 11.3 | 0.00 | 0.00 | 0.00 | 71 | 1019.9 |
| 20260905201604 | 28 | 297 | 4.8 | 11.3 | 0.00 | 0.00 | 0.00 | 71 | 1019.8 |
| 20260905201504 | 28 | 296 | 4.8 | 11.3 | 0.00 | 0.00 | 0.00 | 71 | 1019.8 |
| 20260905201404 | 28 | 297 | 4.8 | 11.3 | 0.00 | 0.00 | 0.00 | 71 | 1019.9 |
| 20260905201304 | 28 | 294 | 4.8 | 11.3 | 0.00 | 0.00 | 0.00 | 71 | 1019.8 |
| 20260905201204 | 28 | 295 | 4.8 | 11.3 | 0.00 | 0.00 | 0.00 | 71 | 1019.8 |
| 20260905201104 | 28 | 297 | 3.2 | 11.3 | 0.00 | 0.00 | 0.00 | 71 | 1019.9 |
| 20260905201004 | 28 | 297 | 3.2 | 11.3 | 0.00 | 0.00 | 0.00 | 71 | 1019.8 |
| 20260905200904 | 28 | 299 | 3.2 | 8.0 | 0.00 | 0.00 | 0.00 | 71 | 1019.9 |
| 20260905200804 | 28 | 299 | 3.2 | 8.0 | 0.00 | 0.00 | 0.00 | 71 | 1019.7 |
| 20260905200704 | 28 | 299 | 3.2 | 8.0 | 0.00 | 0.00 | 0.00 | 71 | 1019.8 |
| 20260905200604 | 28 | 298 | 3.2 | 9.7 | 0.00 | 0.00 | 0.00 | 71 | 1019.8 |
| 20260905200504 | 28 | 300 | 3.2 | 9.7 | 0.00 | 0.00 | 0.00 | 71 | 1019.8 |
| 20260905200404 | 28 | 300 | 3.2 | 9.7 | 0.00 | 0.00 | 0.00 | 71 | 1019.7 |
| 20260905200304 | 28 | 301 | 3.2 | 9.7 | 0.00 | 0.00 | 0.00 | 71 | 1019.7 |
| 20260905200204 | 28 | 300 | 3.2 | 9.7 | 0.00 | 0.00 | 0.00 | 70 | 1019.8 |
| 20260905200104 | 28 | 299 | 3.2 | 9.7 | 0.00 | 0.00 | 0.00 | 70 | 1019.7 |
| 20260905200004 | 28 | 298 | 3.2 | 9.7 | 0.00 | 0.00 | 0.00 | 70 | 1019.8 |
| 20260905195904 | 28 | 297 | 3.2 | 9.7 | 0.00 | 0.00 | 0.00 | 70 | 1019.7 |
| 20260905195804 | 28 | 297 | 3.2 | 9.7 | 0.00 | 0.00 | 0.00 | 70 | 1019.7 |
| 20260905195704 | 28 | 296 | 3.2 | 9.7 | 0.00 | 0.00 | 0.00 | 70 | 1019.8 |
| 20260905195604 | 28 | 295 | 4.8 | 12.9 | 0.00 | 0.00 | 0.00 | 71 | 1019.7 |
| 20260905195504 | 28 | 294 | 4.8 | 12.9 | 0.00 | 0.00 | 0.00 | 70 | 1019.7 |
| 20260905195404 | 28 | 295 | 4.8 | 12.9 | 0.00 | 0.00 | 0.00 | 70 | 1019.7 |
| 20260905195306 | 28 | 294 | 4.8 | 12.9 | 0.00 | 0.00 | 0.00 | 70 | 1019.7 |
| 20260905195204 | 28 | 294 | 4.8 | 12.9 | 0.00 | 0.00 | 0.00 | 71 | 1019.7 |
| 20260905195104 | 28 | 294 | 4.8 | 12.9 | 0.00 | 0.00 | 0.00 | 70 | 1019.8 |
| 20260905195004 | 28 | 294 | 4.8 | 12.9 | 0.00 | 0.00 | 0.00 | 70 | 1019.7 |
| 20260905194904 | 28 | 295 | 6.4 | 12.9 | 0.00 | 0.00 | 0.00 | 70 | 1019.6 |
| 20260905194804 | 28 | 294 | 6.4 | 12.9 | 0.00 | 0.00 | 0.00 | 70 | 1019.7 |
| 20260905194704 | 28 | 295 | 4.8 | 12.9 | 0.00 | 0.00 | 0.00 | 71 | 1019.8 |
| 20260905194604 | 28 | 297 | 4.8 | 11.3 | 0.00 | 0.00 | 0.00 | 70 | 1019.7 |
| 20260905194504 | 28 | 296 | 4.8 | 11.3 | 0.00 | 0.00 | 0.00 | 70 | 1019.7 |
| 20260905194404 | 28 | 297 | 4.8 | 11.3 | 0.00 | 0.00 | 0.00 | 70 | 1019.7 |
| 20260905194304 | 28 | 297 | 4.8 | 11.3 | 0.00 | 0.00 | 0.00 | 70 | 1019.7 |
| 20260905194204 | 28 | 297 | 4.8 | 11.3 | 0.00 | 0.00 | 0.00 | 70 | 1019.7 |
| 20260905194103 | 28 | 298 | 4.8 | 11.3 | 0.00 | 0.00 | 0.00 | 70 | 1019.7 |
| 20260905194004 | 28 | 299 | 4.8 | 11.3 | 0.00 | 0.00 | 0.00 | 70 | 1019.7 |
| 20260905193904 | 28 | 299 | 4.8 | 11.3 | 0.00 | 0.00 | 0.00 | 70 | 1019.9 |
| 20260905193804 | 28 | 300 | 4.8 | 11.3 | 0.00 | 0.00 | 0.00 | 70 | 1019.7 |
| 20260905193703 | 28 | 299 | 4.8 | 11.3 | 0.00 | 0.00 | 0.00 | 70 | 1019.7 |
| 20260905193604 | 28 | 298 | 4.8 | 11.3 | 0.00 | 0.00 | 0.00 | 70 | 1019.8 |
| 20260905193504 | 28 | 298 | 4.8 | 11.3 | 0.00 | 0.00 | 0.00 | 70 | 1019.7 |
| 20260905193404 | 28 | 297 | 4.8 | 11.3 | 0.00 | 0.00 | 0.00 | 70 | 1019.8 |
| 20260905193304 | 28 | 298 | 4.8 | 11.3 | 0.00 | 0.00 | 0.00 | 70 | 1019.7 |
| 20260905193203 | 28 | 298 | 4.8 | 11.3 | 0.00 | 0.00 | 0.00 | 70 | 1019.7 |
| 20260905193103 | 28 | 297 | 4.8 | 11.3 | 0.00 | 0.00 | 0.00 | 70 | 1019.7 |
| 20260905193003 | 28 | 298 | 4.8 | 11.3 | 0.00 | 0.00 | 0.00 | 70 | 1019.7 |
| 20260905192903 | 28 | 298 | 4.8 | 11.3 | 0.00 | 0.00 | 0.00 | 70 | 1019.7 |
| 20260905192804 | 28 | 299 | 4.8 | 11.3 | 0.00 | 0.00 | 0.00 | 71 | 1019.7 |
| 20260905192704 | 28 | 300 | 3.2 | 11.3 | 0.00 | 0.00 | 0.00 | 70 | 1019.6 |
| 20260905192603 | 28 | 300 | 3.2 | 11.3 | 0.00 | 0.00 | 0.00 | 70 | 1019.6 |
| 20260905192504 | 28 | 300 | 3.2 | 11.3 | 0.00 | 0.00 | 0.00 | 70 | 1019.6 |
| 20260905192403 | 28 | 300 | 3.2 | 11.3 | 0.00 | 0.00 | 0.00 | 70 | 1019.6 |
| 20260905192306 | 28 | 299 | 3.2 | 11.3 | 0.00 | 0.00 | 0.00 | 70 | 1019.5 |
| 20260905192203 | 28 | 298 | 3.2 | 9.7 | 0.00 | 0.00 | 0.00 | 70 | 1019.6 |
| 20260905192103 | 28 | 300 | 3.2 | 9.7 | 0.00 | 0.00 | 0.00 | 70 | 1019.6 |
| 20260905192004 | 28 | 300 | 3.2 | 9.7 | 0.00 | 0.00 | 0.00 | 70 | 1019.6 |
| 20260905191903 | 28 | 301 | 3.2 | 9.7 | 0.00 | 0.00 | 0.00 | 70 | 1019.6 |
| 20260905191803 | 28 | 300 | 3.2 | 11.3 | 0.00 | 0.00 | 0.00 | 70 | 1019.6 |
| 20260905191703 | 28 | 299 | 4.8 | 12.9 | 0.00 | 0.00 | 0.00 | 70 | 1019.6 |
| 20260905191603 | 28 | 298 | 4.8 | 12.9 | 0.00 | 0.00 | 0.00 | 70 | 1019.5 |
| 20260905191504 | 28 | 298 | 4.8 | 12.9 | 0.00 | 0.00 | 0.00 | 70 | 1019.5 |
| 20260905191403 | 28 | 298 | 4.8 | 12.9 | 0.00 | 0.00 | 0.00 | 70 | 1019.5 |
| 20260905191303 | 28 | 298 | 4.8 | 12.9 | 0.00 | 0.00 | 0.00 | 70 | 1019.6 |
| 20260905191203 | 28 | 298 | 4.8 | 12.9 | 0.00 | 0.00 | 0.00 | 70 | 1019.6 |
| 20260905191103 | 28 | 298 | 4.8 | 12.9 | 0.00 | 0.00 | 0.00 | 70 | 1019.6 |
| 20260905191003 | 28 | 297 | 4.8 | 12.9 | 0.00 | 0.00 | 0.00 | 71 | 1019.6 |
| 20260905190903 | 28 | 296 | 4.8 | 12.9 | 0.00 | 0.00 | 0.00 | 70 | 1019.7 |
| 20260905190803 | 28 | 296 | 4.8 | 12.9 | 0.00 | 0.00 | 0.00 | 70 | 1019.6 |
| 20260905190703 | 28 | 296 | 4.8 | 11.3 | 0.00 | 0.00 | 0.00 | 70 | 1019.6 |
| 20260905190603 | 28 | 296 | 4.8 | 11.3 | 0.00 | 0.00 | 0.00 | 70 | 1019.5 |
| 20260905190503 | 28 | 295 | 4.8 | 11.3 | 0.00 | 0.00 | 0.00 | 70 | 1019.5 |
| 20260905190403 | 28 | 295 | 4.8 | 11.3 | 0.00 | 0.00 | 0.00 | 70 | 1019.5 |
| 20260905190303 | 28 | 295 | 6.4 | 11.3 | 0.00 | 0.00 | 0.00 | 70 | 1019.5 |
| 20260905190203 | 28 | 295 | 4.8 | 11.3 | 0.00 | 0.00 | 0.00 | 70 | 1019.3 |
| 20260905190103 | 28 | 295 | 4.8 | 11.3 | 0.00 | 0.00 | 0.00 | 70 | 1019.4 |
| 20260905190003 | 28 | 294 | 4.8 | 11.3 | 0.00 | 0.00 | 0.00 | 70 | 1019.4 |
| 20260905185903 | 28 | 295 | 4.8 | 11.3 | 0.00 | 0.00 | 0.00 | 70 | 1019.4 |
| 20260905185803 | 28 | 294 | 4.8 | 11.3 | 0.00 | 0.00 | 0.00 | 70 | 1019.3 |
| 20260905185703 | 28 | 295 | 4.8 | 11.3 | 0.00 | 0.00 | 0.00 | 70 | 1019.4 |
| 20260905185603 | 28 | 295 | 4.8 | 11.3 | 0.00 | 0.00 | 0.00 | 70 | 1019.3 |
| 20260905185503 | 28 | 294 | 4.8 | 11.3 | 0.00 | 0.00 | 0.00 | 70 | 1019.4 |
| 20260905185403 | 28 | 294 | 4.8 | 11.3 | 0.00 | 0.00 | 0.00 | 70 | 1019.3 |
| 20260905185305 | 28 | 294 | 4.8 | 11.3 | 0.00 | 0.00 | 0.00 | 70 | 1019.3 |
| 20260905185203 | 28 | 294 | 4.8 | 11.3 | 0.00 | 0.00 | 0.00 | 70 | 1019.3 |
| 20260905185103 | 28 | 294 | 4.8 | 11.3 | 0.00 | 0.00 | 0.00 | 70 | 1019.3 |
| 20260905185003 | 28 | 294 | 4.8 | 11.3 | 0.00 | 0.00 | 0.00 | 70 | 1019.2 |
| 20260905184903 | 28 | 294 | 3.2 | 11.3 | 0.00 | 0.00 | 0.00 | 70 | 1019.2 |
| 20260905184803 | 28 | 293 | 3.2 | 11.3 | 0.00 | 0.00 | 0.00 | 70 | 1019.3 |
| 20260905184703 | 28 | 293 | 3.2 | 11.3 | 0.00 | 0.00 | 0.00 | 70 | 1019.2 |
| 20260905184603 | 28 | 293 | 3.2 | 11.3 | 0.00 | 0.00 | 0.00 | 70 | 1019.2 |
| 20260905184503 | 28 | 294 | 3.2 | 11.3 | 0.00 | 0.00 | 0.00 | 70 | 1019.2 |
| 20260905184403 | 28 | 294 | 3.2 | 11.3 | 0.00 | 0.00 | 0.00 | 70 | 1019.3 |
| 20260905184303 | 28 | 296 | 4.8 | 11.3 | 0.00 | 0.00 | 0.00 | 70 | 1019.3 |
| 20260905184203 | 28 | 297 | 4.8 | 11.3 | 0.00 | 0.00 | 0.00 | 70 | 1019.4 |
| 20260905184103 | 28 | 297 | 4.8 | 11.3 | 0.00 | 0.00 | 0.00 | 70 | 1019.3 |
| 20260905184003 | 28 | 298 | 4.8 | 11.3 | 0.00 | 0.00 | 0.00 | 70 | 1019.4 |
| 20260905183903 | 28 | 298 | 4.8 | 11.3 | 0.00 | 0.00 | 0.00 | 70 | 1019.5 |
| 20260905183803 | 28 | 298 | 4.8 | 11.3 | 0.00 | 0.00 | 0.00 | 70 | 1019.4 |
| 20260905183703 | 28 | 298 | 4.8 | 11.3 | 0.00 | 0.00 | 0.00 | 70 | 1019.5 |
| 20260905183603 | 28 | 298 | 4.8 | 11.3 | 0.00 | 0.00 | 0.00 | 70 | 1019.5 |
| 20260905183503 | 28 | 298 | 4.8 | 11.3 | 0.00 | 0.00 | 0.00 | 70 | 1019.3 |
| 20260905183403 | 28 | 298 | 4.8 | 11.3 | 0.00 | 0.00 | 0.00 | 70 | 1019.3 |
| 20260905183303 | 28 | 297 | 4.8 | 11.3 | 0.00 | 0.00 | 0.00 | 70 | 1019.4 |
| 20260905183203 | 28 | 296 | 4.8 | 11.3 | 0.00 | 0.00 | 0.00 | 70 | 1019.4 |
| 20260905183103 | 28 | 297 | 4.8 | 11.3 | 0.00 | 0.00 | 0.00 | 70 | 1019.4 |
| 20260905183003 | 28 | 295 | 4.8 | 11.3 | 0.00 | 0.00 | 0.00 | 70 | 1019.4 |
| 20260905182903 | 28 | 296 | 4.8 | 11.3 | 0.00 | 0.00 | 0.00 | 70 | 1019.4 |
| 20260905182803 | 28 | 296 | 4.8 | 11.3 | 0.00 | 0.00 | 0.00 | 70 | 1019.3 |
| 20260905182703 | 28 | 299 | 4.8 | 11.3 | 0.00 | 0.00 | 0.00 | 70 | 1019.2 |
| 20260905182603 | 28 | 299 | 4.8 | 11.3 | 0.00 | 0.00 | 0.00 | 70 | 1019.3 |
| 20260905182503 | 28 | 300 | 6.4 | 11.3 | 0.00 | 0.00 | 0.00 | 70 | 1019.3 |
| 20260905182403 | 28 | 299 | 6.4 | 11.3 | 0.00 | 0.00 | 0.00 | 70 | 1019.2 |
| 20260905182305 | 28 | 299 | 6.4 | 11.3 | 0.00 | 0.00 | 0.00 | 70 | 1019.1 |
| 20260905182203 | 28 | 299 | 6.4 | 11.3 | 0.00 | 0.00 | 0.00 | 70 | 1019.2 |
| 20260905182103 | 28 | 298 | 6.4 | 11.3 | 0.00 | 0.00 | 0.00 | 70 | 1019.2 |
| 20260905182003 | 28 | 299 | 6.4 | 11.3 | 0.00 | 0.00 | 0.00 | 70 | 1019.1 |
| 20260905181903 | 28 | 298 | 6.4 | 11.3 | 0.00 | 0.00 | 0.00 | 70 | 1019.2 |
| 20260905181803 | 28 | 297 | 6.4 | 11.3 | 0.00 | 0.00 | 0.00 | 70 | 1019.1 |
| 20260905181703 | 28 | 297 | 6.4 | 11.3 | 0.00 | 0.00 | 0.00 | 70 | 1019.1 |
| 20260905181603 | 28 | 296 | 6.4 | 11.3 | 0.00 | 0.00 | 0.00 | 70 | 1019.2 |
| 20260905181503 | 28 | 295 | 6.4 | 12.9 | 0.00 | 0.00 | 0.00 | 70 | 1019.3 |
| 20260905181403 | 28 | 296 | 8.0 | 12.9 | 0.00 | 0.00 | 0.00 | 70 | 1019.2 |
| 20260905181303 | 28 | 296 | 6.4 | 12.9 | 0.00 | 0.00 | 0.00 | 70 | 1019.3 |
| 20260905181203 | 28 | 296 | 6.4 | 12.9 | 0.00 | 0.00 | 0.00 | 70 | 1019.2 |
| 20260905181103 | 28 | 297 | 6.4 | 12.9 | 0.00 | 0.00 | 0.00 | 69 | 1019.2 |
| 20260905181003 | 28 | 297 | 6.4 | 12.9 | 0.00 | 0.00 | 0.00 | 69 | 1019.1 |
| 20260905180903 | 28 | 298 | 6.4 | 12.9 | 0.00 | 0.00 | 0.00 | 69 | 1019.1 |
| 20260905180803 | 28 | 298 | 4.8 | 12.9 | 0.00 | 0.00 | 0.00 | 69 | 1019.0 |
| 20260905180703 | 28 | 297 | 4.8 | 12.9 | 0.00 | 0.00 | 0.00 | 69 | 1019.1 |
| 20260905180603 | 28 | 297 | 4.8 | 12.9 | 0.00 | 0.00 | 0.00 | 69 | 1019.1 |
| 20260905180503 | 28 | 297 | 4.8 | 11.3 | 0.00 | 0.00 | 0.00 | 68 | 1019.1 |
| 20260905180403 | 28 | 299 | 4.8 | 9.7 | 0.00 | 0.00 | 0.00 | 68 | 1019.0 |
| 20260905180303 | 28 | 298 | 4.8 | 9.7 | 0.00 | 0.00 | 0.00 | 68 | 1019.1 |
| 20260905180203 | 28 | 299 | 3.2 | 9.7 | 0.00 | 0.00 | 0.00 | 68 | 1019.0 |
| 20260905180104 | 28 | 298 | 3.2 | 9.7 | 0.00 | 0.00 | 0.00 | 68 | 1019.0 |
| 20260905180004 | 28 | 298 | 3.2 | 9.7 | 0.00 | 0.00 | 0.00 | 68 | 1019.0 |
| 20260905175904 | 28 | 298 | 3.2 | 9.7 | 0.00 | 0.00 | 0.00 | 68 | 1018.9 |
| 20260905175804 | 28 | 297 | 3.2 | 9.7 | 0.00 | 0.00 | 0.00 | 68 | 1019.0 |
| 20260905175704 | 28 | 297 | 3.2 | 9.7 | 0.00 | 0.00 | 0.00 | 68 | 1019.0 |
| 20260905175604 | 28 | 298 | 3.2 | 9.7 | 0.00 | 0.00 | 0.00 | 68 | 1019.0 |
| 20260905175504 | 28 | 298 | 3.2 | 9.7 | 0.00 | 0.00 | 0.00 | 68 | 1019.0 |
| 20260905175404 | 28 | 298 | 3.2 | 9.7 | 0.00 | 0.00 | 0.00 | 67 | 1019.0 |
| 20260905175306 | 28 | 300 | 3.2 | 9.7 | 0.00 | 0.00 | 0.00 | 67 | 1019.0 |
| 20260905175204 | 28 | 300 | 3.2 | 9.7 | 0.00 | 0.00 | 0.00 | 67 | 1018.9 |
| 20260905175104 | 28 | 300 | 4.8 | 9.7 | 0.00 | 0.00 | 0.00 | 67 | 1018.9 |
| 20260905175004 | 28 | 299 | 4.8 | 9.7 | 0.00 | 0.00 | 0.00 | 67 | 1018.9 |
| 20260905174904 | 28 | 299 | 4.8 | 9.7 | 0.00 | 0.00 | 0.00 | 67 | 1018.8 |
| 20260905174804 | 28 | 299 | 4.8 | 9.7 | 0.00 | 0.00 | 0.00 | 67 | 1018.9 |
| 20260905174704 | 28 | 299 | 4.8 | 9.7 | 0.00 | 0.00 | 0.00 | 67 | 1019.0 |
| 20260905174604 | 28 | 299 | 4.8 | 9.7 | 0.00 | 0.00 | 0.00 | 67 | 1018.9 |
| 20260905174504 | 28 | 299 | 3.2 | 9.7 | 0.00 | 0.00 | 0.00 | 66 | 1018.9 |
| 20260905174404 | 28 | 298 | 4.8 | 9.7 | 0.00 | 0.00 | 0.00 | 66 | 1018.9 |
| 20260905174304 | 28 | 296 | 4.8 | 9.7 | 0.00 | 0.00 | 0.00 | 66 | 1018.9 |
| 20260905174204 | 28 | 296 | 4.8 | 9.7 | 0.00 | 0.00 | 0.00 | 66 | 1018.9 |
| 20260905174104 | 28 | 296 | 4.8 | 9.7 | 0.00 | 0.00 | 0.00 | 66 | 1018.9 |
| 20260905174004 | 28 | 295 | 4.8 | 9.7 | 0.00 | 0.00 | 0.00 | 66 | 1019.0 |
| 20260905173904 | 28 | 296 | 4.8 | 9.7 | 0.00 | 0.00 | 0.00 | 66 | 1019.0 |
| 20260905173804 | 28 | 296 | 3.2 | 9.7 | 0.00 | 0.00 | 0.00 | 66 | 1019.0 |
| 20260905173704 | 28 | 296 | 3.2 | 9.7 | 0.00 | 0.00 | 0.00 | 66 | 1019.0 |
| 20260905173604 | 28 | 298 | 3.2 | 9.7 | 0.00 | 0.00 | 0.00 | 65 | 1018.9 |
| 20260905173504 | 28 | 299 | 4.8 | 12.9 | 0.00 | 0.00 | 0.00 | 65 | 1018.9 |
| 20260905173404 | 28 | 299 | 4.8 | 12.9 | 0.00 | 0.00 | 0.00 | 65 | 1018.9 |
| 20260905173304 | 28 | 300 | 4.8 | 12.9 | 0.00 | 0.00 | 0.00 | 65 | 1018.9 |
| 20260905173204 | 28 | 301 | 4.8 | 12.9 | 0.00 | 0.00 | 0.00 | 65 | 1018.9 |
| 20260905173104 | 28 | 300 | 4.8 | 12.9 | 0.00 | 0.00 | 0.00 | 65 | 1018.9 |
| 20260905173004 | 28 | 300 | 4.8 | 12.9 | 0.00 | 0.00 | 0.00 | 65 | 1018.9 |
| 20260905172904 | 29 | 300 | 4.8 | 12.9 | 0.00 | 0.00 | 0.00 | 65 | 1018.8 |
| 20260905172804 | 29 | 299 | 4.8 | 12.9 | 0.00 | 0.00 | 0.00 | 65 | 1018.9 |
| 20260905172704 | 29 | 299 | 4.8 | 12.9 | 0.00 | 0.00 | 0.00 | 65 | 1018.7 |
| 20260905172604 | 29 | 299 | 4.8 | 12.9 | 0.00 | 0.00 | 0.00 | 65 | 1018.8 |
| 20260905172504 | 29 | 299 | 4.8 | 11.3 | 0.00 | 0.00 | 0.00 | 64 | 1018.8 |
| 20260905172404 | 29 | 300 | 4.8 | 11.3 | 0.00 | 0.00 | 0.00 | 64 | 1018.7 |
| 20260905172305 | 29 | 300 | 4.8 | 11.3 | 0.00 | 0.00 | 0.00 | 64 | 1018.6 |
| 20260905172204 | 29 | 301 | 6.4 | 9.7 | 0.00 | 0.00 | 0.00 | 64 | 1018.6 |
| 20260905172104 | 29 | 301 | 6.4 | 9.7 | 0.00 | 0.00 | 0.00 | 63 | 1018.7 |
| 20260905172004 | 29 | 301 | 6.4 | 9.7 | 0.00 | 0.00 | 0.00 | 63 | 1018.8 |
| 20260905171904 | 29 | 300 | 6.4 | 11.3 | 0.00 | 0.00 | 0.00 | 63 | 1018.9 |
| 20260905171804 | 29 | 300 | 6.4 | 11.3 | 0.00 | 0.00 | 0.00 | 63 | 1018.9 |
| 20260905171704 | 29 | 300 | 6.4 | 11.3 | 0.00 | 0.00 | 0.00 | 63 | 1018.9 |
| 20260905171604 | 29 | 299 | 6.4 | 11.3 | 0.00 | 0.00 | 0.00 | 63 | 1018.9 |
| 20260905171504 | 29 | 298 | 6.4 | 11.3 | 0.00 | 0.00 | 0.00 | 63 | 1018.8 |
| 20260905171403 | 29 | 298 | 4.8 | 11.3 | 0.00 | 0.00 | 0.00 | 63 | 1018.8 |
| 20260905171304 | 29 | 299 | 4.8 | 11.3 | 0.00 | 0.00 | 0.00 | 63 | 1018.8 |
| 20260905171203 | 29 | 299 | 4.8 | 11.3 | 0.00 | 0.00 | 0.00 | 62 | 1018.9 |
| 20260905171103 | 29 | 298 | 4.8 | 11.3 | 0.00 | 0.00 | 0.00 | 62 | 1018.8 |
| 20260905171004 | 29 | 299 | 4.8 | 14.5 | 0.00 | 0.00 | 0.00 | 62 | 1018.8 |
| 20260905170903 | 29 | 300 | 4.8 | 16.1 | 0.00 | 0.00 | 0.00 | 62 | 1018.7 |
| 20260905170803 | 29 | 301 | 4.8 | 16.1 | 0.00 | 0.00 | 0.00 | 62 | 1018.7 |
| 20260905170704 | 29 | 301 | 6.4 | 16.1 | 0.00 | 0.00 | 0.00 | 62 | 1018.7 |
| 20260905170603 | 29 | 301 | 6.4 | 16.1 | 0.00 | 0.00 | 0.00 | 62 | 1018.6 |
| 20260905170503 | 29 | 302 | 6.4 | 16.1 | 0.00 | 0.00 | 0.00 | 62 | 1018.8 |
| 20260905170404 | 29 | 302 | 6.4 | 16.1 | 0.00 | 0.00 | 0.00 | 62 | 1018.8 |
| 20260905170303 | 29 | 300 | 6.4 | 16.1 | 0.00 | 0.00 | 0.00 | 62 | 1018.8 |
| 20260905170203 | 29 | 301 | 6.4 | 16.1 | 0.00 | 0.00 | 0.00 | 62 | 1018.8 |
| 20260905170104 | 29 | 302 | 6.4 | 16.1 | 0.00 | 0.00 | 0.00 | 62 | 1018.7 |
| 20260905170003 | 29 | 302 | 6.4 | 16.1 | 0.00 | 0.00 | 0.00 | 62 | 1018.8 |
| 20260905165904 | 30 | 302 | 6.4 | 12.9 | 0.00 | 0.00 | 0.00 | 61 | 1018.7 |
| 20260905165803 | 30 | 303 | 6.4 | 12.9 | 0.00 | 0.00 | 0.00 | 61 | 1018.7 |
| 20260905165703 | 30 | 304 | 6.4 | 12.9 | 0.00 | 0.00 | 0.00 | 61 | 1018.7 |
| 20260905165605 | 30 | 303 | 6.4 | 12.9 | 0.00 | 0.00 | 0.00 | 61 | 1018.6 |
| 20260905165503 | 30 | 302 | 6.4 | 12.9 | 0.00 | 0.00 | 0.00 | 61 | 1018.6 |
| 20260905165403 | 30 | 301 | 4.8 | 12.9 | 0.00 | 0.00 | 0.00 | 61 | 1018.6 |
| 20260905165306 | 30 | 302 | 4.8 | 12.9 | 0.00 | 0.00 | 0.00 | 61 | 1018.5 |
| 20260905165203 | 30 | 300 | 4.8 | 12.9 | 0.00 | 0.00 | 0.00 | 61 | 1018.6 |
| 20260905165103 | 30 | 299 | 4.8 | 12.9 | 0.00 | 0.00 | 0.00 | 61 | 1018.6 |
| 20260905165003 | 30 | 299 | 4.8 | 12.9 | 0.00 | 0.00 | 0.00 | 60 | 1018.6 |
| 20260905164903 | 30 | 298 | 4.8 | 12.9 | 0.00 | 0.00 | 0.00 | 60 | 1018.7 |
| 20260905164803 | 30 | 296 | 3.2 | 11.3 | 0.00 | 0.00 | 0.00 | 60 | 1018.7 |
| 20260905164703 | 30 | 294 | 3.2 | 9.7 | 0.00 | 0.00 | 0.00 | 60 | 1018.6 |
| 20260905164603 | 30 | 294 | 3.2 | 9.7 | 0.00 | 0.00 | 0.00 | 60 | 1018.7 |
| 20260905164503 | 30 | 297 | 3.2 | 11.3 | 0.00 | 0.00 | 0.00 | 60 | 1018.6 |
| 20260905164403 | 30 | 297 | 4.8 | 14.5 | 0.00 | 0.00 | 0.00 | 59 | 1018.7 |
| 20260905164303 | 30 | 297 | 4.8 | 14.5 | 0.00 | 0.00 | 0.00 | 59 | 1018.6 |
| 20260905164203 | 30 | 297 | 4.8 | 14.5 | 0.00 | 0.00 | 0.00 | 59 | 1018.6 |
| 20260905164103 | 30 | 297 | 4.8 | 14.5 | 0.00 | 0.00 | 0.00 | 59 | 1018.5 |
| 20260905164003 | 30 | 297 | 4.8 | 14.5 | 0.00 | 0.00 | 0.00 | 59 | 1018.6 |
| 20260905163903 | 30 | 298 | 4.8 | 14.5 | 0.00 | 0.00 | 0.00 | 59 | 1018.5 |
| 20260905163803 | 30 | 298 | 4.8 | 14.5 | 0.00 | 0.00 | 0.00 | 59 | 1018.6 |
| 20260905163703 | 30 | 299 | 4.8 | 14.5 | 0.00 | 0.00 | 0.00 | 59 | 1018.6 |
| 20260905163603 | 30 | 299 | 4.8 | 14.5 | 0.00 | 0.00 | 0.00 | 59 | 1018.6 |
| 20260905163503 | 30 | 300 | 4.8 | 14.5 | 0.00 | 0.00 | 0.00 | 58 | 1018.7 |
| 20260905163403 | 30 | 299 | 4.8 | 14.5 | 0.00 | 0.00 | 0.00 | 58 | 1018.6 |
| 20260905163303 | 30 | 300 | 4.8 | 11.3 | 0.00 | 0.00 | 0.00 | 58 | 1018.5 |
| 20260905163203 | 30 | 299 | 4.8 | 11.3 | 0.00 | 0.00 | 0.00 | 58 | 1018.5 |
| 20260905163103 | 30 | 300 | 4.8 | 11.3 | 0.00 | 0.00 | 0.00 | 58 | 1018.5 |
| 20260905163003 | 30 | 301 | 4.8 | 11.3 | 0.00 | 0.00 | 0.00 | 58 | 1018.6 |
| 20260905162903 | 30 | 301 | 4.8 | 11.3 | 0.00 | 0.00 | 0.00 | 58 | 1018.5 |
| 20260905162803 | 30 | 298 | 4.8 | 11.3 | 0.00 | 0.00 | 0.00 | 58 | 1018.9 |
| 20260905162703 | 30 | 299 | 3.2 | 11.3 | 0.00 | 0.00 | 0.00 | 57 | 1018.8 |
| 20260905162603 | 30 | 298 | 3.2 | 9.7 | 0.00 | 0.00 | 0.00 | 58 | 1018.9 |
| 20260905162503 | 30 | 297 | 3.2 | 9.7 | 0.00 | 0.00 | 0.00 | 58 | 1018.8 |
| 20260905162403 | 30 | 299 | 3.2 | 9.7 | 0.00 | 0.00 | 0.00 | 58 | 1018.7 |
| 20260905162305 | 30 | 299 | 3.2 | 9.7 | 0.00 | 0.00 | 0.00 | 58 | 1018.8 |
| 20260905162203 | 30 | 301 | 3.2 | 9.7 | 0.00 | 0.00 | 0.00 | 58 | 1018.8 |
| 20260905162103 | 30 | 300 | 3.2 | 9.7 | 0.00 | 0.00 | 0.00 | 57 | 1018.9 |
| 20260905162003 | 30 | 300 | 3.2 | 12.9 | 0.00 | 0.00 | 0.00 | 57 | 1018.8 |
| 20260905161903 | 30 | 301 | 3.2 | 12.9 | 0.00 | 0.00 | 0.00 | 57 | 1018.7 |
| 20260905161803 | 30 | 301 | 3.2 | 12.9 | 0.00 | 0.00 | 0.00 | 57 | 1018.9 |
| 20260905161703 | 30 | 301 | 3.2 | 12.9 | 0.00 | 0.00 | 0.00 | 57 | 1018.8 |
| 20260905161603 | 30 | 302 | 3.2 | 12.9 | 0.00 | 0.00 | 0.00 | 57 | 1018.8 |
| 20260905161503 | 30 | 303 | 3.2 | 12.9 | 0.00 | 0.00 | 0.00 | 57 | 1018.7 |
| 20260905161403 | 30 | 301 | 3.2 | 12.9 | 0.00 | 0.00 | 0.00 | 57 | 1018.8 |
| 20260905161303 | 30 | 301 | 3.2 | 12.9 | 0.00 | 0.00 | 0.00 | 57 | 1018.8 |
| 20260905161203 | 31 | 301 | 3.2 | 12.9 | 0.00 | 0.00 | 0.00 | 56 | 1018.9 |
| 20260905161103 | 31 | 297 | 3.2 | 14.5 | 0.00 | 0.00 | 0.00 | 56 | 1018.8 |
| 20260905161003 | 31 | 296 | 3.2 | 14.5 | 0.00 | 0.00 | 0.00 | 56 | 1018.8 |
| 20260905160903 | 31 | 297 | 3.2 | 14.5 | 0.00 | 0.00 | 0.00 | 56 | 1018.7 |
| 20260905160803 | 31 | 300 | 3.2 | 14.5 | 0.00 | 0.00 | 0.00 | 55 | 1018.7 |
| 20260905160703 | 31 | 304 | 3.2 | 14.5 | 0.00 | 0.00 | 0.00 | 55 | 1018.7 |
| 20260905160603 | 31 | 304 | 3.2 | 14.5 | 0.00 | 0.00 | 0.00 | 55 | 1018.7 |
| 20260905160503 | 31 | 303 | 3.2 | 14.5 | 0.00 | 0.00 | 0.00 | 55 | 1018.8 |
| 20260905160403 | 31 | 303 | 3.2 | 14.5 | 0.00 | 0.00 | 0.00 | 55 | 1018.9 |
| 20260905160303 | 31 | 303 | 3.2 | 14.5 | 0.00 | 0.00 | 0.00 | 55 | 1018.8 |
| 20260905160203 | 31 | 303 | 3.2 | 14.5 | 0.00 | 0.00 | 0.00 | 55 | 1018.9 |
| 20260905160003 | 31 | 309 | 1.6 | 8.0 | 0.00 | 0.00 | 0.00 | 55 | 1018.9 |
| 20260905155903 | 31 | 307 | 1.6 | 8.0 | 0.00 | 0.00 | 0.00 | 55 | 1018.9 |
| 20260905155803 | 31 | 304 | 1.6 | 8.0 | 0.00 | 0.00 | 0.00 | 54 | 1018.8 |
| 20260905155703 | 31 | 297 | 1.6 | 8.0 | 0.00 | 0.00 | 0.00 | 54 | 1018.7 |
| 20260905155603 | 31 | 296 | 1.6 | 8.0 | 0.00 | 0.00 | 0.00 | 54 | 1018.8 |
| 20260905155503 | 31 | 296 | 1.6 | 8.0 | 0.00 | 0.00 | 0.00 | 54 | 1018.8 |
| 20260905155403 | 31 | 292 | 1.6 | 9.7 | 0.00 | 0.00 | 0.00 | 53 | 1018.8 |
| 20260905155306 | 31 | 295 | 1.6 | 9.7 | 0.00 | 0.00 | 0.00 | 53 | 1018.8 |
| 20260905155203 | 31 | 298 | 1.6 | 11.3 | 0.00 | 0.00 | 0.00 | 53 | 1018.9 |
| 20260905155103 | 31 | 298 | 1.6 | 11.3 | 0.00 | 0.00 | 0.00 | 53 | 1018.8 |
| 20260905155003 | 31 | 298 | 3.2 | 11.3 | 0.00 | 0.00 | 0.00 | 53 | 1018.8 |
| 20260905154903 | 31 | 299 | 3.2 | 11.3 | 0.00 | 0.00 | 0.00 | 53 | 1018.8 |
| 20260905154803 | 31 | 298 | 3.2 | 11.3 | 0.00 | 0.00 | 0.00 | 53 | 1018.9 |
| 20260905154703 | 31 | 297 | 3.2 | 11.3 | 0.00 | 0.00 | 0.00 | 52 | 1018.8 |
| 20260905154603 | 31 | 298 | 3.2 | 11.3 | 0.00 | 0.00 | 0.00 | 52 | 1018.8 |
| 20260905154503 | 31 | 298 | 3.2 | 11.3 | 0.00 | 0.00 | 0.00 | 52 | 1018.8 |
| 20260905154403 | 31 | 298 | 3.2 | 11.3 | 0.00 | 0.00 | 0.00 | 52 | 1018.8 |
| 20260905154303 | 31 | 297 | 1.6 | 11.3 | 0.00 | 0.00 | 0.00 | 52 | 1018.7 |
| 20260905154203 | 31 | 297 | 1.6 | 11.3 | 0.00 | 0.00 | 0.00 | 51 | 1018.7 |
| 20260905154103 | 31 | 298 | 1.6 | 11.3 | 0.00 | 0.00 | 0.00 | 51 | 1018.7 |
| 20260905154003 | 31 | 298 | 1.6 | 11.3 | 0.00 | 0.00 | 0.00 | 52 | 1018.7 |
| 20260905153903 | 31 | 298 | 1.6 | 9.7 | 0.00 | 0.00 | 0.00 | 52 | 1018.8 |
| 20260905153803 | 31 | 304 | 0.0 | 8.0 | 0.00 | 0.00 | 0.00 | 52 | 1018.7 |
| 20260905153703 | 31 | 304 | 0.0 | 8.0 | 0.00 | 0.00 | 0.00 | 52 | 1018.7 |
| 20260905153604 | 31 | 304 | 0.0 | 8.0 | 0.00 | 0.00 | 0.00 | 51 | 1018.7 |
| 20260905153504 | 31 | 308 | 1.6 | 9.7 | 0.00 | 0.00 | 0.00 | 51 | 1018.8 |
| 20260905153404 | 31 | 305 | 1.6 | 9.7 | 0.00 | 0.00 | 0.00 | 50 | 1018.8 |
| 20260905153304 | 31 | 305 | 1.6 | 9.7 | 0.00 | 0.00 | 0.00 | 50 | 1018.7 |
| 20260905153204 | 31 | 304 | 3.2 | 12.9 | 0.00 | 0.00 | 0.00 | 50 | 1018.7 |
| 20260905153104 | 31 | 305 | 1.6 | 12.9 | 0.00 | 0.00 | 0.00 | 50 | 1018.8 |
| 20260905153004 | 31 | 305 | 1.6 | 12.9 | 0.00 | 0.00 | 0.00 | 50 | 1018.7 |
| 20260905152904 | 32 | 304 | 1.6 | 12.9 | 0.00 | 0.00 | 0.00 | 49 | 1018.7 |
| 20260905152804 | 32 | 305 | 1.6 | 12.9 | 0.00 | 0.00 | 0.00 | 49 | 1018.7 |
| 20260905152704 | 32 | 305 | 1.6 | 12.9 | 0.00 | 0.00 | 0.00 | 49 | 1018.6 |
| 20260905152604 | 32 | 306 | 1.6 | 12.9 | 0.00 | 0.00 | 0.00 | 49 | 1018.6 |
| 20260905152504 | 32 | 306 | 1.6 | 12.9 | 0.00 | 0.00 | 0.00 | 48 | 1018.7 |
| 20260905152404 | 32 | 306 | 1.6 | 12.9 | 0.00 | 0.00 | 0.00 | 48 | 1018.7 |
| 20260905152306 | 32 | 309 | 1.6 | 12.9 | 0.00 | 0.00 | 0.00 | 48 | 1018.6 |
| 20260905152204 | 32 | 310 | 1.6 | 9.7 | 0.00 | 0.00 | 0.00 | 47 | 1018.7 |
| 20260905152104 | 32 | 309 | 1.6 | 9.7 | 0.00 | 0.00 | 0.00 | 47 | 1018.6 |
| 20260905152004 | 32 | 311 | 1.6 | 9.7 | 0.00 | 0.00 | 0.00 | 47 | 1018.6 |
| 20260905151904 | 32 | 311 | 1.6 | 9.7 | 0.00 | 0.00 | 0.00 | 47 | 1018.6 |
| 20260905151804 | 32 | 314 | 1.6 | 9.7 | 0.00 | 0.00 | 0.00 | 47 | 1018.6 |
| 20260905151704 | 32 | 306 | 1.6 | 14.5 | 0.00 | 0.00 | 0.00 | 46 | 1018.6 |
| 20260905151604 | 32 | 303 | 3.2 | 14.5 | 0.00 | 0.00 | 0.00 | 46 | 1018.7 |
| 20260905151504 | 32 | 301 | 3.2 | 14.5 | 0.00 | 0.00 | 0.00 | 46 | 1018.7 |
| 20260905151404 | 32 | 301 | 1.6 | 14.5 | 0.00 | 0.00 | 0.00 | 46 | 1018.7 |
| 20260905151304 | 32 | 300 | 1.6 | 14.5 | 0.00 | 0.00 | 0.00 | 46 | 1018.7 |
| 20260905151204 | 32 | 301 | 1.6 | 14.5 | 0.00 | 0.00 | 0.00 | 46 | 1018.6 |
| 20260905151104 | 32 | 301 | 1.6 | 14.5 | 0.00 | 0.00 | 0.00 | 45 | 1018.6 |
| 20260905151004 | 32 | 301 | 1.6 | 14.5 | 0.00 | 0.00 | 0.00 | 45 | 1018.6 |
| 20260905150904 | 32 | 301 | 1.6 | 14.5 | 0.00 | 0.00 | 0.00 | 45 | 1018.6 |
| 20260905150804 | 32 | 299 | 1.6 | 14.5 | 0.00 | 0.00 | 0.00 | 45 | 1018.6 |
| 20260905150704 | 32 | 298 | 1.6 | 12.9 | 0.00 | 0.00 | 0.00 | 46 | 1018.6 |
| 20260905150604 | 32 | 301 | 0.0 | 6.4 | 0.00 | 0.00 | 0.00 | 46 | 1018.6 |
| 20260905150504 | 32 | 301 | 0.0 | 6.4 | 0.00 | 0.00 | 0.00 | 46 | 1018.6 |
| 20260905150404 | 32 | 298 | 0.0 | 6.4 | 0.00 | 0.00 | 0.00 | 47 | 1018.6 |
| 20260905150304 | 32 | 294 | 0.0 | 4.8 | 0.00 | 0.00 | 0.00 | 48 | 1018.5 |
| 20260905150204 | 32 | 236 | 0.0 | 3.2 | 0.00 | 0.00 | 0.00 | 47 | 1018.5 |
| 20260905150104 | 32 | 225 | 0.0 | 3.2 | 0.00 | 0.00 | 0.00 | 47 | 1018.4 |
| 20260905150004 | 32 | 143 | 0.0 | 3.2 | 0.00 | 0.00 | 0.00 | 47 | 1018.5 |
| 20260905145904 | 32 | 138 | 0.0 | 4.8 | 0.00 | 0.00 | 0.00 | 46 | 1018.5 |
| 20260905145804 | 32 | 131 | 0.0 | 4.8 | 0.00 | 0.00 | 0.00 | 46 | 1018.6 |
| 20260905145704 | 32 | 131 | 0.0 | 4.8 | 0.00 | 0.00 | 0.00 | 46 | 1018.5 |
| 20260905145604 | 32 | 129 | 0.0 | 4.8 | 0.00 | 0.00 | 0.00 | 48 | 1018.5 |
| 20260905145504 | 32 | 132 | 0.0 | 4.8 | 0.00 | 0.00 | 0.00 | 49 | 1018.5 |
| 20260905145404 | 32 | 132 | 0.0 | 4.8 | 0.00 | 0.00 | 0.00 | 50 | 1018.4 |
| 20260905145306 | 32 | 115 | 1.6 | 8.0 | 0.00 | 0.00 | 0.00 | 50 | 1018.6 |
| 20260905145204 | 32 | 115 | 1.6 | 8.0 | 0.00 | 0.00 | 0.00 | 50 | 1018.6 |
| 20260905145104 | 32 | 118 | 1.6 | 8.0 | 0.00 | 0.00 | 0.00 | 49 | 1018.6 |
| 20260905145004 | 32 | 114 | 1.6 | 8.0 | 0.00 | 0.00 | 0.00 | 47 | 1018.6 |
| 20260905144904 | 32 | 110 | 1.6 | 8.0 | 0.00 | 0.00 | 0.00 | 46 | 1018.7 |
| 20260905144804 | 32 | 114 | 1.6 | 8.0 | 0.00 | 0.00 | 0.00 | 47 | 1018.7 |
| 20260905144704 | 32 | 114 | 1.6 | 8.0 | 0.00 | 0.00 | 0.00 | 48 | 1018.7 |
| 20260905144604 | 32 | 114 | 1.6 | 8.0 | 0.00 | 0.00 | 0.00 | 49 | 1018.6 |
| 20260905144503 | 32 | 113 | 1.6 | 8.0 | 0.00 | 0.00 | 0.00 | 49 | 1018.6 |
| 20260905144404 | 32 | 113 | 1.6 | 8.0 | 0.00 | 0.00 | 0.00 | 49 | 1018.5 |
| 20260905144304 | 32 | 118 | 0.0 | 8.0 | 0.00 | 0.00 | 0.00 | 48 | 1018.5 |
| 20260905144204 | 32 | 121 | 0.0 | 8.0 | 0.00 | 0.00 | 0.00 | 48 | 1018.6 |
| 20260905144104 | 32 | 100 | 0.0 | 3.2 | 0.00 | 0.00 | 0.00 | 47 | 1018.6 |
| 20260905144004 | 32 | 104 | 0.0 | 4.8 | 0.00 | 0.00 | 0.00 | 48 | 1018.6 |
| 20260905143904 | 32 | 107 | 0.0 | 4.8 | 0.00 | 0.00 | 0.00 | 48 | 1018.6 |
| 20260905143803 | 32 | 104 | 0.0 | 4.8 | 0.00 | 0.00 | 0.00 | 47 | 1018.6 |
| 20260905143704 | 32 | 103 | 0.0 | 4.8 | 0.00 | 0.00 | 0.00 | 47 | 1018.6 |
| 20260905143603 | 32 | 87 | 0.0 | 8.0 | 0.00 | 0.00 | 0.00 | 46 | 1018.6 |
| 20260905143504 | 32 | 336 | 1.6 | 12.9 | 0.00 | 0.00 | 0.00 | 46 | 1018.6 |
| 20260905143404 | 32 | 325 | 1.6 | 12.9 | 0.00 | 0.00 | 0.00 | 46 | 1018.5 |
| 20260905143303 | 32 | 329 | 1.6 | 12.9 | 0.00 | 0.00 | 0.00 | 46 | 1018.5 |
| 20260905143204 | 32 | 333 | 1.6 | 12.9 | 0.00 | 0.00 | 0.00 | 46 | 1018.5 |
| 20260905143104 | 32 | 325 | 1.6 | 12.9 | 0.00 | 0.00 | 0.00 | 47 | 1018.6 |
| 20260905143003 | 32 | 314 | 1.6 | 12.9 | 0.00 | 0.00 | 0.00 | 46 | 1018.6 |
| 20260905142903 | 32 | 308 | 3.2 | 14.5 | 0.00 | 0.00 | 0.00 | 46 | 1018.6 |
| 20260905142803 | 32 | 307 | 3.2 | 14.5 | 0.00 | 0.00 | 0.00 | 45 | 1018.6 |
| 20260905142703 | 32 | 308 | 3.2 | 14.5 | 0.00 | 0.00 | 0.00 | 45 | 1018.6 |
| 20260905142603 | 32 | 305 | 3.2 | 14.5 | 0.00 | 0.00 | 0.00 | 45 | 1018.6 |
| 20260905142503 | 32 | 303 | 3.2 | 14.5 | 0.00 | 0.00 | 0.00 | 46 | 1018.7 |
| 20260905142403 | 32 | 300 | 3.2 | 14.5 | 0.00 | 0.00 | 0.00 | 45 | 1018.6 |
| 20260905142306 | 32 | 299 | 3.2 | 14.5 | 0.00 | 0.00 | 0.00 | 45 | 1018.6 |
| 20260905142203 | 32 | 299 | 4.8 | 14.5 | 0.00 | 0.00 | 0.00 | 45 | 1018.7 |
| 20260905142103 | 32 | 298 | 4.8 | 14.5 | 0.00 | 0.00 | 0.00 | 45 | 1018.6 |
| 20260905142003 | 32 | 297 | 4.8 | 14.5 | 0.00 | 0.00 | 0.00 | 46 | 1018.6 |
| 20260905141903 | 32 | 296 | 4.8 | 14.5 | 0.00 | 0.00 | 0.00 | 46 | 1018.6 |
| 20260905141803 | 32 | 296 | 4.8 | 14.5 | 0.00 | 0.00 | 0.00 | 46 | 1018.6 |
| 20260905141703 | 32 | 295 | 6.4 | 14.5 | 0.00 | 0.00 | 0.00 | 46 | 1018.6 |
| 20260905141603 | 32 | 295 | 6.4 | 16.1 | 0.00 | 0.00 | 0.00 | 46 | 1018.7 |
| 20260905141503 | 32 | 296 | 6.4 | 16.1 | 0.00 | 0.00 | 0.00 | 46 | 1018.7 |
| 20260905141403 | 32 | 296 | 6.4 | 16.1 | 0.00 | 0.00 | 0.00 | 46 | 1018.8 |
| 20260905141303 | 32 | 296 | 6.4 | 16.1 | 0.00 | 0.00 | 0.00 | 46 | 1018.7 |
| 20260905141203 | 32 | 296 | 6.4 | 17.7 | 0.00 | 0.00 | 0.00 | 46 | 1018.8 |
| 20260905141103 | 32 | 297 | 6.4 | 17.7 | 0.00 | 0.00 | 0.00 | 46 | 1018.7 |
| 20260905141003 | 32 | 298 | 6.4 | 17.7 | 0.00 | 0.00 | 0.00 | 46 | 1018.9 |
| 20260905140903 | 32 | 298 | 6.4 | 17.7 | 0.00 | 0.00 | 0.00 | 46 | 1018.7 |
| 20260905140803 | 32 | 299 | 6.4 | 17.7 | 0.00 | 0.00 | 0.00 | 46 | 1018.7 |
| 20260905140703 | 32 | 301 | 4.8 | 17.7 | 0.00 | 0.00 | 0.00 | 46 | 1018.6 |
| 20260905140603 | 32 | 300 | 4.8 | 17.7 | 0.00 | 0.00 | 0.00 | 46 | 1018.7 |
| 20260905140503 | 32 | 301 | 6.4 | 17.7 | 0.00 | 0.00 | 0.00 | 46 | 1018.8 |
| 20260905140403 | 32 | 302 | 4.8 | 17.7 | 0.00 | 0.00 | 0.00 | 46 | 1018.7 |
| 20260905140303 | 32 | 303 | 6.4 | 17.7 | 0.00 | 0.00 | 0.00 | 46 | 1018.7 |
| 20260905140203 | 32 | 305 | 4.8 | 16.1 | 0.00 | 0.00 | 0.00 | 46 | 1018.6 |
| 20260905140103 | 32 | 303 | 4.8 | 16.1 | 0.00 | 0.00 | 0.00 | 45 | 1018.7 |
| 20260905140004 | 32 | 303 | 4.8 | 16.1 | 0.00 | 0.00 | 0.00 | 46 | 1018.8 |
| 20260905135903 | 32 | 305 | 4.8 | 16.1 | 0.00 | 0.00 | 0.00 | 46 | 1018.7 |
| 20260905135803 | 32 | 305 | 4.8 | 16.1 | 0.00 | 0.00 | 0.00 | 45 | 1018.8 |
| 20260905135703 | 32 | 305 | 4.8 | 16.1 | 0.00 | 0.00 | 0.00 | 45 | 1018.9 |
| 20260905135603 | 32 | 303 | 4.8 | 17.7 | 0.00 | 0.00 | 0.00 | 45 | 1018.9 |
| 20260905135503 | 32 | 303 | 4.8 | 17.7 | 0.00 | 0.00 | 0.00 | 45 | 1018.8 |
| 20260905135403 | 32 | 303 | 6.4 | 17.7 | 0.00 | 0.00 | 0.00 | 45 | 1018.8 |
| 20260905135306 | 32 | 301 | 6.4 | 17.7 | 0.00 | 0.00 | 0.00 | 44 | 1018.7 |
| 20260905135203 | 32 | 302 | 6.4 | 17.7 | 0.00 | 0.00 | 0.00 | 44 | 1018.6 |
| 20260905135103 | 32 | 302 | 6.4 | 17.7 | 0.00 | 0.00 | 0.00 | 44 | 1018.6 |
| 20260905135003 | 32 | 301 | 6.4 | 17.7 | 0.00 | 0.00 | 0.00 | 44 | 1018.6 |
| 20260905134903 | 32 | 302 | 6.4 | 17.7 | 0.00 | 0.00 | 0.00 | 43 | 1018.7 |
| 20260905134803 | 32 | 302 | 6.4 | 17.7 | 0.00 | 0.00 | 0.00 | 43 | 1018.7 |
| 20260905134703 | 32 | 301 | 6.4 | 17.7 | 0.00 | 0.00 | 0.00 | 43 | 1018.7 |
| 20260905134603 | 32 | 301 | 6.4 | 17.7 | 0.00 | 0.00 | 0.00 | 42 | 1018.8 |
| 20260905134503 | 33 | 300 | 4.8 | 17.7 | 0.00 | 0.00 | 0.00 | 41 | 1018.8 |
| 20260905134403 | 33 | 299 | 6.4 | 20.9 | 0.00 | 0.00 | 0.00 | 40 | 1018.8 |
| 20260905134303 | 32 | 299 | 6.4 | 20.9 | 0.00 | 0.00 | 0.00 | 40 | 1018.8 |
| 20260905134203 | 32 | 299 | 6.4 | 20.9 | 0.00 | 0.00 | 0.00 | 40 | 1018.9 |
| 20260905134103 | 33 | 299 | 6.4 | 22.5 | 0.00 | 0.00 | 0.00 | 39 | 1018.9 |
| 20260905134003 | 32 | 300 | 6.4 | 22.5 | 0.00 | 0.00 | 0.00 | 39 | 1018.8 |
| 20260905133903 | 32 | 300 | 6.4 | 22.5 | 0.00 | 0.00 | 0.00 | 38 | 1018.7 |
| 20260905133803 | 32 | 298 | 8.0 | 22.5 | 0.00 | 0.00 | 0.00 | 38 | 1018.7 |
| 20260905133703 | 32 | 299 | 8.0 | 22.5 | 0.00 | 0.00 | 0.00 | 37 | 1018.7 |
| 20260905133603 | 32 | 301 | 8.0 | 22.5 | 0.00 | 0.00 | 0.00 | 38 | 1018.9 |
| 20260905133503 | 32 | 301 | 8.0 | 22.5 | 0.00 | 0.00 | 0.00 | 39 | 1018.8 |
| 20260905133403 | 32 | 301 | 6.4 | 22.5 | 0.00 | 0.00 | 0.00 | 39 | 1018.8 |
| 20260905133303 | 32 | 303 | 6.4 | 22.5 | 0.00 | 0.00 | 0.00 | 39 | 1018.9 |
| 20260905133203 | 32 | 302 | 6.4 | 22.5 | 0.00 | 0.00 | 0.00 | 39 | 1018.9 |
| 20260905133103 | 32 | 298 | 6.4 | 19.3 | 0.00 | 0.00 | 0.00 | 38 | 1018.9 |
| 20260905133003 | 33 | 299 | 6.4 | 19.3 | 0.00 | 0.00 | 0.00 | 38 | 1018.9 |
| 20260905132903 | 33 | 301 | 4.8 | 19.3 | 0.00 | 0.00 | 0.00 | 39 | 1018.9 |
| 20260905132803 | 33 | 302 | 4.8 | 19.3 | 0.00 | 0.00 | 0.00 | 39 | 1018.9 |
| 20260905132703 | 33 | 302 | 4.8 | 14.5 | 0.00 | 0.00 | 0.00 | 39 | 1018.9 |
| 20260905132603 | 33 | 297 | 4.8 | 14.5 | 0.00 | 0.00 | 0.00 | 40 | 1018.9 |
| 20260905132503 | 33 | 297 | 4.8 | 14.5 | 0.00 | 0.00 | 0.00 | 39 | 1018.9 |
| 20260905132403 | 33 | 299 | 4.8 | 14.5 | 0.00 | 0.00 | 0.00 | 39 | 1018.9 |
| 20260905132305 | 33 | 298 | 6.4 | 14.5 | 0.00 | 0.00 | 0.00 | 39 | 1018.9 |
| 20260905132203 | 33 | 299 | 6.4 | 14.5 | 0.00 | 0.00 | 0.00 | 39 | 1018.9 |
| 20260905132103 | 33 | 303 | 4.8 | 14.5 | 0.00 | 0.00 | 0.00 | 39 | 1018.9 |
| 20260905132003 | 33 | 302 | 4.8 | 14.5 | 0.00 | 0.00 | 0.00 | 39 | 1018.9 |
| 20260905131903 | 33 | 299 | 4.8 | 14.5 | 0.00 | 0.00 | 0.00 | 39 | 1018.9 |
| 20260905131803 | 33 | 300 | 3.2 | 14.5 | 0.00 | 0.00 | 0.00 | 39 | 1018.9 |
| 20260905131703 | 33 | 300 | 3.2 | 14.5 | 0.00 | 0.00 | 0.00 | 39 | 1018.8 |
| 20260905131603 | 33 | 303 | 3.2 | 14.5 | 0.00 | 0.00 | 0.00 | 39 | 1018.8 |
| 20260905131503 | 33 | 305 | 3.2 | 14.5 | 0.00 | 0.00 | 0.00 | 39 | 1018.8 |
| 20260905131403 | 33 | 302 | 1.6 | 14.5 | 0.00 | 0.00 | 0.00 | 40 | 1018.8 |
| 20260905131303 | 33 | 305 | 1.6 | 14.5 | 0.00 | 0.00 | 0.00 | 40 | 1018.8 |
| 20260905131203 | 33 | 303 | 1.6 | 14.5 | 0.00 | 0.00 | 0.00 | 40 | 1018.7 |
| 20260905131103 | 33 | 297 | 1.6 | 14.5 | 0.00 | 0.00 | 0.00 | 41 | 1018.8 |
| 20260905131003 | 33 | 299 | 1.6 | 14.5 | 0.00 | 0.00 | 0.00 | 41 | 1018.9 |
| 20260905130903 | 33 | 297 | 1.6 | 14.5 | 0.00 | 0.00 | 0.00 | 41 | 1018.9 |
| 20260905130804 | 33 | 296 | 3.2 | 14.5 | 0.00 | 0.00 | 0.00 | 41 | 1018.9 |
| 20260905130704 | 33 | 295 | 3.2 | 14.5 | 0.00 | 0.00 | 0.00 | 41 | 1018.9 |
| 20260905130604 | 33 | 296 | 3.2 | 14.5 | 0.00 | 0.00 | 0.00 | 41 | 1018.9 |
| 20260905130504 | 33 | 296 | 3.2 | 14.5 | 0.00 | 0.00 | 0.00 | 41 | 1018.9 |
| 20260905130404 | 33 | 297 | 3.2 | 14.5 | 0.00 | 0.00 | 0.00 | 41 | 1018.9 |
| 20260905130304 | 33 | 295 | 3.2 | 11.3 | 0.00 | 0.00 | 0.00 | 41 | 1018.9 |
| 20260905130204 | 33 | 293 | 3.2 | 11.3 | 0.00 | 0.00 | 0.00 | 41 | 1018.9 |
| 20260905130104 | 33 | 292 | 3.2 | 11.3 | 0.00 | 0.00 | 0.00 | 40 | 1019.0 |
| 20260905130004 | 33 | 293 | 3.2 | 11.3 | 0.00 | 0.00 | 0.00 | 40 | 1019.0 |
| 20260905125904 | 33 | 295 | 3.2 | 14.5 | 0.00 | 0.00 | 0.00 | 40 | 1018.9 |
| 20260905125804 | 33 | 297 | 1.6 | 14.5 | 0.00 | 0.00 | 0.00 | 40 | 1019.0 |
| 20260905125704 | 33 | 299 | 1.6 | 14.5 | 0.00 | 0.00 | 0.00 | 40 | 1019.0 |
| 20260905125604 | 33 | 303 | 1.6 | 14.5 | 0.00 | 0.00 | 0.00 | 39 | 1019.0 |
| 20260905125504 | 33 | 301 | 1.6 | 14.5 | 0.00 | 0.00 | 0.00 | 39 | 1019.0 |
| 20260905125404 | 33 | 301 | 1.6 | 14.5 | 0.00 | 0.00 | 0.00 | 39 | 1019.0 |
| 20260905125306 | 33 | 306 | 1.6 | 14.5 | 0.00 | 0.00 | 0.00 | 39 | 1019.1 |
| 20260905125204 | 33 | 307 | 1.6 | 14.5 | 0.00 | 0.00 | 0.00 | 39 | 1019.1 |
| 20260905125104 | 33 | 303 | 3.2 | 14.5 | 0.00 | 0.00 | 0.00 | 39 | 1019.1 |
| 20260905125004 | 33 | 302 | 3.2 | 14.5 | 0.00 | 0.00 | 0.00 | 38 | 1019.2 |
| 20260905124904 | 33 | 302 | 3.2 | 12.9 | 0.00 | 0.00 | 0.00 | 38 | 1019.1 |
| 20260905124804 | 33 | 302 | 3.2 | 12.9 | 0.00 | 0.00 | 0.00 | 38 | 1019.0 |
| 20260905124704 | 33 | 300 | 3.2 | 12.9 | 0.00 | 0.00 | 0.00 | 38 | 1019.0 |
| 20260905124604 | 33 | 297 | 1.6 | 12.9 | 0.00 | 0.00 | 0.00 | 38 | 1019.0 |
| 20260905124504 | 33 | 300 | 1.6 | 12.9 | 0.00 | 0.00 | 0.00 | 38 | 1019.0 |
| 20260905124404 | 33 | 299 | 3.2 | 12.9 | 0.00 | 0.00 | 0.00 | 38 | 1019.0 |
| 20260905124304 | 33 | 296 | 3.2 | 12.9 | 0.00 | 0.00 | 0.00 | 38 | 1019.0 |
| 20260905124204 | 33 | 296 | 3.2 | 11.3 | 0.00 | 0.00 | 0.00 | 38 | 1019.1 |
| 20260905124104 | 33 | 299 | 3.2 | 9.7 | 0.00 | 0.00 | 0.00 | 38 | 1019.0 |
| 20260905124004 | 33 | 299 | 1.6 | 9.7 | 0.00 | 0.00 | 0.00 | 39 | 1019.1 |
| 20260905123904 | 33 | 301 | 1.6 | 9.7 | 0.00 | 0.00 | 0.00 | 39 | 1019.1 |
| 20260905123804 | 33 | 300 | 3.2 | 11.3 | 0.00 | 0.00 | 0.00 | 39 | 1019.1 |
| 20260905123704 | 33 | 300 | 3.2 | 11.3 | 0.00 | 0.00 | 0.00 | 39 | 1019.2 |
| 20260905123604 | 33 | 301 | 3.2 | 11.3 | 0.00 | 0.00 | 0.00 | 38 | 1019.2 |
| 20260905123504 | 33 | 301 | 3.2 | 11.3 | 0.00 | 0.00 | 0.00 | 38 | 1019.3 |
| 20260905123404 | 33 | 301 | 3.2 | 11.3 | 0.00 | 0.00 | 0.00 | 38 | 1019.2 |
| 20260905123304 | 33 | 304 | 1.6 | 11.3 | 0.00 | 0.00 | 0.00 | 38 | 1019.2 |
| 20260905123204 | 33 | 305 | 1.6 | 11.3 | 0.00 | 0.00 | 0.00 | 39 | 1019.2 |
| 20260905123104 | 33 | 309 | 1.6 | 11.3 | 0.00 | 0.00 | 0.00 | 39 | 1019.2 |
| 20260905123004 | 33 | 309 | 1.6 | 11.3 | 0.00 | 0.00 | 0.00 | 39 | 1019.2 |
| 20260905122904 | 32 | 311 | 1.6 | 11.3 | 0.00 | 0.00 | 0.00 | 39 | 1019.2 |
| 20260905122804 | 32 | 310 | 1.6 | 11.3 | 0.00 | 0.00 | 0.00 | 39 | 1019.2 |
| 20260905122704 | 32 | 308 | 1.6 | 11.3 | 0.00 | 0.00 | 0.00 | 39 | 1019.1 |
| 20260905122603 | 32 | 308 | 1.6 | 11.3 | 0.00 | 0.00 | 0.00 | 38 | 1019.1 |
| 20260905122504 | 32 | 307 | 1.6 | 11.3 | 0.00 | 0.00 | 0.00 | 38 | 1019.1 |
| 20260905122404 | 32 | 309 | 1.6 | 11.3 | 0.00 | 0.00 | 0.00 | 38 | 1019.1 |
| 20260905122306 | 32 | 310 | 1.6 | 11.3 | 0.00 | 0.00 | 0.00 | 38 | 1019.0 |
| 20260905122203 | 32 | 312 | 1.6 | 11.3 | 0.00 | 0.00 | 0.00 | 38 | 1019.1 |
| 20260905122103 | 32 | 306 | 1.6 | 11.3 | 0.00 | 0.00 | 0.00 | 38 | 1019.1 |
| 20260905122004 | 32 | 303 | 1.6 | 12.9 | 0.00 | 0.00 | 0.00 | 38 | 1019.1 |
| 20260905121903 | 32 | 299 | 3.2 | 16.1 | 0.00 | 0.00 | 0.00 | 38 | 1019.1 |
| 20260905121804 | 32 | 301 | 3.2 | 16.1 | 0.00 | 0.00 | 0.00 | 39 | 1019.3 |
| 20260905121703 | 32 | 300 | 3.2 | 16.1 | 0.00 | 0.00 | 0.00 | 40 | 1019.1 |
| 20260905121603 | 32 | 299 | 3.2 | 16.1 | 0.00 | 0.00 | 0.00 | 40 | 1019.2 |
| 20260905121504 | 32 | 299 | 3.2 | 16.1 | 0.00 | 0.00 | 0.00 | 39 | 1019.2 |
| 20260905121403 | 32 | 294 | 3.2 | 16.1 | 0.00 | 0.00 | 0.00 | 37 | 1019.2 |
| 20260905121303 | 32 | 295 | 4.8 | 17.7 | 0.00 | 0.00 | 0.00 | 35 | 1019.3 |
| 20260905121204 | 32 | 295 | 4.8 | 17.7 | 0.00 | 0.00 | 0.00 | 35 | 1019.3 |
| 20260905121103 | 32 | 297 | 4.8 | 17.7 | 0.00 | 0.00 | 0.00 | 35 | 1019.4 |
| 20260905121004 | 32 | 296 | 4.8 | 17.7 | 0.00 | 0.00 | 0.00 | 35 | 1019.3 |
| 20260905120904 | 32 | 296 | 3.2 | 17.7 | 0.00 | 0.00 | 0.00 | 36 | 1019.3 |
| 20260905120804 | 32 | 296 | 3.2 | 17.7 | 0.00 | 0.00 | 0.00 | 36 | 1019.3 |
| 20260905120704 | 32 | 299 | 3.2 | 17.7 | 0.00 | 0.00 | 0.00 | 36 | 1019.3 |
| 20260905120604 | 32 | 299 | 3.2 | 17.7 | 0.00 | 0.00 | 0.00 | 36 | 1019.2 |
| 20260905120503 | 32 | 299 | 3.2 | 17.7 | 0.00 | 0.00 | 0.00 | 36 | 1019.3 |
| 20260905120403 | 32 | 307 | 1.6 | 17.7 | 0.00 | 0.00 | 0.00 | 38 | 1019.3 |
| 20260905120304 | 32 | 314 | 1.6 | 6.4 | 0.00 | 0.00 | 0.00 | 38 | 1019.4 |
| 20260905120203 | 32 | 323 | 1.6 | 6.4 | 0.00 | 0.00 | 0.00 | 38 | 1019.4 |
| 20260905120104 | 32 | 311 | 1.6 | 9.7 | 0.00 | 0.00 | 0.00 | 37 | 1019.4 |
| 20260905120004 | 32 | 310 | 1.6 | 9.7 | 0.00 | 0.00 | 0.00 | 37 | 1019.4 |
| 20260905115903 | 32 | 300 | 1.6 | 17.7 | 0.00 | 0.00 | 0.00 | 37 | 1019.5 |
| 20260905115803 | 32 | 305 | 1.6 | 20.9 | 0.00 | 0.00 | 0.00 | 39 | 1019.4 |
| 20260905115703 | 32 | 301 | 3.2 | 20.9 | 0.00 | 0.00 | 0.00 | 39 | 1019.5 |
| 20260905115604 | 32 | 300 | 3.2 | 20.9 | 0.00 | 0.00 | 0.00 | 38 | 1019.4 |
| 20260905115503 | 32 | 300 | 3.2 | 20.9 | 0.00 | 0.00 | 0.00 | 37 | 1019.3 |
| 20260905115404 | 32 | 299 | 3.2 | 20.9 | 0.00 | 0.00 | 0.00 | 37 | 1019.3 |
| 20260905115306 | 32 | 301 | 4.8 | 20.9 | 0.00 | 0.00 | 0.00 | 37 | 1019.3 |
| 20260905115203 | 32 | 301 | 4.8 | 20.9 | 0.00 | 0.00 | 0.00 | 36 | 1019.4 |
| 20260905115103 | 32 | 302 | 4.8 | 20.9 | 0.00 | 0.00 | 0.00 | 35 | 1019.3 |
| 20260905115003 | 32 | 303 | 6.4 | 20.9 | 0.00 | 0.00 | 0.00 | 35 | 1019.3 |
| 20260905114903 | 32 | 304 | 6.4 | 20.9 | 0.00 | 0.00 | 0.00 | 37 | 1019.3 |
| 20260905114803 | 32 | 304 | 6.4 | 20.9 | 0.00 | 0.00 | 0.00 | 37 | 1019.4 |
| 20260905114703 | 32 | 305 | 6.4 | 20.9 | 0.00 | 0.00 | 0.00 | 39 | 1019.4 |
| 20260905114603 | 32 | 307 | 6.4 | 20.9 | 0.00 | 0.00 | 0.00 | 39 | 1019.4 |
| 20260905114504 | 32 | 306 | 6.4 | 20.9 | 0.00 | 0.00 | 0.00 | 39 | 1019.4 |
| 20260905114403 | 32 | 305 | 6.4 | 20.9 | 0.00 | 0.00 | 0.00 | 39 | 1019.5 |
| 20260905114303 | 32 | 305 | 6.4 | 20.9 | 0.00 | 0.00 | 0.00 | 39 | 1019.6 |
| 20260905114203 | 32 | 306 | 4.8 | 20.9 | 0.00 | 0.00 | 0.00 | 38 | 1019.6 |
| 20260905114103 | 32 | 308 | 4.8 | 20.9 | 0.00 | 0.00 | 0.00 | 37 | 1019.4 |
| 20260905114003 | 32 | 308 | 4.8 | 20.9 | 0.00 | 0.00 | 0.00 | 36 | 1019.5 |
| 20260905113903 | 32 | 303 | 4.8 | 20.9 | 0.00 | 0.00 | 0.00 | 37 | 1019.5 |
| 20260905113803 | 32 | 299 | 3.2 | 16.1 | 0.00 | 0.00 | 0.00 | 40 | 1019.4 |
| 20260905113703 | 32 | 298 | 3.2 | 16.1 | 0.00 | 0.00 | 0.00 | 40 | 1019.4 |
| 20260905113603 | 32 | 300 | 3.2 | 16.1 | 0.00 | 0.00 | 0.00 | 40 | 1019.5 |
| 20260905113503 | 32 | 302 | 3.2 | 16.1 | 0.00 | 0.00 | 0.00 | 42 | 1019.6 |
| 20260905113403 | 32 | 303 | 3.2 | 16.1 | 0.00 | 0.00 | 0.00 | 42 | 1019.5 |
| 20260905113303 | 32 | 304 | 3.2 | 16.1 | 0.00 | 0.00 | 0.00 | 42 | 1019.5 |
| 20260905113203 | 32 | 306 | 3.2 | 16.1 | 0.00 | 0.00 | 0.00 | 42 | 1019.5 |
| 20260905113103 | 32 | 303 | 3.2 | 16.1 | 0.00 | 0.00 | 0.00 | 42 | 1019.5 |
| 20260905113003 | 32 | 304 | 3.2 | 16.1 | 0.00 | 0.00 | 0.00 | 42 | 1019.5 |
| 20260905112903 | 32 | 313 | 3.2 | 16.1 | 0.00 | 0.00 | 0.00 | 42 | 1019.6 |
| 20260905112803 | 32 | 328 | 3.2 | 9.7 | 0.00 | 0.00 | 0.00 | 43 | 1019.6 |
| 20260905112703 | 32 | 322 | 1.6 | 9.7 | 0.00 | 0.00 | 0.00 | 43 | 1019.6 |
| 20260905112603 | 32 | 300 | 3.2 | 9.7 | 0.00 | 0.00 | 0.00 | 44 | 1019.6 |
| 20260905112503 | 32 | 294 | 3.2 | 9.7 | 0.00 | 0.00 | 0.00 | 44 | 1019.6 |
| 20260905112403 | 32 | 292 | 3.2 | 12.9 | 0.00 | 0.00 | 0.00 | 44 | 1019.6 |
| 20260905112305 | 32 | 295 | 3.2 | 12.9 | 0.00 | 0.00 | 0.00 | 45 | 1019.6 |
| 20260905112203 | 32 | 287 | 3.2 | 14.5 | 0.00 | 0.00 | 0.00 | 46 | 1019.6 |
| 20260905112103 | 32 | 292 | 1.6 | 14.5 | 0.00 | 0.00 | 0.00 | 46 | 1019.6 |
| 20260905112003 | 32 | 291 | 1.6 | 14.5 | 0.00 | 0.00 | 0.00 | 46 | 1019.7 |
| 20260905111903 | 32 | 292 | 1.6 | 14.5 | 0.00 | 0.00 | 0.00 | 46 | 1019.7 |
| 20260905111803 | 32 | 290 | 1.6 | 14.5 | 0.00 | 0.00 | 0.00 | 46 | 1019.7 |
| 20260905111703 | 32 | 291 | 1.6 | 14.5 | 0.00 | 0.00 | 0.00 | 46 | 1019.7 |
| 20260905111603 | 32 | 293 | 1.6 | 14.5 | 0.00 | 0.00 | 0.00 | 46 | 1019.7 |
| 20260905111503 | 32 | 294 | 1.6 | 14.5 | 0.00 | 0.00 | 0.00 | 47 | 1019.7 |
| 20260905111403 | 32 | 295 | 1.6 | 14.5 | 0.00 | 0.00 | 0.00 | 49 | 1019.6 |
| 20260905111303 | 32 | 289 | 1.6 | 14.5 | 0.00 | 0.00 | 0.00 | 51 | 1019.6 |
| 20260905111203 | 32 | 238 | 0.0 | 6.4 | 0.00 | 0.00 | 0.00 | 54 | 1019.6 |
| 20260905111103 | 32 | 266 | 1.6 | 6.4 | 0.00 | 0.00 | 0.00 | 54 | 1019.6 |
| 20260905111003 | 32 | 287 | 1.6 | 8.0 | 0.00 | 0.00 | 0.00 | 54 | 1019.5 |
| 20260905110903 | 32 | 292 | 1.6 | 11.3 | 0.00 | 0.00 | 0.00 | 54 | 1019.4 |
| 20260905110803 | 32 | 291 | 1.6 | 11.3 | 0.00 | 0.00 | 0.00 | 53 | 1019.6 |
| 20260905110703 | 32 | 298 | 1.6 | 11.3 | 0.00 | 0.00 | 0.00 | 53 | 1019.5 |
| 20260905110603 | 32 | 300 | 1.6 | 11.3 | 0.00 | 0.00 | 0.00 | 51 | 1019.6 |
| 20260905110503 | 32 | 303 | 1.6 | 11.3 | 0.00 | 0.00 | 0.00 | 49 | 1019.6 |
| 20260905110403 | 32 | 302 | 1.6 | 11.3 | 0.00 | 0.00 | 0.00 | 47 | 1019.6 |
| 20260905110303 | 32 | 304 | 1.6 | 11.3 | 0.00 | 0.00 | 0.00 | 46 | 1019.6 |
| 20260905110203 | 32 | 298 | 3.2 | 11.3 | 0.00 | 0.00 | 0.00 | 45 | 1019.6 |
| 20260905110003 | 32 | 296 | 3.2 | 11.3 | 0.00 | 0.00 | 0.00 | 46 | 1019.6 |
| 20260905105903 | 32 | 289 | 3.2 | 9.7 | 0.00 | 0.00 | 0.00 | 46 | 1019.6 |
| 20260905105803 | 32 | 281 | 1.6 | 9.7 | 0.00 | 0.00 | 0.00 | 48 | 1019.6 |
| 20260905105703 | 32 | 144 | 1.6 | 9.7 | 0.00 | 0.00 | 0.00 | 50 | 1019.6 |
| 20260905105603 | 32 | 133 | 1.6 | 9.7 | 0.00 | 0.00 | 0.00 | 51 | 1019.6 |
| 20260905105503 | 32 | 140 | 1.6 | 9.7 | 0.00 | 0.00 | 0.00 | 51 | 1019.4 |
| 20260905105403 | 32 | 288 | 3.2 | 16.1 | 0.00 | 0.00 | 0.00 | 50 | 1019.3 |
| 20260905105306 | 32 | 297 | 3.2 | 16.1 | 0.00 | 0.00 | 0.00 | 48 | 1019.4 |
| 20260905105203 | 32 | 301 | 4.8 | 16.1 | 0.00 | 0.00 | 0.00 | 47 | 1019.4 |
| 20260905105103 | 32 | 299 | 4.8 | 16.1 | 0.00 | 0.00 | 0.00 | 48 | 1019.3 |
| 20260905105003 | 32 | 299 | 4.8 | 16.1 | 0.00 | 0.00 | 0.00 | 48 | 1019.4 |
| 20260905104903 | 32 | 298 | 6.4 | 16.1 | 0.00 | 0.00 | 0.00 | 48 | 1019.4 |
| 20260905104803 | 32 | 300 | 6.4 | 16.1 | 0.00 | 0.00 | 0.00 | 46 | 1019.2 |
| 20260905104703 | 32 | 299 | 6.4 | 16.1 | 0.00 | 0.00 | 0.00 | 45 | 1019.4 |
| 20260905104603 | 32 | 299 | 6.4 | 16.1 | 0.00 | 0.00 | 0.00 | 45 | 1019.2 |
| 20260905104503 | 32 | 299 | 8.0 | 16.1 | 0.00 | 0.00 | 0.00 | 45 | 1019.3 |
| 20260905104403 | 32 | 299 | 8.0 | 17.7 | 0.00 | 0.00 | 0.00 | 45 | 1019.3 |
| 20260905104303 | 32 | 296 | 8.0 | 17.7 | 0.00 | 0.00 | 0.00 | 44 | 1019.4 |
| 20260905104203 | 32 | 295 | 6.4 | 17.7 | 0.00 | 0.00 | 0.00 | 44 | 1019.3 |
| 20260905104103 | 32 | 295 | 6.4 | 17.7 | 0.00 | 0.00 | 0.00 | 46 | 1019.3 |
| 20260905104003 | 32 | 296 | 6.4 | 17.7 | 0.00 | 0.00 | 0.00 | 46 | 1019.3 |
| 20260905103903 | 32 | 295 | 6.4 | 17.7 | 0.00 | 0.00 | 0.00 | 46 | 1019.3 |
| 20260905103803 | 32 | 292 | 6.4 | 17.7 | 0.00 | 0.00 | 0.00 | 46 | 1019.3 |
| 20260905103703 | 32 | 292 | 8.0 | 17.7 | 0.00 | 0.00 | 0.00 | 46 | 1019.3 |
| 20260905103603 | 32 | 293 | 8.0 | 17.7 | 0.00 | 0.00 | 0.00 | 47 | 1019.5 |
| 20260905103503 | 32 | 291 | 6.4 | 17.7 | 0.00 | 0.00 | 0.00 | 47 | 1019.4 |
| 20260905103403 | 32 | 291 | 6.4 | 17.7 | 0.00 | 0.00 | 0.00 | 47 | 1019.4 |
| 20260905103303 | 32 | 291 | 6.4 | 14.5 | 0.00 | 0.00 | 0.00 | 48 | 1019.4 |
| 20260905103203 | 32 | 293 | 6.4 | 14.5 | 0.00 | 0.00 | 0.00 | 48 | 1019.4 |
| 20260905103103 | 32 | 293 | 6.4 | 14.5 | 0.00 | 0.00 | 0.00 | 47 | 1019.4 |
| 20260905103004 | 32 | 294 | 4.8 | 14.5 | 0.00 | 0.00 | 0.00 | 47 | 1019.6 |
| 20260905102904 | 32 | 298 | 4.8 | 14.5 | 0.00 | 0.00 | 0.00 | 47 | 1019.6 |
| 20260905102804 | 32 | 299 | 4.8 | 14.5 | 0.00 | 0.00 | 0.00 | 47 | 1019.6 |
| 20260905102704 | 32 | 300 | 4.8 | 14.5 | 0.00 | 0.00 | 0.00 | 47 | 1019.6 |
| 20260905102604 | 32 | 298 | 4.8 | 17.7 | 0.00 | 0.00 | 0.00 | 47 | 1019.6 |
| 20260905102504 | 31 | 301 | 6.4 | 17.7 | 0.00 | 0.00 | 0.00 | 48 | 1019.4 |
| 20260905102404 | 32 | 298 | 6.4 | 17.7 | 0.00 | 0.00 | 0.00 | 48 | 1019.5 |
| 20260905102306 | 31 | 297 | 6.4 | 17.7 | 0.00 | 0.00 | 0.00 | 49 | 1019.4 |
| 20260905102204 | 31 | 296 | 4.8 | 17.7 | 0.00 | 0.00 | 0.00 | 49 | 1019.5 |
| 20260905102104 | 31 | 296 | 4.8 | 17.7 | 0.00 | 0.00 | 0.00 | 49 | 1019.5 |
| 20260905102004 | 31 | 295 | 6.4 | 17.7 | 0.00 | 0.00 | 0.00 | 49 | 1019.5 |
| 20260905101904 | 31 | 293 | 6.4 | 17.7 | 0.00 | 0.00 | 0.00 | 49 | 1019.4 |
| 20260905101804 | 31 | 291 | 4.8 | 17.7 | 0.00 | 0.00 | 0.00 | 49 | 1019.5 |
| 20260905101704 | 31 | 291 | 4.8 | 17.7 | 0.00 | 0.00 | 0.00 | 50 | 1019.6 |
| 20260905101604 | 31 | 290 | 4.8 | 17.7 | 0.00 | 0.00 | 0.00 | 50 | 1019.5 |
| 20260905101504 | 31 | 288 | 3.2 | 14.5 | 0.00 | 0.00 | 0.00 | 50 | 1019.5 |
| 20260905101404 | 31 | 291 | 3.2 | 11.3 | 0.00 | 0.00 | 0.00 | 50 | 1019.5 |
| 20260905101304 | 31 | 294 | 3.2 | 14.5 | 0.00 | 0.00 | 0.00 | 50 | 1019.6 |
| 20260905101204 | 31 | 292 | 4.8 | 14.5 | 0.00 | 0.00 | 0.00 | 50 | 1019.5 |
| 20260905101104 | 31 | 292 | 4.8 | 14.5 | 0.00 | 0.00 | 0.00 | 50 | 1019.6 |
| 20260905101004 | 31 | 292 | 3.2 | 14.5 | 0.00 | 0.00 | 0.00 | 51 | 1019.6 |
| 20260905100904 | 31 | 295 | 3.2 | 14.5 | 0.00 | 0.00 | 0.00 | 51 | 1019.5 |
| 20260905100804 | 31 | 296 | 3.2 | 14.5 | 0.00 | 0.00 | 0.00 | 50 | 1019.5 |
| 20260905100704 | 31 | 295 | 4.8 | 14.5 | 0.00 | 0.00 | 0.00 | 51 | 1019.6 |
| 20260905100604 | 31 | 295 | 4.8 | 14.5 | 0.00 | 0.00 | 0.00 | 50 | 1019.6 |
| 20260905100504 | 31 | 295 | 4.8 | 14.5 | 0.00 | 0.00 | 0.00 | 50 | 1019.6 |
| 20260905100404 | 31 | 295 | 3.2 | 14.5 | 0.00 | 0.00 | 0.00 | 50 | 1019.6 |
| 20260905100304 | 31 | 292 | 3.2 | 14.5 | 0.00 | 0.00 | 0.00 | 51 | 1019.6 |
| 20260905100204 | 31 | 297 | 3.2 | 12.9 | 0.00 | 0.00 | 0.00 | 52 | 1019.5 |
| 20260905100104 | 31 | 298 | 3.2 | 12.9 | 0.00 | 0.00 | 0.00 | 53 | 1019.5 |
| 20260905100004 | 31 | 299 | 3.2 | 12.9 | 0.00 | 0.00 | 0.00 | 53 | 1019.5 |
| 20260905095904 | 31 | 297 | 3.2 | 12.9 | 0.00 | 0.00 | 0.00 | 54 | 1019.5 |
| 20260905095804 | 31 | 298 | 3.2 | 12.9 | 0.00 | 0.00 | 0.00 | 54 | 1019.3 |
| 20260905095704 | 31 | 300 | 3.2 | 14.5 | 0.00 | 0.00 | 0.00 | 53 | 1019.4 |
| 20260905095604 | 31 | 301 | 3.2 | 14.5 | 0.00 | 0.00 | 0.00 | 52 | 1019.4 |
| 20260905095504 | 31 | 301 | 4.8 | 14.5 | 0.00 | 0.00 | 0.00 | 51 | 1019.5 |
| 20260905095404 | 31 | 299 | 4.8 | 14.5 | 0.00 | 0.00 | 0.00 | 51 | 1019.5 |
| 20260905095306 | 31 | 300 | 4.8 | 14.5 | 0.00 | 0.00 | 0.00 | 50 | 1019.5 |
| 20260905095204 | 31 | 301 | 4.8 | 14.5 | 0.00 | 0.00 | 0.00 | 49 | 1019.6 |
| 20260905095104 | 31 | 302 | 4.8 | 14.5 | 0.00 | 0.00 | 0.00 | 50 | 1019.6 |
| 20260905095004 | 31 | 303 | 4.8 | 14.5 | 0.00 | 0.00 | 0.00 | 49 | 1019.5 |
| 20260905094903 | 31 | 305 | 3.2 | 14.5 | 0.00 | 0.00 | 0.00 | 50 | 1019.5 |
| 20260905094804 | 31 | 304 | 3.2 | 14.5 | 0.00 | 0.00 | 0.00 | 50 | 1019.6 |
| 20260905094704 | 31 | 304 | 3.2 | 11.3 | 0.00 | 0.00 | 0.00 | 50 | 1019.7 |
| 20260905094603 | 31 | 301 | 3.2 | 11.3 | 0.00 | 0.00 | 0.00 | 50 | 1019.7 |
| 20260905094504 | 31 | 302 | 3.2 | 9.7 | 0.00 | 0.00 | 0.00 | 51 | 1019.6 |
| 20260905094403 | 31 | 311 | 1.6 | 9.7 | 0.00 | 0.00 | 0.00 | 52 | 1019.6 |
| 20260905094303 | 31 | 317 | 3.2 | 9.7 | 0.00 | 0.00 | 0.00 | 54 | 1019.7 |
| 20260905094204 | 31 | 288 | 3.2 | 17.7 | 0.00 | 0.00 | 0.00 | 55 | 1019.6 |
| 20260905094104 | 31 | 286 | 3.2 | 17.7 | 0.00 | 0.00 | 0.00 | 56 | 1019.6 |
| 20260905094005 | 31 | 286 | 3.2 | 17.7 | 0.00 | 0.00 | 0.00 | 56 | 1019.6 |
| 20260905093903 | 31 | 285 | 3.2 | 17.7 | 0.00 | 0.00 | 0.00 | 55 | 1019.5 |
| 20260905093804 | 31 | 285 | 3.2 | 17.7 | 0.00 | 0.00 | 0.00 | 55 | 1019.4 |
| 20260905093704 | 31 | 288 | 3.2 | 17.7 | 0.00 | 0.00 | 0.00 | 58 | 1019.5 |
| 20260905093603 | 31 | 291 | 3.2 | 17.7 | 0.00 | 0.00 | 0.00 | 58 | 1019.4 |
| 20260905093503 | 31 | 291 | 3.2 | 17.7 | 0.00 | 0.00 | 0.00 | 57 | 1019.5 |
| 20260905093404 | 31 | 291 | 3.2 | 17.7 | 0.00 | 0.00 | 0.00 | 57 | 1019.4 |
| 20260905093303 | 31 | 290 | 3.2 | 17.7 | 0.00 | 0.00 | 0.00 | 56 | 1019.5 |
| 20260905093203 | 31 | 296 | 1.6 | 12.9 | 0.00 | 0.00 | 0.00 | 54 | 1019.6 |
| 20260905093104 | 31 | 299 | 1.6 | 11.3 | 0.00 | 0.00 | 0.00 | 54 | 1019.5 |
| 20260905093003 | 31 | 299 | 1.6 | 11.3 | 0.00 | 0.00 | 0.00 | 54 | 1019.4 |
| 20260905092904 | 31 | 300 | 1.6 | 11.3 | 0.00 | 0.00 | 0.00 | 54 | 1019.6 |
| 20260905092803 | 31 | 301 | 1.6 | 11.3 | 0.00 | 0.00 | 0.00 | 54 | 1019.5 |
| 20260905092704 | 31 | 301 | 1.6 | 11.3 | 0.00 | 0.00 | 0.00 | 54 | 1019.5 |
| 20260905092603 | 31 | 292 | 1.6 | 11.3 | 0.00 | 0.00 | 0.00 | 54 | 1019.6 |
| 20260905092503 | 31 | 109 | 1.6 | 9.7 | 0.00 | 0.00 | 0.00 | 56 | 1019.6 |
| 20260905092403 | 31 | 303 | 1.6 | 11.3 | 0.00 | 0.00 | 0.00 | 56 | 1019.6 |
| 20260905092306 | 31 | 298 | 1.6 | 11.3 | 0.00 | 0.00 | 0.00 | 55 | 1019.6 |
| 20260905092203 | 31 | 298 | 1.6 | 11.3 | 0.00 | 0.00 | 0.00 | 54 | 1019.6 |
| 20260905092103 | 31 | 298 | 1.6 | 11.3 | 0.00 | 0.00 | 0.00 | 54 | 1019.5 |
| 20260905092003 | 31 | 195 | 1.6 | 11.3 | 0.00 | 0.00 | 0.00 | 54 | 1019.6 |
| 20260905091903 | 31 | 137 | 1.6 | 14.5 | 0.00 | 0.00 | 0.00 | 53 | 1019.6 |
| 20260905091803 | 31 | 161 | 1.6 | 14.5 | 0.00 | 0.00 | 0.00 | 52 | 1019.7 |
| 20260905091703 | 31 | 212 | 1.6 | 14.5 | 0.00 | 0.00 | 0.00 | 52 | 1019.5 |
| 20260905091603 | 31 | 191 | 1.6 | 14.5 | 0.00 | 0.00 | 0.00 | 52 | 1019.5 |
| 20260905091503 | 31 | 299 | 1.6 | 14.5 | 0.00 | 0.00 | 0.00 | 51 | 1019.6 |
| 20260905091403 | 31 | 288 | 1.6 | 14.5 | 0.00 | 0.00 | 0.00 | 50 | 1019.6 |
| 20260905091303 | 31 | 39 | 1.6 | 14.5 | 0.00 | 0.00 | 0.00 | 51 | 1019.6 |
| 20260905091203 | 31 | 94 | 1.6 | 14.5 | 0.00 | 0.00 | 0.00 | 52 | 1019.6 |
| 20260905091103 | 31 | 323 | 1.6 | 14.5 | 0.00 | 0.00 | 0.00 | 52 | 1019.6 |
| 20260905091003 | 31 | 314 | 1.6 | 14.5 | 0.00 | 0.00 | 0.00 | 52 | 1019.6 |
| 20260905090903 | 31 | 306 | 1.6 | 9.7 | 0.00 | 0.00 | 0.00 | 51 | 1019.5 |
| 20260905090803 | 31 | 308 | 1.6 | 9.7 | 0.00 | 0.00 | 0.00 | 51 | 1019.6 |
| 20260905090703 | 31 | 305 | 3.2 | 12.9 | 0.00 | 0.00 | 0.00 | 51 | 1019.5 |
| 20260905090603 | 31 | 302 | 3.2 | 12.9 | 0.00 | 0.00 | 0.00 | 51 | 1019.6 |
| 20260905090503 | 31 | 301 | 3.2 | 12.9 | 0.00 | 0.00 | 0.00 | 51 | 1019.5 |
| 20260905090403 | 31 | 303 | 3.2 | 12.9 | 0.00 | 0.00 | 0.00 | 52 | 1019.6 |
| 20260905090303 | 31 | 302 | 3.2 | 12.9 | 0.00 | 0.00 | 0.00 | 52 | 1019.7 |
| 20260905090203 | 31 | 301 | 3.2 | 12.9 | 0.00 | 0.00 | 0.00 | 53 | 1019.6 |
| 20260905090103 | 31 | 301 | 3.2 | 12.9 | 0.00 | 0.00 | 0.00 | 53 | 1019.6 |
| 20260905090003 | 31 | 299 | 3.2 | 12.9 | 0.00 | 0.00 | 0.00 | 54 | 1019.5 |
| 20260905085903 | 31 | 299 | 3.2 | 12.9 | 0.00 | 0.00 | 0.00 | 53 | 1019.6 |
| 20260905085803 | 31 | 296 | 3.2 | 12.9 | 0.00 | 0.00 | 0.00 | 55 | 1019.6 |
| 20260905085703 | 31 | 295 | 1.6 | 12.9 | 0.00 | 0.00 | 0.00 | 56 | 1019.6 |
| 20260905085603 | 31 | 295 | 1.6 | 12.9 | 0.00 | 0.00 | 0.00 | 59 | 1019.6 |
| 20260905085503 | 31 | 289 | 1.6 | 9.7 | 0.00 | 0.00 | 0.00 | 59 | 1019.6 |
| 20260905085403 | 31 | 285 | 1.6 | 9.7 | 0.00 | 0.00 | 0.00 | 60 | 1019.6 |
| 20260905085305 | 31 | 256 | 1.6 | 9.7 | 0.00 | 0.00 | 0.00 | 61 | 1019.6 |
| 20260905085203 | 31 | 259 | 1.6 | 9.7 | 0.00 | 0.00 | 0.00 | 60 | 1019.5 |
| 20260905085103 | 31 | 271 | 1.6 | 9.7 | 0.00 | 0.00 | 0.00 | 60 | 1019.6 |
| 20260905085003 | 31 | 286 | 3.2 | 9.7 | 0.00 | 0.00 | 0.00 | 60 | 1019.6 |
| 20260905084903 | 31 | 283 | 3.2 | 9.7 | 0.00 | 0.00 | 0.00 | 60 | 1019.7 |
| 20260905084803 | 31 | 284 | 3.2 | 9.7 | 0.00 | 0.00 | 0.00 | 60 | 1019.7 |
| 20260905084703 | 31 | 282 | 3.2 | 9.7 | 0.00 | 0.00 | 0.00 | 60 | 1019.8 |
| 20260905084603 | 31 | 279 | 1.6 | 8.0 | 0.00 | 0.00 | 0.00 | 60 | 1019.8 |
| 20260905084503 | 31 | 283 | 1.6 | 8.0 | 0.00 | 0.00 | 0.00 | 60 | 1019.7 |
| 20260905084404 | 31 | 284 | 1.6 | 8.0 | 0.00 | 0.00 | 0.00 | 60 | 1019.7 |
| 20260905084303 | 31 | 289 | 1.6 | 9.7 | 0.00 | 0.00 | 0.00 | 60 | 1019.7 |
| 20260905084204 | 31 | 289 | 1.6 | 9.7 | 0.00 | 0.00 | 0.00 | 59 | 1019.8 |
| 20260905084103 | 31 | 289 | 1.6 | 9.7 | 0.00 | 0.00 | 0.00 | 59 | 1019.8 |
| 20260905084003 | 31 | 290 | 1.6 | 9.7 | 0.00 | 0.00 | 0.00 | 59 | 1019.7 |
| 20260905083903 | 31 | 294 | 1.6 | 11.3 | 0.00 | 0.00 | 0.00 | 59 | 1019.7 |
| 20260905083803 | 31 | 297 | 1.6 | 11.3 | 0.00 | 0.00 | 0.00 | 59 | 1019.7 |
| 20260905083703 | 31 | 296 | 1.6 | 11.3 | 0.00 | 0.00 | 0.00 | 59 | 1019.6 |
| 20260905083603 | 31 | 296 | 1.6 | 11.3 | 0.00 | 0.00 | 0.00 | 59 | 1019.6 |
| 20260905083503 | 31 | 302 | 1.6 | 11.3 | 0.00 | 0.00 | 0.00 | 60 | 1019.7 |
| 20260905083403 | 31 | 303 | 1.6 | 11.3 | 0.00 | 0.00 | 0.00 | 60 | 1019.6 |
| 20260905083303 | 31 | 319 | 1.6 | 12.9 | 0.00 | 0.00 | 0.00 | 61 | 1019.7 |
| 20260905083203 | 31 | 323 | 1.6 | 12.9 | 0.00 | 0.00 | 0.00 | 61 | 1019.7 |
| 20260905083103 | 30 | 319 | 1.6 | 12.9 | 0.00 | 0.00 | 0.00 | 61 | 1019.7 |
| 20260905083003 | 31 | 305 | 1.6 | 12.9 | 0.00 | 0.00 | 0.00 | 61 | 1019.6 |
| 20260905082903 | 30 | 301 | 1.6 | 12.9 | 0.00 | 0.00 | 0.00 | 61 | 1019.6 |
| 20260905082803 | 30 | 298 | 1.6 | 12.9 | 0.00 | 0.00 | 0.00 | 61 | 1019.7 |
| 20260905082703 | 30 | 299 | 3.2 | 12.9 | 0.00 | 0.00 | 0.00 | 61 | 1019.7 |
| 20260905082603 | 31 | 291 | 3.2 | 12.9 | 0.00 | 0.00 | 0.00 | 61 | 1019.7 |
| 20260905082503 | 30 | 267 | 3.2 | 12.9 | 0.00 | 0.00 | 0.00 | 61 | 1019.7 |
| 20260905082403 | 30 | 170 | 3.2 | 12.9 | 0.00 | 0.00 | 0.00 | 61 | 1019.6 |
| 20260905082306 | 31 | 139 | 3.2 | 9.7 | 0.00 | 0.00 | 0.00 | 61 | 1019.6 |
| 20260905082203 | 31 | 140 | 3.2 | 9.7 | 0.00 | 0.00 | 0.00 | 61 | 1019.6 |
| 20260905082103 | 31 | 147 | 3.2 | 9.7 | 0.00 | 0.00 | 0.00 | 61 | 1019.5 |
| 20260905082003 | 31 | 126 | 3.2 | 9.7 | 0.00 | 0.00 | 0.00 | 61 | 1019.5 |
| 20260905081903 | 31 | 125 | 3.2 | 9.7 | 0.00 | 0.00 | 0.00 | 61 | 1019.5 |
| 20260905081803 | 31 | 129 | 3.2 | 11.3 | 0.00 | 0.00 | 0.00 | 61 | 1019.5 |
| 20260905081703 | 31 | 147 | 3.2 | 11.3 | 0.00 | 0.00 | 0.00 | 61 | 1019.6 |
| 20260905081603 | 31 | 263 | 3.2 | 11.3 | 0.00 | 0.00 | 0.00 | 61 | 1019.6 |
| 20260905081503 | 31 | 284 | 3.2 | 11.3 | 0.00 | 0.00 | 0.00 | 61 | 1019.6 |
| 20260905081403 | 31 | 288 | 3.2 | 11.3 | 0.00 | 0.00 | 0.00 | 60 | 1019.6 |
| 20260905081304 | 31 | 292 | 4.8 | 11.3 | 0.00 | 0.00 | 0.00 | 60 | 1019.6 |
| 20260905081204 | 31 | 294 | 3.2 | 11.3 | 0.00 | 0.00 | 0.00 | 60 | 1019.7 |
| 20260905081104 | 31 | 296 | 3.2 | 11.3 | 0.00 | 0.00 | 0.00 | 60 | 1019.7 |
| 20260905081004 | 31 | 295 | 3.2 | 11.3 | 0.00 | 0.00 | 0.00 | 60 | 1019.6 |
| 20260905080904 | 31 | 294 | 3.2 | 11.3 | 0.00 | 0.00 | 0.00 | 59 | 1019.7 |
| 20260905080804 | 31 | 296 | 3.2 | 9.7 | 0.00 | 0.00 | 0.00 | 59 | 1019.6 |
| 20260905080704 | 31 | 296 | 3.2 | 14.5 | 0.00 | 0.00 | 0.00 | 58 | 1019.6 |
| 20260905080604 | 31 | 297 | 3.2 | 14.5 | 0.00 | 0.00 | 0.00 | 59 | 1019.5 |
| 20260905080504 | 31 | 299 | 3.2 | 14.5 | 0.00 | 0.00 | 0.00 | 59 | 1019.4 |
| 20260905080404 | 31 | 300 | 1.6 | 14.5 | 0.00 | 0.00 | 0.00 | 59 | 1019.3 |
| 20260905080304 | 31 | 296 | 1.6 | 14.5 | 0.00 | 0.00 | 0.00 | 59 | 1019.3 |
| 20260905080204 | 31 | 293 | 1.6 | 14.5 | 0.00 | 0.00 | 0.00 | 60 | 1019.3 |
| 20260905080104 | 31 | 291 | 1.6 | 14.5 | 0.00 | 0.00 | 0.00 | 60 | 1019.3 |